Wetterdaten: Donnerstag, 07.02.2019
Datum Zeit Temperatur Temp. +5 cm Temp. -10 cm Feuchte A. Luftdruck Regen Wind Richtung Richtung Zeit Sonne ET UV-I Solarstrahlg Taupunkt Windchill Windben
07.02.2019 00:00 -0,9 C -2,8 C 1,7 C 85 % 1020,4 hPa 0,0 l/m 0,0 km/h (0 Bft) S-SW 205 0 min 0,000 mm 0,0 UV-I 0 W/m -3,1 C -0,9 C 0,0 km/h (0 Bft)
07.02.2019 00:02 -0,9 C -2,8 C 1,7 C 85 % 1020,4 hPa 0,0 l/m 0,0 km/h (0 Bft) S-SW 205 0 min 0,000 mm 0,0 UV-I 0 W/m -3,1 C -0,9 C 0,0 km/h (0 Bft)
07.02.2019 00:04 -0,9 C -2,8 C 1,1 C 86 % 1020,4 hPa 0,0 l/m 0,0 km/h (0 Bft) S-SW 205 0 min 0,000 mm 0,0 UV-I 0 W/m -2,9 C -0,9 C 0,0 km/h (0 Bft)
07.02.2019 00:06 -0,8 C -3,3 C 1,7 C 86 % 1020,4 hPa 0,0 l/m 0,0 km/h (0 Bft) S-SW 205 0 min 0,000 mm 0,0 UV-I 0 W/m -2,8 C -0,8 C 0,0 km/h (0 Bft)
07.02.2019 00:08 -0,7 C -3,3 C 1,1 C 85 % 1020,3 hPa 0,0 l/m 0,0 km/h (0 Bft) S-SW 205 0 min 0,000 mm 0,0 UV-I 0 W/m -2,9 C -0,7 C 0,0 km/h (0 Bft)
07.02.2019 00:10 -0,8 C -3,3 C 1,7 C 85 % 1020,3 hPa 0,0 l/m 0,6 km/h (0 Bft) S-SW 205 0 min 0,000 mm 0,0 UV-I 0 W/m -3,0 C -0,8 C 3,2 km/h (1 Bft)
07.02.2019 00:12 -0,7 C -3,3 C 1,7 C 85 % 1020,3 hPa 0,0 l/m 0,5 km/h (0 Bft) S-SW 203 0 min 0,000 mm 0,0 UV-I 0 W/m -2,9 C -0,7 C 6,4 km/h (2 Bft)
07.02.2019 00:14 -0,8 C -3,3 C 1,7 C 85 % 1020,3 hPa 0,0 l/m 1,3 km/h (1 Bft) S-SW 203 0 min 0,000 mm 0,0 UV-I 0 W/m -3,0 C -0,8 C 6,4 km/h (2 Bft)
07.02.2019 00:16 -0,6 C -2,8 C 1,1 C 85 % 1020,1 hPa 0,0 l/m 0,9 km/h (0 Bft) S-SW 203 0 min 0,000 mm 0,0 UV-I 0 W/m -2,8 C -0,6 C 4,8 km/h (1 Bft)
07.02.2019 00:18 -0,6 C -2,8 C 1,1 C 85 % 1020,1 hPa 0,0 l/m 0,2 km/h (0 Bft) S-SW 203 0 min 0,000 mm 0,0 UV-I 0 W/m -2,8 C -0,6 C 3,2 km/h (1 Bft)
07.02.2019 00:20 -0,6 C -2,8 C 1,7 C 85 % 1020,1 hPa 0,0 l/m 0,0 km/h (0 Bft) S-SW 203 0 min 0,000 mm 0,0 UV-I 0 W/m -2,8 C -0,6 C 0,0 km/h (0 Bft)
07.02.2019 00:22 -0,6 C -2,8 C 1,7 C 84 % 1020,1 hPa 0,0 l/m 0,0 km/h (0 Bft) S-SW 203 0 min 0,000 mm 0,0 UV-I 0 W/m -3,0 C -0,6 C 0,0 km/h (0 Bft)
07.02.2019 00:24 -0,6 C -2,8 C 1,1 C 84 % 1020,0 hPa 0,0 l/m 0,0 km/h (0 Bft) S-SW 203 0 min 0,000 mm 0,0 UV-I 0 W/m -3,0 C -0,6 C 0,0 km/h (0 Bft)
07.02.2019 00:26 -0,7 C -2,8 C 1,1 C 84 % 1020,0 hPa 0,0 l/m 0,0 km/h (0 Bft) S-SW 203 0 min 0,000 mm 0,0 UV-I 0 W/m -3,1 C -0,7 C 0,0 km/h (0 Bft)
07.02.2019 00:28 -0,8 C -3,3 C 1,7 C 84 % 1019,9 hPa 0,0 l/m 0,5 km/h (0 Bft) S-SW 203 0 min 0,000 mm 0,0 UV-I 0 W/m -3,2 C -0,8 C 3,2 km/h (1 Bft)
07.02.2019 00:30 -0,9 C -3,3 C 1,1 C 84 % 1019,9 hPa 0,0 l/m 4,0 km/h (1 Bft) S-SW 203 0 min 0,000 mm 0,0 UV-I 0 W/m -3,3 C -0,9 C 4,8 km/h (1 Bft)
07.02.2019 00:32 -0,9 C -3,3 C 1,1 C 85 % 1019,8 hPa 0,0 l/m 3,9 km/h (1 Bft) S-SW 203 0 min 0,000 mm 0,0 UV-I 0 W/m -3,1 C -0,9 C 6,4 km/h (2 Bft)
07.02.2019 00:34 -0,9 C -3,3 C 1,1 C 85 % 1019,8 hPa 0,0 l/m 3,6 km/h (1 Bft) S-SW 202 0 min 0,000 mm 0,0 UV-I 0 W/m -3,1 C -0,9 C 4,8 km/h (1 Bft)
07.02.2019 00:36 -0,8 C -3,3 C 1,1 C 85 % 1019,8 hPa 0,0 l/m 0,8 km/h (0 Bft) S-SW 203 0 min 0,000 mm 0,0 UV-I 0 W/m -3,0 C -0,8 C 3,2 km/h (1 Bft)
07.02.2019 00:38 -0,7 C -3,3 C 1,7 C 84 % 1019,8 hPa 0,0 l/m 3,1 km/h (1 Bft) S-SW 202 0 min 0,000 mm 0,0 UV-I 0 W/m -3,1 C -0,7 C 8,0 km/h (2 Bft)
07.02.2019 00:40 -0,6 C -2,8 C 1,7 C 84 % 1019,8 hPa 0,0 l/m 2,1 km/h (1 Bft) S-SW 210 0 min 0,000 mm 0,0 UV-I 0 W/m -3,0 C -0,6 C 6,4 km/h (2 Bft)
07.02.2019 00:42 -0,4 C -2,2 C 1,1 C 84 % 1019,8 hPa 0,0 l/m 3,4 km/h (1 Bft) S-SW 201 0 min 0,000 mm 0,0 UV-I 0 W/m -2,8 C -0,4 C 8,0 km/h (2 Bft)
07.02.2019 00:44 -0,2 C -2,2 C 1,1 C 83 % 1019,7 hPa 0,0 l/m 2,6 km/h (1 Bft) S-SW 204 0 min 0,000 mm 0,0 UV-I 0 W/m -2,7 C -0,2 C 8,0 km/h (2 Bft)
07.02.2019 00:46 -0,2 C -2,2 C 1,1 C 83 % 1019,7 hPa 0,0 l/m 1,0 km/h (0 Bft) S-SW 204 0 min 0,000 mm 0,0 UV-I 0 W/m -2,7 C -0,2 C 4,8 km/h (1 Bft)
07.02.2019 00:48 0,0 C -1,7 C 1,1 C 82 % 1019,7 hPa 0,0 l/m 3,2 km/h (1 Bft) S-SW 209 0 min 0,000 mm 0,0 UV-I 0 W/m -2,7 C 0,0 C 8,0 km/h (2 Bft)
07.02.2019 00:50 0,0 C -1,7 C 1,7 C 82 % 1019,7 hPa 0,0 l/m 0,5 km/h (0 Bft) S-SW 209 0 min 0,000 mm 0,0 UV-I 0 W/m -2,7 C 0,0 C 4,8 km/h (1 Bft)
07.02.2019 00:52 0,0 C -2,2 C 1,1 C 82 % 1019,7 hPa 0,0 l/m 0,1 km/h (0 Bft) S-SW 209 0 min 0,000 mm 0,0 UV-I 0 W/m -2,7 C 0,0 C 1,6 km/h (1 Bft)
07.02.2019 00:54 0,0 C -2,2 C 1,1 C 82 % 1019,7 hPa 0,0 l/m 1,7 km/h (1 Bft) S-SW 207 0 min 0,000 mm 0,0 UV-I 0 W/m -2,7 C 0,0 C 8,0 km/h (2 Bft)
07.02.2019 00:56 0,1 C -1,7 C 1,7 C 81 % 1019,6 hPa 0,0 l/m 0,0 km/h (0 Bft) S-SW 207 0 min 0,000 mm 0,0 UV-I 0 W/m -2,8 C 0,1 C 1,6 km/h (1 Bft)
07.02.2019 00:58 0,1 C -2,2 C 1,1 C 81 % 1019,7 hPa 0,0 l/m 1,5 km/h (1 Bft) S-SW 207 0 min 0,000 mm 0,0 UV-I 0 W/m -2,8 C 0,1 C 6,4 km/h (2 Bft)
07.02.2019 01:00 0,1 C -2,2 C 1,7 C 81 % 1019,6 hPa 0,0 l/m 0,7 km/h (0 Bft) S-SW 207 0 min 0,000 mm 0,0 UV-I 0 W/m -2,8 C 0,1 C 3,2 km/h (1 Bft)
07.02.2019 01:02 0,0 C -2,2 C 1,1 C 81 % 1019,6 hPa 0,0 l/m 0,0 km/h (0 Bft) S-SW 207 0 min 0,000 mm 0,0 UV-I 0 W/m -2,9 C 0,0 C 0,0 km/h (0 Bft)
07.02.2019 01:04 -0,1 C -2,2 C 1,1 C 81 % 1019,6 hPa 0,0 l/m 0,5 km/h (0 Bft) S-SW 207 0 min 0,000 mm 0,0 UV-I 0 W/m -3,0 C -0,1 C 3,2 km/h (1 Bft)
07.02.2019 01:06 -0,2 C -2,2 C 1,7 C 82 % 1019,6 hPa 0,0 l/m 1,1 km/h (1 Bft) S-SW 207 0 min 0,000 mm 0,0 UV-I 0 W/m -2,9 C -0,2 C 4,8 km/h (1 Bft)
07.02.2019 01:08 -0,2 C -2,2 C 1,7 C 82 % 1019,6 hPa 0,0 l/m 0,1 km/h (0 Bft) S-SW 207 0 min 0,000 mm 0,0 UV-I 0 W/m -2,9 C -0,2 C 3,2 km/h (1 Bft)
07.02.2019 01:10 -0,2 C -2,2 C 1,7 C 82 % 1019,5 hPa 0,0 l/m 0,0 km/h (0 Bft) S-SW 207 0 min 0,000 mm 0,0 UV-I 0 W/m -2,9 C -0,2 C 0,0 km/h (0 Bft)
07.02.2019 01:12 -0,1 C -2,2 C 1,7 C 82 % 1019,5 hPa 0,0 l/m 1,6 km/h (1 Bft) S-SW 207 0 min 0,000 mm 0,0 UV-I 0 W/m -2,8 C -0,1 C 4,8 km/h (1 Bft)
07.02.2019 01:14 0,1 C -2,2 C 1,1 C 82 % 1019,5 hPa 0,0 l/m 3,0 km/h (1 Bft) S-SW 210 0 min 0,000 mm 0,0 UV-I 0 W/m -2,6 C 0,1 C 9,7 km/h (2 Bft)
07.02.2019 01:16 0,1 C -1,7 C 1,7 C 81 % 1019,4 hPa 0,0 l/m 0,0 km/h (0 Bft) S-SW 210 0 min 0,000 mm 0,0 UV-I 0 W/m -2,8 C 0,1 C 0,0 km/h (0 Bft)
07.02.2019 01:18 0,2 C -1,7 C 1,1 C 81 % 1019,4 hPa 0,0 l/m 6,0 km/h (2 Bft) S-SW 192 0 min 0,000 mm 0,0 UV-I 0 W/m -2,7 C -1,8 C 12,9 km/h (3 Bft)
07.02.2019 01:20 0,2 C -1,1 C 1,1 C 81 % 1019,4 hPa 0,0 l/m 1,3 km/h (1 Bft) S-SW 193 0 min 0,000 mm 0,0 UV-I 0 W/m -2,7 C 0,2 C 6,4 km/h (2 Bft)
07.02.2019 01:22 0,3 C -1,1 C 1,7 C 81 % 1019,3 hPa 0,0 l/m 1,9 km/h (1 Bft) W-SW 244 0 min 0,000 mm 0,0 UV-I 0 W/m -2,6 C 0,3 C 6,4 km/h (2 Bft)
07.02.2019 01:24 0,3 C -1,7 C 1,1 C 80 % 1019,4 hPa 0,0 l/m 2,0 km/h (1 Bft) SW 235 0 min 0,000 mm 0,0 UV-I 0 W/m -2,7 C 0,3 C 9,7 km/h (2 Bft)
07.02.2019 01:26 0,3 C -1,1 C 1,7 C 80 % 1019,4 hPa 0,0 l/m 5,8 km/h (2 Bft) SW 220 0 min 0,000 mm 0,0 UV-I 0 W/m -2,7 C -1,6 C 12,9 km/h (3 Bft)
07.02.2019 01:28 0,4 C -1,1 C 1,1 C 80 % 1019,4 hPa 0,0 l/m 4,5 km/h (1 Bft) SW 220 0 min 0,000 mm 0,0 UV-I 0 W/m -2,6 C 0,4 C 9,7 km/h (2 Bft)
07.02.2019 01:30 0,5 C -1,1 C 1,7 C 80 % 1019,3 hPa 0,0 l/m 3,3 km/h (1 Bft) SW 218 0 min 0,000 mm 0,0 UV-I 0 W/m -2,5 C 0,5 C 6,4 km/h (2 Bft)
07.02.2019 01:32 0,5 C -0,6 C 1,1 C 79 % 1019,3 hPa 0,0 l/m 1,2 km/h (1 Bft) SW 218 0 min 0,000 mm 0,0 UV-I 0 W/m -2,7 C 0,5 C 3,2 km/h (1 Bft)
07.02.2019 01:34 0,6 C -1,1 C 1,1 C 79 % 1019,4 hPa 0,0 l/m 1,5 km/h (1 Bft) SW 217 0 min 0,000 mm 0,0 UV-I 0 W/m -2,6 C 0,6 C 8,0 km/h (2 Bft)
07.02.2019 01:36 0,6 C -0,6 C 1,1 C 79 % 1019,3 hPa 0,0 l/m 2,4 km/h (1 Bft) SW 217 0 min 0,000 mm 0,0 UV-I 0 W/m -2,6 C 0,6 C 6,4 km/h (2 Bft)
07.02.2019 01:38 0,6 C -0,6 C 1,1 C 79 % 1019,3 hPa 0,0 l/m 0,8 km/h (0 Bft) SW 217 0 min 0,000 mm 0,0 UV-I 0 W/m -2,6 C 0,6 C 4,8 km/h (1 Bft)
07.02.2019 01:40 0,6 C -1,1 C 1,7 C 79 % 1019,3 hPa 0,0 l/m 0,5 km/h (0 Bft) SW 217 0 min 0,000 mm 0,0 UV-I 0 W/m -2,6 C 0,6 C 4,8 km/h (1 Bft)
07.02.2019 01:42 0,5 C -1,1 C 1,1 C 79 % 1019,2 hPa 0,0 l/m 0,2 km/h (0 Bft) SW 217 0 min 0,000 mm 0,0 UV-I 0 W/m -2,7 C 0,5 C 1,6 km/h (1 Bft)
07.02.2019 01:44 0,3 C -1,7 C 1,1 C 79 % 1019,2 hPa 0,0 l/m 0,5 km/h (0 Bft) SW 217 0 min 0,000 mm 0,0 UV-I 0 W/m -2,9 C 0,3 C 3,2 km/h (1 Bft)
07.02.2019 01:46 0,2 C -2,2 C 1,7 C 80 % 1019,1 hPa 0,0 l/m 0,0 km/h (0 Bft) SW 217 0 min 0,000 mm 0,0 UV-I 0 W/m -2,8 C 0,2 C 0,0 km/h (0 Bft)
07.02.2019 01:48 0,2 C -2,2 C 1,7 C 80 % 1019,1 hPa 0,0 l/m 0,4 km/h (0 Bft) SW 217 0 min 0,000 mm 0,0 UV-I 0 W/m -2,8 C 0,2 C 3,2 km/h (1 Bft)
07.02.2019 01:50 0,1 C -2,8 C 1,7 C 80 % 1019,0 hPa 0,0 l/m 0,7 km/h (0 Bft) SW 217 0 min 0,000 mm 0,0 UV-I 0 W/m -2,9 C 0,1 C 3,2 km/h (1 Bft)
07.02.2019 01:52 0,1 C -2,2 C 1,7 C 80 % 1019,0 hPa 0,0 l/m 1,8 km/h (1 Bft) SW 217 0 min 0,000 mm 0,0 UV-I 0 W/m -2,9 C 0,1 C 4,8 km/h (1 Bft)
07.02.2019 01:54 0,1 C -2,2 C 1,1 C 81 % 1019,0 hPa 0,0 l/m 2,2 km/h (1 Bft) SW 217 0 min 0,000 mm 0,0 UV-I 0 W/m -2,8 C 0,1 C 6,4 km/h (2 Bft)
07.02.2019 01:56 0,0 C -2,2 C 1,1 C 81 % 1019,0 hPa 0,0 l/m 1,2 km/h (1 Bft) SW 217 0 min 0,000 mm 0,0 UV-I 0 W/m -2,9 C 0,0 C 6,4 km/h (2 Bft)
07.02.2019 01:58 0,0 C -2,2 C 1,1 C 81 % 1019,0 hPa 0,0 l/m 3,3 km/h (1 Bft) SW 216 0 min 0,000 mm 0,0 UV-I 0 W/m -2,9 C 0,0 C 6,4 km/h (2 Bft)
07.02.2019 02:00 0,0 C -1,7 C 1,1 C 81 % 1019,0 hPa 0,0 l/m 3,4 km/h (1 Bft) S 191 0 min 0,000 mm 0,0 UV-I 0 W/m -2,9 C 0,0 C 11,3 km/h (2 Bft)
07.02.2019 02:02 0,0 C -1,7 C 1,1 C 81 % 1019,0 hPa 0,0 l/m 3,6 km/h (1 Bft) S-SW 194 0 min 0,000 mm 0,0 UV-I 0 W/m -2,9 C 0,0 C 8,0 km/h (2 Bft)
07.02.2019 02:04 0,1 C -1,7 C 1,7 C 81 % 1018,9 hPa 0,0 l/m 5,1 km/h (1 Bft) S 187 0 min 0,000 mm 0,0 UV-I 0 W/m -2,8 C -1,5 C 11,3 km/h (2 Bft)
07.02.2019 02:06 0,1 C -1,1 C 1,7 C 81 % 1018,9 hPa 0,0 l/m 5,0 km/h (1 Bft) S-SW 197 0 min 0,000 mm 0,0 UV-I 0 W/m -2,8 C -1,5 C 8,0 km/h (2 Bft)
07.02.2019 02:08 0,1 C -1,1 C 1,1 C 81 % 1018,9 hPa 0,0 l/m 4,5 km/h (1 Bft) S-SW 202 0 min 0,000 mm 0,0 UV-I 0 W/m -2,8 C 0,1 C 11,3 km/h (2 Bft)
07.02.2019 02:10 0,1 C -1,1 C 1,7 C 81 % 1018,9 hPa 0,0 l/m 3,1 km/h (1 Bft) S-SW 204 0 min 0,000 mm 0,0 UV-I 0 W/m -2,8 C 0,1 C 8,0 km/h (2 Bft)
07.02.2019 02:12 0,1 C -1,1 C 1,7 C 81 % 1018,8 hPa 0,0 l/m 0,8 km/h (0 Bft) S-SW 205 0 min 0,000 mm 0,0 UV-I 0 W/m -2,8 C 0,1 C 4,8 km/h (1 Bft)
07.02.2019 02:14 0,1 C -1,1 C 1,1 C 80 % 1018,8 hPa 0,0 l/m 3,3 km/h (1 Bft) S-SW 204 0 min 0,000 mm 0,0 UV-I 0 W/m -2,9 C 0,1 C 6,4 km/h (2 Bft)
07.02.2019 02:16 0,1 C -1,1 C 1,1 C 81 % 1018,8 hPa 0,0 l/m 4,3 km/h (1 Bft) S-SW 204 0 min 0,000 mm 0,0 UV-I 0 W/m -2,8 C 0,1 C 8,0 km/h (2 Bft)
07.02.2019 02:18 0,1 C -1,1 C 1,1 C 81 % 1018,8 hPa 0,0 l/m 5,1 km/h (1 Bft) S-SW 205 0 min 0,000 mm 0,0 UV-I 0 W/m -2,8 C -1,5 C 8,0 km/h (2 Bft)
07.02.2019 02:20 0,1 C -1,1 C 1,1 C 81 % 1018,8 hPa 0,0 l/m 4,4 km/h (1 Bft) S-SW 198 0 min 0,000 mm 0,0 UV-I 0 W/m -2,8 C 0,1 C 9,7 km/h (2 Bft)
07.02.2019 02:22 0,1 C -1,1 C 1,1 C 81 % 1018,8 hPa 0,0 l/m 1,7 km/h (1 Bft) S-SW 198 0 min 0,000 mm 0,0 UV-I 0 W/m -2,8 C 0,1 C 4,8 km/h (1 Bft)
07.02.2019 02:24 0,1 C -1,7 C 1,1 C 81 % 1018,9 hPa 0,0 l/m 1,1 km/h (1 Bft) S-SW 198 0 min 0,000 mm 0,0 UV-I 0 W/m -2,8 C 0,1 C 6,4 km/h (2 Bft)
07.02.2019 02:26 0,0 C -1,7 C 1,1 C 81 % 1018,8 hPa 0,0 l/m 2,6 km/h (1 Bft) S-SW 198 0 min 0,000 mm 0,0 UV-I 0 W/m -2,9 C 0,0 C 6,4 km/h (2 Bft)
07.02.2019 02:28 -0,1 C -1,7 C 1,1 C 81 % 1018,8 hPa 0,0 l/m 0,6 km/h (0 Bft) S-SW 198 0 min 0,000 mm 0,0 UV-I 0 W/m -3,0 C -0,1 C 3,2 km/h (1 Bft)
07.02.2019 02:30 -0,1 C -2,2 C 1,7 C 81 % 1018,8 hPa 0,0 l/m 1,6 km/h (1 Bft) S-SW 198 0 min 0,000 mm 0,0 UV-I 0 W/m -3,0 C -0,1 C 4,8 km/h (1 Bft)
07.02.2019 02:32 -0,2 C -2,2 C 1,7 C 81 % 1018,8 hPa 0,0 l/m 3,1 km/h (1 Bft) S-SW 200 0 min 0,000 mm 0,0 UV-I 0 W/m -3,1 C -0,2 C 6,4 km/h (2 Bft)
07.02.2019 02:34 -0,2 C -2,2 C 1,1 C 81 % 1018,7 hPa 0,0 l/m 2,8 km/h (1 Bft) S-SW 200 0 min 0,000 mm 0,0 UV-I 0 W/m -3,1 C -0,2 C 6,4 km/h (2 Bft)
07.02.2019 02:36 -0,2 C -2,2 C 1,1 C 82 % 1018,7 hPa 0,0 l/m 2,2 km/h (1 Bft) S-SW 199 0 min 0,000 mm 0,0 UV-I 0 W/m -2,9 C -0,2 C 4,8 km/h (1 Bft)
07.02.2019 02:38 -0,2 C -2,2 C 1,7 C 82 % 1018,7 hPa 0,0 l/m 2,8 km/h (1 Bft) S-SW 199 0 min 0,000 mm 0,0 UV-I 0 W/m -2,9 C -0,2 C 6,4 km/h (2 Bft)
07.02.2019 02:40 -0,2 C -2,2 C 1,1 C 82 % 1018,6 hPa 0,0 l/m 3,9 km/h (1 Bft) S-SW 198 0 min 0,000 mm 0,0 UV-I 0 W/m -2,9 C -0,2 C 6,4 km/h (2 Bft)
07.02.2019 02:42 -0,2 C -1,7 C 1,1 C 82 % 1018,6 hPa 0,0 l/m 3,9 km/h (1 Bft) S-SW 198 0 min 0,000 mm 0,0 UV-I 0 W/m -2,9 C -0,2 C 6,4 km/h (2 Bft)
07.02.2019 02:44 -0,2 C -2,2 C 1,7 C 82 % 1018,5 hPa 0,0 l/m 1,8 km/h (1 Bft) S-SW 198 0 min 0,000 mm 0,0 UV-I 0 W/m -2,9 C -0,2 C 6,4 km/h (2 Bft)
07.02.2019 02:46 -0,2 C -2,2 C 1,1 C 82 % 1018,5 hPa 0,0 l/m 4,4 km/h (1 Bft) S-SW 198 0 min 0,000 mm 0,0 UV-I 0 W/m -2,9 C -0,2 C 6,4 km/h (2 Bft)
07.02.2019 02:48 -0,3 C -2,2 C 1,7 C 82 % 1018,4 hPa 0,0 l/m 4,3 km/h (1 Bft) S-SW 195 0 min 0,000 mm 0,0 UV-I 0 W/m -3,0 C -0,3 C 11,3 km/h (2 Bft)
07.02.2019 02:50 -0,2 C -1,7 C 1,7 C 82 % 1018,3 hPa 0,0 l/m 3,6 km/h (1 Bft) S-SW 196 0 min 0,000 mm 0,0 UV-I 0 W/m -2,9 C -0,2 C 9,7 km/h (2 Bft)
07.02.2019 02:52 -0,3 C -1,7 C 1,1 C 82 % 1018,3 hPa 0,0 l/m 2,1 km/h (1 Bft) S-SW 206 0 min 0,000 mm 0,0 UV-I 0 W/m -3,0 C -0,3 C 6,4 km/h (2 Bft)
07.02.2019 02:54 -0,3 C -1,7 C 1,1 C 82 % 1018,3 hPa 0,0 l/m 1,4 km/h (1 Bft) S-SW 206 0 min 0,000 mm 0,0 UV-I 0 W/m -3,0 C -0,3 C 4,8 km/h (1 Bft)
07.02.2019 02:56 -0,3 C -1,7 C 1,7 C 82 % 1018,2 hPa 0,0 l/m 2,5 km/h (1 Bft) S-SW 204 0 min 0,000 mm 0,0 UV-I 0 W/m -3,0 C -0,3 C 6,4 km/h (2 Bft)
07.02.2019 02:58 -0,3 C -1,7 C 1,7 C 82 % 1018,1 hPa 0,0 l/m 1,7 km/h (1 Bft) S-SW 206 0 min 0,000 mm 0,0 UV-I 0 W/m -3,0 C -0,3 C 6,4 km/h (2 Bft)
07.02.2019 03:00 -0,3 C -1,7 C 1,1 C 82 % 1018,1 hPa 0,0 l/m 1,8 km/h (1 Bft) S-SW 206 0 min 0,000 mm 0,0 UV-I 0 W/m -3,0 C -0,3 C 6,4 km/h (2 Bft)
07.02.2019 03:02 -0,3 C -1,7 C 1,1 C 82 % 1018,0 hPa 0,0 l/m 4,1 km/h (1 Bft) S-SW 201 0 min 0,000 mm 0,0 UV-I 0 W/m -3,0 C -0,3 C 8,0 km/h (2 Bft)
07.02.2019 03:04 -0,2 C -1,1 C 1,7 C 81 % 1018,0 hPa 0,0 l/m 4,0 km/h (1 Bft) S 191 0 min 0,000 mm 0,0 UV-I 0 W/m -3,1 C -0,2 C 9,7 km/h (2 Bft)
07.02.2019 03:06 -0,2 C -1,1 C 1,7 C 81 % 1017,9 hPa 0,0 l/m 3,5 km/h (1 Bft) S 184 0 min 0,000 mm 0,0 UV-I 0 W/m -3,1 C -0,2 C 11,3 km/h (2 Bft)
07.02.2019 03:08 -0,1 C -1,1 C 1,1 C 81 % 1017,9 hPa 0,0 l/m 3,5 km/h (1 Bft) S-SW 192 0 min 0,000 mm 0,0 UV-I 0 W/m -3,0 C -0,1 C 6,4 km/h (2 Bft)
07.02.2019 03:10 -0,1 C -1,1 C 1,7 C 81 % 1017,9 hPa 0,0 l/m 3,4 km/h (1 Bft) S-SW 208 0 min 0,000 mm 0,0 UV-I 0 W/m -3,0 C -0,1 C 9,7 km/h (2 Bft)
07.02.2019 03:12 0,0 C -1,1 C 1,7 C 80 % 1018,0 hPa 0,0 l/m 0,2 km/h (0 Bft) S-SW 208 0 min 0,000 mm 0,0 UV-I 0 W/m -3,0 C 0,0 C 4,8 km/h (1 Bft)
07.02.2019 03:14 0,1 C -1,7 C 1,1 C 80 % 1017,9 hPa 0,0 l/m 2,7 km/h (1 Bft) S-SW 196 0 min 0,000 mm 0,0 UV-I 0 W/m -2,9 C 0,1 C 9,7 km/h (2 Bft)
07.02.2019 03:16 0,0 C -1,7 C 1,7 C 80 % 1017,8 hPa 0,0 l/m 1,1 km/h (1 Bft) SW 224 0 min 0,000 mm 0,0 UV-I 0 W/m -3,0 C 0,0 C 8,0 km/h (2 Bft)
07.02.2019 03:18 -0,1 C -2,2 C 1,1 C 80 % 1017,8 hPa 0,0 l/m 1,8 km/h (1 Bft) SW 223 0 min 0,000 mm 0,0 UV-I 0 W/m -3,1 C -0,1 C 6,4 km/h (2 Bft)
07.02.2019 03:20 -0,1 C -2,2 C 1,1 C 80 % 1017,8 hPa 0,0 l/m 3,4 km/h (1 Bft) S-SW 213 0 min 0,000 mm 0,0 UV-I 0 W/m -3,1 C -0,1 C 9,7 km/h (2 Bft)
07.02.2019 03:22 -0,1 C -1,7 C 1,1 C 80 % 1017,7 hPa 0,0 l/m 2,1 km/h (1 Bft) SW 215 0 min 0,000 mm 0,0 UV-I 0 W/m -3,1 C -0,1 C 6,4 km/h (2 Bft)
07.02.2019 03:24 0,0 C -1,7 C 1,1 C 79 % 1017,7 hPa 0,0 l/m 3,4 km/h (1 Bft) S-SW 202 0 min 0,000 mm 0,0 UV-I 0 W/m -3,2 C 0,0 C 8,0 km/h (2 Bft)
07.02.2019 03:26 -0,1 C -1,7 C 1,1 C 79 % 1017,6 hPa 0,0 l/m 4,1 km/h (1 Bft) S-SW 196 0 min 0,000 mm 0,0 UV-I 0 W/m -3,3 C -0,1 C 11,3 km/h (2 Bft)
07.02.2019 03:28 -0,1 C -1,7 C 1,1 C 79 % 1017,7 hPa 0,0 l/m 4,1 km/h (1 Bft) S-SW 198 0 min 0,000 mm 0,0 UV-I 0 W/m -3,3 C -0,1 C 8,0 km/h (2 Bft)
07.02.2019 03:30 -0,1 C -1,7 C 1,1 C 79 % 1017,6 hPa 0,0 l/m 3,1 km/h (1 Bft) S-SW 208 0 min 0,000 mm 0,0 UV-I 0 W/m -3,3 C -0,1 C 6,4 km/h (2 Bft)
07.02.2019 03:32 -0,1 C -1,7 C 1,1 C 79 % 1017,7 hPa 0,0 l/m 2,3 km/h (1 Bft) S-SW 208 0 min 0,000 mm 0,0 UV-I 0 W/m -3,3 C -0,1 C 4,8 km/h (1 Bft)
07.02.2019 03:34 -0,1 C -1,7 C 1,1 C 79 % 1017,7 hPa 0,0 l/m 1,8 km/h (1 Bft) SW 222 0 min 0,000 mm 0,0 UV-I 0 W/m -3,3 C -0,1 C 9,7 km/h (2 Bft)
07.02.2019 03:36 -0,1 C -1,7 C 1,1 C 79 % 1017,7 hPa 0,0 l/m 3,9 km/h (1 Bft) SW 217 0 min 0,000 mm 0,0 UV-I 0 W/m -3,3 C -0,1 C 8,0 km/h (2 Bft)
07.02.2019 03:38 -0,1 C -1,7 C 1,1 C 79 % 1017,6 hPa 0,0 l/m 3,4 km/h (1 Bft) S 186 0 min 0,000 mm 0,0 UV-I 0 W/m -3,3 C -0,1 C 11,3 km/h (2 Bft)
07.02.2019 03:40 -0,2 C -1,7 C 1,1 C 79 % 1017,6 hPa 0,0 l/m 4,4 km/h (1 Bft) S 188 0 min 0,000 mm 0,0 UV-I 0 W/m -3,4 C -0,2 C 9,7 km/h (2 Bft)
07.02.2019 03:42 -0,2 C -1,7 C 1,1 C 79 % 1017,6 hPa 0,0 l/m 3,4 km/h (1 Bft) S 190 0 min 0,000 mm 0,0 UV-I 0 W/m -3,4 C -0,2 C 8,0 km/h (2 Bft)
07.02.2019 03:44 -0,2 C -1,7 C 1,1 C 79 % 1017,6 hPa 0,0 l/m 1,6 km/h (1 Bft) S 190 0 min 0,000 mm 0,0 UV-I 0 W/m -3,4 C -0,2 C 6,4 km/h (2 Bft)
07.02.2019 03:46 -0,2 C -1,7 C 1,1 C 79 % 1017,6 hPa 0,0 l/m 2,2 km/h (1 Bft) S-SW 208 0 min 0,000 mm 0,0 UV-I 0 W/m -3,4 C -0,2 C 9,7 km/h (2 Bft)
07.02.2019 03:48 -0,2 C -1,7 C 1,7 C 79 % 1017,6 hPa 0,0 l/m 3,5 km/h (1 Bft) S-SW 202 0 min 0,000 mm 0,0 UV-I 0 W/m -3,4 C -0,2 C 8,0 km/h (2 Bft)
07.02.2019 03:50 -0,3 C -2,2 C 1,1 C 79 % 1017,5 hPa 0,0 l/m 1,2 km/h (1 Bft) S-SW 204 0 min 0,000 mm 0,0 UV-I 0 W/m -3,5 C -0,3 C 6,4 km/h (2 Bft)
07.02.2019 03:52 -0,3 C -2,2 C 1,1 C 79 % 1017,5 hPa 0,0 l/m 3,5 km/h (1 Bft) S-SW 205 0 min 0,000 mm 0,0 UV-I 0 W/m -3,5 C -0,3 C 8,0 km/h (2 Bft)
07.02.2019 03:54 -0,3 C -2,2 C 1,1 C 79 % 1017,5 hPa 0,0 l/m 4,6 km/h (1 Bft) S-SW 193 0 min 0,000 mm 0,0 UV-I 0 W/m -3,5 C -1,7 C 6,4 km/h (2 Bft)
07.02.2019 03:56 -0,2 C -1,7 C 1,1 C 79 % 1017,4 hPa 0,0 l/m 5,4 km/h (2 Bft) S-SW 204 0 min 0,000 mm 0,0 UV-I 0 W/m -3,4 C -2,0 C 8,0 km/h (2 Bft)
07.02.2019 03:58 -0,2 C -1,7 C 1,1 C 78 % 1017,4 hPa 0,0 l/m 1,5 km/h (1 Bft) S-SW 204 0 min 0,000 mm 0,0 UV-I 0 W/m -3,6 C -0,2 C 8,0 km/h (2 Bft)
07.02.2019 04:00 -0,2 C -2,2 C 1,1 C 78 % 1017,5 hPa 0,0 l/m 1,2 km/h (1 Bft) S-SW 204 0 min 0,000 mm 0,0 UV-I 0 W/m -3,6 C -0,2 C 4,8 km/h (1 Bft)
07.02.2019 04:02 -0,2 C -1,7 C 1,1 C 78 % 1017,4 hPa 0,0 l/m 2,6 km/h (1 Bft) S-SW 204 0 min 0,000 mm 0,0 UV-I 0 W/m -3,6 C -0,2 C 3,2 km/h (1 Bft)
07.02.2019 04:04 -0,2 C -1,7 C 1,1 C 78 % 1017,3 hPa 0,0 l/m 2,6 km/h (1 Bft) S-SW 204 0 min 0,000 mm 0,0 UV-I 0 W/m -3,6 C -0,2 C 6,4 km/h (2 Bft)
07.02.2019 04:06 -0,2 C -1,7 C 1,1 C 78 % 1017,3 hPa 0,0 l/m 1,5 km/h (1 Bft) S-SW 204 0 min 0,000 mm 0,0 UV-I 0 W/m -3,6 C -0,2 C 6,4 km/h (2 Bft)
07.02.2019 04:08 -0,3 C -2,2 C 1,1 C 78 % 1017,3 hPa 0,0 l/m 1,5 km/h (1 Bft) S-SW 204 0 min 0,000 mm 0,0 UV-I 0 W/m -3,7 C -0,3 C 4,8 km/h (1 Bft)
07.02.2019 04:10 -0,3 C -2,2 C 1,1 C 78 % 1017,3 hPa 0,0 l/m 3,1 km/h (1 Bft) S-SW 203 0 min 0,000 mm 0,0 UV-I 0 W/m -3,7 C -0,3 C 6,4 km/h (2 Bft)
07.02.2019 04:12 -0,3 C -2,2 C 1,1 C 78 % 1017,3 hPa 0,0 l/m 1,3 km/h (1 Bft) S-SW 204 0 min 0,000 mm 0,0 UV-I 0 W/m -3,7 C -0,3 C 9,7 km/h (2 Bft)
07.02.2019 04:14 -0,3 C -2,2 C 1,1 C 78 % 1017,4 hPa 0,0 l/m 0,7 km/h (0 Bft) S-SW 205 0 min 0,000 mm 0,0 UV-I 0 W/m -3,7 C -0,3 C 3,2 km/h (1 Bft)
07.02.2019 04:16 -0,3 C -2,2 C 1,1 C 78 % 1017,4 hPa 0,0 l/m 1,0 km/h (0 Bft) S-SW 204 0 min 0,000 mm 0,0 UV-I 0 W/m -3,7 C -0,3 C 6,4 km/h (2 Bft)
07.02.2019 04:18 -0,4 C -2,2 C 1,1 C 78 % 1017,3 hPa 0,0 l/m 0,0 km/h (0 Bft) S-SW 204 0 min 0,000 mm 0,0 UV-I 0 W/m -3,8 C -0,4 C 0,0 km/h (0 Bft)
07.02.2019 04:20 -0,5 C -2,8 C 1,1 C 78 % 1017,3 hPa 0,0 l/m 0,1 km/h (0 Bft) S-SW 204 0 min 0,000 mm 0,0 UV-I 0 W/m -3,9 C -0,5 C 3,2 km/h (1 Bft)
07.02.2019 04:22 -0,6 C -2,8 C 1,1 C 78 % 1017,3 hPa 0,0 l/m 0,1 km/h (0 Bft) S-SW 204 0 min 0,000 mm 0,0 UV-I 0 W/m -3,9 C -0,6 C 3,2 km/h (1 Bft)
07.02.2019 04:24 -0,6 C -2,8 C 1,1 C 78 % 1017,3 hPa 0,0 l/m 0,0 km/h (0 Bft) S-SW 204 0 min 0,000 mm 0,0 UV-I 0 W/m -3,9 C -0,6 C 0,0 km/h (0 Bft)
07.02.2019 04:26 -0,7 C -2,8 C 1,1 C 78 % 1017,2 hPa 0,0 l/m 0,0 km/h (0 Bft) S-SW 204 0 min 0,000 mm 0,0 UV-I 0 W/m -4,0 C -0,7 C 0,0 km/h (0 Bft)
07.02.2019 04:28 -0,8 C -2,8 C 1,1 C 79 % 1017,2 hPa 0,0 l/m 0,1 km/h (0 Bft) S-SW 204 0 min 0,000 mm 0,0 UV-I 0 W/m -4,0 C -0,8 C 1,6 km/h (1 Bft)
07.02.2019 04:30 -0,9 C -3,3 C 1,1 C 79 % 1017,2 hPa 0,0 l/m 0,0 km/h (0 Bft) S-SW 204 0 min 0,000 mm 0,0 UV-I 0 W/m -4,1 C -0,9 C 0,0 km/h (0 Bft)
07.02.2019 04:32 -0,9 C -3,3 C 1,1 C 79 % 1017,1 hPa 0,0 l/m 0,0 km/h (0 Bft) S-SW 204 0 min 0,000 mm 0,0 UV-I 0 W/m -4,1 C -0,9 C 1,6 km/h (1 Bft)
07.02.2019 04:34 -1,0 C -3,3 C 1,1 C 79 % 1017,0 hPa 0,0 l/m 0,0 km/h (0 Bft) S-SW 204 0 min 0,000 mm 0,0 UV-I 0 W/m -4,2 C -1,0 C 0,0 km/h (0 Bft)
07.02.2019 04:36 -1,1 C -3,9 C 1,1 C 80 % 1017,0 hPa 0,0 l/m 0,4 km/h (0 Bft) S-SW 204 0 min 0,000 mm 0,0 UV-I 0 W/m -4,1 C -1,1 C 3,2 km/h (1 Bft)
07.02.2019 04:38 -1,1 C -3,3 C 1,1 C 80 % 1016,9 hPa 0,0 l/m 0,3 km/h (0 Bft) S-SW 204 0 min 0,000 mm 0,0 UV-I 0 W/m -4,1 C -1,1 C 3,2 km/h (1 Bft)
07.02.2019 04:40 -1,2 C -3,3 C 1,1 C 80 % 1016,9 hPa 0,0 l/m 0,0 km/h (0 Bft) S-SW 204 0 min 0,000 mm 0,0 UV-I 0 W/m -4,2 C -1,2 C 1,6 km/h (1 Bft)
07.02.2019 04:42 -1,2 C -3,3 C 1,1 C 80 % 1016,8 hPa 0,0 l/m 0,6 km/h (0 Bft) S-SW 204 0 min 0,000 mm 0,0 UV-I 0 W/m -4,2 C -1,2 C 4,8 km/h (1 Bft)
07.02.2019 04:44 -1,2 C -3,3 C 1,1 C 81 % 1016,8 hPa 0,0 l/m 2,7 km/h (1 Bft) S-SW 204 0 min 0,000 mm 0,0 UV-I 0 W/m -4,0 C -1,2 C 4,8 km/h (1 Bft)
07.02.2019 04:46 -1,3 C -3,3 C 1,1 C 81 % 1016,8 hPa 0,0 l/m 1,6 km/h (1 Bft) S-SW 204 0 min 0,000 mm 0,0 UV-I 0 W/m -4,1 C -1,3 C 3,2 km/h (1 Bft)
07.02.2019 04:48 -1,3 C -3,3 C 1,1 C 81 % 1016,7 hPa 0,0 l/m 2,3 km/h (1 Bft) S-SW 204 0 min 0,000 mm 0,0 UV-I 0 W/m -4,1 C -1,3 C 6,4 km/h (2 Bft)
07.02.2019 04:50 -1,3 C -3,3 C 1,1 C 81 % 1016,6 hPa 0,0 l/m 2,4 km/h (1 Bft) S-SW 194 0 min 0,000 mm 0,0 UV-I 0 W/m -4,1 C -1,3 C 6,4 km/h (2 Bft)
07.02.2019 04:52 -1,3 C -2,8 C 1,1 C 81 % 1016,5 hPa 0,0 l/m 4,2 km/h (1 Bft) S-SW 194 0 min 0,000 mm 0,0 UV-I 0 W/m -4,1 C -1,3 C 8,0 km/h (2 Bft)
07.02.2019 04:54 -1,2 C -2,2 C 1,1 C 81 % 1016,5 hPa 0,0 l/m 0,6 km/h (0 Bft) S-SW 194 0 min 0,000 mm 0,0 UV-I 0 W/m -4,0 C -1,2 C 3,2 km/h (1 Bft)
07.02.2019 04:56 -1,2 C -2,8 C 1,1 C 81 % 1016,5 hPa 0,0 l/m 0,0 km/h (0 Bft) S-SW 194 0 min 0,000 mm 0,0 UV-I 0 W/m -4,0 C -1,2 C 1,6 km/h (1 Bft)
07.02.2019 04:58 -1,1 C -2,8 C 1,1 C 80 % 1016,5 hPa 0,0 l/m 0,0 km/h (0 Bft) S-SW 194 0 min 0,000 mm 0,0 UV-I 0 W/m -4,1 C -1,1 C 0,0 km/h (0 Bft)
07.02.2019 05:00 -1,1 C -2,8 C 1,1 C 80 % 1016,5 hPa 0,0 l/m 0,0 km/h (0 Bft) S-SW 194 0 min 0,000 mm 0,0 UV-I 0 W/m -4,1 C -1,1 C 0,0 km/h (0 Bft)
07.02.2019 05:02 -1,1 C -2,8 C 1,1 C 80 % 1016,5 hPa 0,0 l/m 0,1 km/h (0 Bft) S-SW 194 0 min 0,000 mm 0,0 UV-I 0 W/m -4,1 C -1,1 C 1,6 km/h (1 Bft)
07.02.2019 05:04 -1,0 C -2,8 C 1,1 C 80 % 1016,4 hPa 0,0 l/m 1,0 km/h (0 Bft) S-SW 194 0 min 0,000 mm 0,0 UV-I 0 W/m -4,0 C -1,0 C 3,2 km/h (1 Bft)
07.02.2019 05:06 -1,0 C -2,8 C 1,1 C 79 % 1016,4 hPa 0,0 l/m 1,0 km/h (0 Bft) S-SW 194 0 min 0,000 mm 0,0 UV-I 0 W/m -4,2 C -1,0 C 4,8 km/h (1 Bft)
07.02.2019 05:08 -1,1 C -3,3 C 1,1 C 79 % 1016,4 hPa 0,0 l/m 0,9 km/h (0 Bft) S-SW 194 0 min 0,000 mm 0,0 UV-I 0 W/m -4,3 C -1,1 C 4,8 km/h (1 Bft)
07.02.2019 05:10 -1,1 C -3,3 C 1,1 C 79 % 1016,5 hPa 0,0 l/m 1,1 km/h (1 Bft) S-SW 194 0 min 0,000 mm 0,0 UV-I 0 W/m -4,3 C -1,1 C 4,8 km/h (1 Bft)
07.02.2019 05:12 -1,0 C -2,8 C 1,1 C 79 % 1016,5 hPa 0,0 l/m 0,0 km/h (0 Bft) S-SW 194 0 min 0,000 mm 0,0 UV-I 0 W/m -4,2 C -1,0 C 0,0 km/h (0 Bft)
07.02.2019 05:14 -1,0 C -3,3 C 1,1 C 79 % 1016,5 hPa 0,0 l/m 1,1 km/h (1 Bft) S-SW 195 0 min 0,000 mm 0,0 UV-I 0 W/m -4,2 C -1,0 C 4,8 km/h (1 Bft)
07.02.2019 05:16 -1,0 C -3,3 C 1,1 C 79 % 1016,5 hPa 0,0 l/m 0,5 km/h (0 Bft) S-SW 195 0 min 0,000 mm 0,0 UV-I 0 W/m -4,2 C -1,0 C 3,2 km/h (1 Bft)
07.02.2019 05:18 -1,0 C -3,3 C 1,1 C 79 % 1016,4 hPa 0,0 l/m 0,1 km/h (0 Bft) S-SW 195 0 min 0,000 mm 0,0 UV-I 0 W/m -4,2 C -1,0 C 1,6 km/h (1 Bft)
07.02.2019 05:20 -1,0 C -3,3 C 1,1 C 79 % 1016,5 hPa 0,0 l/m 0,3 km/h (0 Bft) S-SW 195 0 min 0,000 mm 0,0 UV-I 0 W/m -4,2 C -1,0 C 3,2 km/h (1 Bft)
07.02.2019 05:22 -1,1 C -2,8 C 1,1 C 79 % 1016,4 hPa 0,0 l/m 0,6 km/h (0 Bft) S-SW 195 0 min 0,000 mm 0,0 UV-I 0 W/m -4,3 C -1,1 C 3,2 km/h (1 Bft)
07.02.2019 05:24 -1,1 C -3,3 C 1,1 C 79 % 1016,4 hPa 0,0 l/m 0,0 km/h (0 Bft) S-SW 195 0 min 0,000 mm 0,0 UV-I 0 W/m -4,3 C -1,1 C 1,6 km/h (1 Bft)
07.02.2019 05:26 -1,1 C -3,3 C 1,1 C 79 % 1016,3 hPa 0,0 l/m 0,6 km/h (0 Bft) S-SW 195 0 min 0,000 mm 0,0 UV-I 0 W/m -4,3 C -1,1 C 4,8 km/h (1 Bft)
07.02.2019 05:28 -1,1 C -3,3 C 1,1 C 79 % 1016,3 hPa 0,0 l/m 0,0 km/h (0 Bft) S-SW 195 0 min 0,000 mm 0,0 UV-I 0 W/m -4,3 C -1,1 C 0,0 km/h (0 Bft)
07.02.2019 05:30 -1,2 C -3,3 C 1,1 C 79 % 1016,2 hPa 0,0 l/m 0,8 km/h (0 Bft) S-SW 195 0 min 0,000 mm 0,0 UV-I 0 W/m -4,4 C -1,2 C 4,8 km/h (1 Bft)
07.02.2019 05:32 -1,2 C -3,3 C 1,1 C 79 % 1016,2 hPa 0,0 l/m 0,0 km/h (0 Bft) S-SW 195 0 min 0,000 mm 0,0 UV-I 0 W/m -4,4 C -1,2 C 0,0 km/h (0 Bft)
07.02.2019 05:34 -1,2 C -3,3 C 1,1 C 79 % 1016,2 hPa 0,0 l/m 0,0 km/h (0 Bft) S-SW 195 0 min 0,000 mm 0,0 UV-I 0 W/m -4,4 C -1,2 C 0,0 km/h (0 Bft)
07.02.2019 05:36 -1,3 C -3,3 C 1,1 C 79 % 1016,1 hPa 0,0 l/m 0,0 km/h (0 Bft) S-SW 195 0 min 0,000 mm 0,0 UV-I 0 W/m -4,5 C -1,3 C 1,6 km/h (1 Bft)
07.02.2019 05:38 -1,3 C -3,3 C 1,1 C 80 % 1016,0 hPa 0,0 l/m 1,7 km/h (1 Bft) S-SW 195 0 min 0,000 mm 0,0 UV-I 0 W/m -4,3 C -1,3 C 4,8 km/h (1 Bft)
07.02.2019 05:40 -1,3 C -2,8 C 1,1 C 80 % 1016,0 hPa 0,0 l/m 0,0 km/h (0 Bft) S-SW 195 0 min 0,000 mm 0,0 UV-I 0 W/m -4,3 C -1,3 C 0,0 km/h (0 Bft)
07.02.2019 05:42 -1,3 C -2,8 C 1,1 C 80 % 1016,0 hPa 0,0 l/m 0,1 km/h (0 Bft) S-SW 195 0 min 0,000 mm 0,0 UV-I 0 W/m -4,3 C -1,3 C 1,6 km/h (1 Bft)
07.02.2019 05:44 -1,3 C -2,8 C 1,1 C 80 % 1015,9 hPa 0,0 l/m 0,0 km/h (0 Bft) S-SW 195 0 min 0,000 mm 0,0 UV-I 0 W/m -4,3 C -1,3 C 0,0 km/h (0 Bft)
07.02.2019 05:46 -1,2 C -2,8 C 1,1 C 80 % 1015,9 hPa 0,0 l/m 0,6 km/h (0 Bft) S-SW 195 0 min 0,000 mm 0,0 UV-I 0 W/m -4,2 C -1,2 C 4,8 km/h (1 Bft)
07.02.2019 05:48 -1,2 C -2,8 C 1,1 C 80 % 1015,9 hPa 0,0 l/m 0,0 km/h (0 Bft) S-SW 195 0 min 0,000 mm 0,0 UV-I 0 W/m -4,2 C -1,2 C 0,0 km/h (0 Bft)
07.02.2019 05:50 -1,2 C -2,8 C 1,1 C 80 % 1015,9 hPa 0,0 l/m 2,3 km/h (1 Bft) S-SW 194 0 min 0,000 mm 0,0 UV-I 0 W/m -4,2 C -1,2 C 8,0 km/h (2 Bft)
07.02.2019 05:52 -1,2 C -2,8 C 1,1 C 80 % 1015,8 hPa 0,0 l/m 3,3 km/h (1 Bft) S-SW 194 0 min 0,000 mm 0,0 UV-I 0 W/m -4,2 C -1,2 C 8,0 km/h (2 Bft)
07.02.2019 05:54 -1,2 C -2,2 C 1,1 C 80 % 1015,9 hPa 0,0 l/m 1,2 km/h (1 Bft) S-SW 194 0 min 0,000 mm 0,0 UV-I 0 W/m -4,2 C -1,2 C 4,8 km/h (1 Bft)
07.02.2019 05:56 -1,1 C -2,2 C 1,1 C 80 % 1015,9 hPa 0,0 l/m 2,0 km/h (1 Bft) S-SW 194 0 min 0,000 mm 0,0 UV-I 0 W/m -4,1 C -1,1 C 8,0 km/h (2 Bft)
07.02.2019 05:58 -1,1 C -1,7 C 1,1 C 80 % 1015,8 hPa 0,0 l/m 3,0 km/h (1 Bft) S-SW 196 0 min 0,000 mm 0,0 UV-I 0 W/m -4,1 C -1,1 C 6,4 km/h (2 Bft)
07.02.2019 06:00 -1,0 C -1,7 C 1,1 C 79 % 1015,8 hPa 0,0 l/m 4,9 km/h (1 Bft) S-SW 206 0 min 0,000 mm 0,0 UV-I 0 W/m -4,2 C -2,7 C 11,3 km/h (2 Bft)
07.02.2019 06:02 -0,9 C -1,1 C 1,1 C 79 % 1015,8 hPa 0,0 l/m 3,1 km/h (1 Bft) S-SW 204 0 min 0,000 mm 0,0 UV-I 0 W/m -4,1 C -0,9 C 9,7 km/h (2 Bft)
07.02.2019 06:04 -0,9 C -1,1 C 1,1 C 79 % 1015,7 hPa 0,0 l/m 3,7 km/h (1 Bft) S-SW 206 0 min 0,000 mm 0,0 UV-I 0 W/m -4,1 C -0,9 C 6,4 km/h (2 Bft)
07.02.2019 06:06 -0,8 C -1,1 C 1,1 C 79 % 1015,7 hPa 0,0 l/m 4,6 km/h (1 Bft) S-SW 194 0 min 0,000 mm 0,0 UV-I 0 W/m -4,0 C -2,3 C 12,9 km/h (3 Bft)
07.02.2019 06:08 -0,8 C -1,1 C 1,1 C 78 % 1015,7 hPa 0,0 l/m 4,9 km/h (1 Bft) S 171 0 min 0,000 mm 0,0 UV-I 0 W/m -4,1 C -2,4 C 9,7 km/h (2 Bft)
07.02.2019 06:10 -0,7 C -1,1 C 1,1 C 78 % 1015,7 hPa 0,0 l/m 3,2 km/h (1 Bft) S-SW 202 0 min 0,000 mm 0,0 UV-I 0 W/m -4,0 C -0,7 C 9,7 km/h (2 Bft)
07.02.2019 06:12 -0,7 C -0,6 C 1,1 C 78 % 1015,6 hPa 0,0 l/m 2,8 km/h (1 Bft) S-SW 201 0 min 0,000 mm 0,0 UV-I 0 W/m -4,0 C -0,7 C 8,0 km/h (2 Bft)
07.02.2019 06:14 -0,6 C -0,6 C 1,1 C 78 % 1015,7 hPa 0,0 l/m 3,2 km/h (1 Bft) S-SW 200 0 min 0,000 mm 0,0 UV-I 0 W/m -3,9 C -0,6 C 6,4 km/h (2 Bft)
07.02.2019 06:16 -0,6 C -0,6 C 1,1 C 77 % 1015,6 hPa 0,0 l/m 3,2 km/h (1 Bft) S-SW 200 0 min 0,000 mm 0,0 UV-I 0 W/m -4,1 C -0,6 C 6,4 km/h (2 Bft)
07.02.2019 06:18 -0,5 C -0,6 C 1,1 C 83 % 1015,6 hPa 0,0 l/m 5,0 km/h (1 Bft) S-SW 210 0 min 0,000 mm 0,0 UV-I 0 W/m -3,0 C -2,2 C 9,7 km/h (2 Bft)
07.02.2019 06:20 -0,5 C -0,6 C 1,1 C 77 % 1015,6 hPa 0,0 l/m 1,4 km/h (1 Bft) S-SW 210 0 min 0,000 mm 0,0 UV-I 0 W/m -4,0 C -0,5 C 4,8 km/h (1 Bft)
07.02.2019 06:22 -0,4 C -0,6 C 1,1 C 76 % 1015,6 hPa 0,0 l/m 2,2 km/h (1 Bft) S-SW 210 0 min 0,000 mm 0,0 UV-I 0 W/m -4,1 C -0,4 C 6,4 km/h (2 Bft)
07.02.2019 06:24 -0,4 C -0,6 C 1,1 C 76 % 1015,6 hPa 0,0 l/m 0,5 km/h (0 Bft) S-SW 210 0 min 0,000 mm 0,0 UV-I 0 W/m -4,1 C -0,4 C 4,8 km/h (1 Bft)
07.02.2019 06:26 -0,4 C -0,6 C 1,1 C 76 % 1015,5 hPa 0,0 l/m 1,0 km/h (0 Bft) S-SW 210 0 min 0,000 mm 0,0 UV-I 0 W/m -4,1 C -0,4 C 6,4 km/h (2 Bft)
07.02.2019 06:28 -0,4 C -0,6 C 1,1 C 76 % 1015,4 hPa 0,0 l/m 4,2 km/h (1 Bft) S-SW 208 0 min 0,000 mm 0,0 UV-I 0 W/m -4,1 C -0,4 C 8,0 km/h (2 Bft)
07.02.2019 06:30 -0,4 C -0,6 C 1,1 C 76 % 1015,4 hPa 0,0 l/m 2,3 km/h (1 Bft) S-SW 208 0 min 0,000 mm 0,0 UV-I 0 W/m -4,1 C -0,4 C 4,8 km/h (1 Bft)
07.02.2019 06:32 -0,4 C -0,6 C 1,1 C 76 % 1015,4 hPa 0,0 l/m 2,6 km/h (1 Bft) S-SW 208 0 min 0,000 mm 0,0 UV-I 0 W/m -4,1 C -0,4 C 8,0 km/h (2 Bft)
07.02.2019 06:34 -0,3 C -0,6 C 1,1 C 75 % 1015,3 hPa 0,0 l/m 2,9 km/h (1 Bft) S-SW 208 0 min 0,000 mm 0,0 UV-I 0 W/m -4,2 C -0,3 C 8,0 km/h (2 Bft)
07.02.2019 06:36 -0,3 C -0,6 C 1,1 C 75 % 1015,4 hPa 0,0 l/m 2,1 km/h (1 Bft) S-SW 210 0 min 0,000 mm 0,0 UV-I 0 W/m -4,2 C -0,3 C 8,0 km/h (2 Bft)
07.02.2019 06:38 -0,3 C -0,6 C 1,1 C 75 % 1015,3 hPa 0,0 l/m 0,0 km/h (0 Bft) S-SW 210 0 min 0,000 mm 0,0 UV-I 0 W/m -4,2 C -0,3 C 0,0 km/h (0 Bft)
07.02.2019 06:40 -0,3 C -0,6 C 1,1 C 75 % 1015,3 hPa 0,0 l/m 1,6 km/h (1 Bft) S-SW 210 0 min 0,000 mm 0,0 UV-I 0 W/m -4,2 C -0,3 C 6,4 km/h (2 Bft)
07.02.2019 06:42 -0,2 C -0,6 C 1,1 C 75 % 1015,3 hPa 0,0 l/m 0,0 km/h (0 Bft) S-SW 210 0 min 0,000 mm 0,0 UV-I 0 W/m -4,1 C -0,2 C 0,0 km/h (0 Bft)
07.02.2019 06:44 -0,2 C -0,6 C 1,1 C 75 % 1015,3 hPa 0,0 l/m 1,1 km/h (1 Bft) S-SW 210 0 min 0,000 mm 0,0 UV-I 0 W/m -4,1 C -0,2 C 4,8 km/h (1 Bft)
07.02.2019 06:46 -0,2 C -0,6 C 1,1 C 75 % 1015,2 hPa 0,0 l/m 0,0 km/h (0 Bft) S-SW 210 0 min 0,000 mm 0,0 UV-I 0 W/m -4,1 C -0,2 C 0,0 km/h (0 Bft)
07.02.2019 06:48 -0,2 C -1,1 C 1,1 C 75 % 1015,2 hPa 0,0 l/m 0,0 km/h (0 Bft) S-SW 210 0 min 0,000 mm 0,0 UV-I 0 W/m -4,1 C -0,2 C 0,0 km/h (0 Bft)
07.02.2019 06:50 -0,2 C -1,1 C 1,1 C 75 % 1015,2 hPa 0,0 l/m 0,7 km/h (0 Bft) S-SW 210 0 min 0,000 mm 0,0 UV-I 0 W/m -4,1 C -0,2 C 3,2 km/h (1 Bft)
07.02.2019 06:52 -0,2 C -1,1 C 1,1 C 75 % 1015,2 hPa 0,0 l/m 0,0 km/h (0 Bft) S-SW 210 0 min 0,000 mm 0,0 UV-I 0 W/m -4,1 C -0,2 C 0,0 km/h (0 Bft)
07.02.2019 06:54 -0,2 C -1,1 C 1,1 C 75 % 1015,2 hPa 0,0 l/m 0,0 km/h (0 Bft) S-SW 210 0 min 0,000 mm 0,0 UV-I 0 W/m -4,1 C -0,2 C 0,0 km/h (0 Bft)
07.02.2019 06:56 -0,2 C -1,1 C 1,1 C 75 % 1015,2 hPa 0,0 l/m 0,0 km/h (0 Bft) S-SW 210 0 min 0,000 mm 0,0 UV-I 0 W/m -4,1 C -0,2 C 0,0 km/h (0 Bft)
07.02.2019 06:58 -0,2 C -1,1 C 1,1 C 75 % 1015,1 hPa 0,0 l/m 0,0 km/h (0 Bft) S-SW 210 0 min 0,000 mm 0,0 UV-I 0 W/m -4,1 C -0,2 C 0,0 km/h (0 Bft)
07.02.2019 07:00 -0,2 C -1,1 C 1,1 C 75 % 1015,1 hPa 0,0 l/m 0,0 km/h (0 Bft) S-SW 210 0 min 0,000 mm 0,0 UV-I 0 W/m -4,1 C -0,2 C 0,0 km/h (0 Bft)
07.02.2019 07:02 -0,2 C -1,1 C 1,1 C 75 % 1015,0 hPa 0,0 l/m 0,0 km/h (0 Bft) S-SW 210 0 min 0,000 mm 0,0 UV-I 0 W/m -4,1 C -0,2 C 0,0 km/h (0 Bft)
07.02.2019 07:04 -0,2 C -1,1 C 1,1 C 75 % 1015,0 hPa 0,0 l/m 0,0 km/h (0 Bft) S-SW 210 0 min 0,000 mm 0,0 UV-I 0 W/m -4,1 C -0,2 C 0,0 km/h (0 Bft)
07.02.2019 07:06 -0,2 C -1,7 C 1,1 C 75 % 1015,0 hPa 0,0 l/m 0,0 km/h (0 Bft) S-SW 210 0 min 0,000 mm 0,0 UV-I 0 W/m -4,1 C -0,2 C 0,0 km/h (0 Bft)
07.02.2019 07:08 -0,2 C -1,7 C 1,1 C 75 % 1015,0 hPa 0,0 l/m 0,0 km/h (0 Bft) S-SW 210 0 min 0,000 mm 0,0 UV-I 0 W/m -4,1 C -0,2 C 0,0 km/h (0 Bft)
07.02.2019 07:10 -0,1 C -1,7 C 1,1 C 75 % 1014,9 hPa 0,0 l/m 0,0 km/h (0 Bft) S-SW 210 0 min 0,000 mm 0,0 UV-I 0 W/m -4,0 C -0,1 C 0,0 km/h (0 Bft)
07.02.2019 07:12 -0,2 C -1,7 C 1,1 C 75 % 1015,0 hPa 0,0 l/m 0,0 km/h (0 Bft) S-SW 210 0 min 0,000 mm 0,0 UV-I 0 W/m -4,1 C -0,2 C 0,0 km/h (0 Bft)
07.02.2019 07:14 -0,2 C -1,7 C 1,1 C 75 % 1014,9 hPa 0,0 l/m 0,0 km/h (0 Bft) S-SW 210 0 min 0,000 mm 0,0 UV-I 0 W/m -4,1 C -0,2 C 0,0 km/h (0 Bft)
07.02.2019 07:16 -0,2 C -1,7 C 1,1 C 75 % 1014,9 hPa 0,0 l/m 0,0 km/h (0 Bft) S-SW 210 0 min 0,000 mm 0,0 UV-I 0 W/m -4,1 C -0,2 C 0,0 km/h (0 Bft)
07.02.2019 07:18 -0,2 C -1,7 C 1,1 C 75 % 1014,8 hPa 0,0 l/m 0,0 km/h (0 Bft) S-SW 210 0 min 0,000 mm 0,0 UV-I 0 W/m -4,1 C -0,2 C 0,0 km/h (0 Bft)
07.02.2019 07:20 -0,2 C -1,7 C 1,1 C 75 % 1014,8 hPa 0,0 l/m 0,0 km/h (0 Bft) S-SW 210 0 min 0,000 mm 0,0 UV-I 0 W/m -4,1 C -0,2 C 0,0 km/h (0 Bft)
07.02.2019 07:22 -0,2 C -1,7 C 1,1 C 75 % 1014,8 hPa 0,0 l/m 0,0 km/h (0 Bft) S-SW 210 0 min 0,000 mm 0,0 UV-I 0 W/m -4,1 C -0,2 C 0,0 km/h (0 Bft)
07.02.2019 07:24 -0,2 C -1,7 C 1,1 C 75 % 1014,8 hPa 0,0 l/m 0,0 km/h (0 Bft) S-SW 210 0 min 0,000 mm 0,0 UV-I 0 W/m -4,1 C -0,2 C 0,0 km/h (0 Bft)
07.02.2019 07:26 -0,2 C -1,7 C 1,1 C 76 % 1014,8 hPa 0,0 l/m 0,0 km/h (0 Bft) S-SW 210 0 min 0,000 mm 0,0 UV-I 0 W/m -3,9 C -0,2 C 0,0 km/h (0 Bft)
07.02.2019 07:28 -0,2 C -1,7 C 1,1 C 76 % 1014,9 hPa 0,0 l/m 0,0 km/h (0 Bft) S-SW 210 0 min 0,000 mm 0,0 UV-I 0 W/m -3,9 C -0,2 C 0,0 km/h (0 Bft)
07.02.2019 07:30 -0,2 C -1,7 C 1,1 C 76 % 1014,9 hPa 0,0 l/m 0,0 km/h (0 Bft) S-SW 210 0 min 0,000 mm 0,0 UV-I 0 W/m -3,9 C -0,2 C 0,0 km/h (0 Bft)
07.02.2019 07:32 -0,2 C -1,7 C 1,1 C 76 % 1014,8 hPa 0,0 l/m 0,0 km/h (0 Bft) S-SW 210 0 min 0,000 mm 0,0 UV-I 0 W/m -3,9 C -0,2 C 0,0 km/h (0 Bft)
07.02.2019 07:34 -0,2 C -1,7 C 1,1 C 76 % 1014,8 hPa 0,0 l/m 0,0 km/h (0 Bft) S-SW 210 0 min 0,000 mm 0,0 UV-I 0 W/m -3,9 C -0,2 C 0,0 km/h (0 Bft)
07.02.2019 07:36 -0,2 C -1,7 C 1,1 C 76 % 1014,7 hPa 0,0 l/m 0,3 km/h (0 Bft) S-SW 210 0 min 0,000 mm 0,0 UV-I 0 W/m -3,9 C -0,2 C 3,2 km/h (1 Bft)
07.02.2019 07:38 -0,2 C -1,7 C 1,1 C 76 % 1014,7 hPa 0,0 l/m 0,0 km/h (0 Bft) S-SW 210 0 min 0,000 mm 0,0 UV-I 0 W/m -3,9 C -0,2 C 0,0 km/h (0 Bft)
07.02.2019 07:40 -0,2 C -1,7 C 1,1 C 76 % 1014,7 hPa 0,0 l/m 0,0 km/h (0 Bft) S-SW 210 0 min 0,000 mm 0,0 UV-I 0 W/m -3,9 C -0,2 C 1,6 km/h (1 Bft)
07.02.2019 07:42 -0,3 C -1,7 C 1,1 C 76 % 1014,7 hPa 0,0 l/m 0,0 km/h (0 Bft) S-SW 210 0 min 0,000 mm 0,0 UV-I 0 W/m -4,0 C -0,3 C 0,0 km/h (0 Bft)
07.02.2019 07:44 -0,3 C -1,7 C 1,1 C 76 % 1014,6 hPa 0,0 l/m 0,0 km/h (0 Bft) S-SW 210 0 min 0,000 mm 0,0 UV-I 0 W/m -4,0 C -0,3 C 0,0 km/h (0 Bft)
07.02.2019 07:46 -0,3 C -1,7 C 1,1 C 76 % 1014,6 hPa 0,0 l/m 1,3 km/h (1 Bft) S-SW 210 0 min 0,000 mm 0,0 UV-I 0 W/m -4,0 C -0,3 C 4,8 km/h (1 Bft)
07.02.2019 07:48 -0,3 C -1,7 C 1,1 C 76 % 1014,6 hPa 0,0 l/m 1,4 km/h (1 Bft) S-SW 209 0 min 0,000 mm 0,0 UV-I 5 W/m -4,0 C -0,3 C 4,8 km/h (1 Bft)
07.02.2019 07:50 -0,3 C -1,1 C 1,1 C 76 % 1014,6 hPa 0,0 l/m 0,9 km/h (0 Bft) S-SW 208 0 min 0,000 mm 0,0 UV-I 5 W/m -4,0 C -0,3 C 4,8 km/h (1 Bft)
07.02.2019 07:52 -0,3 C -1,1 C 1,1 C 77 % 1014,6 hPa 0,0 l/m 0,0 km/h (0 Bft) S-SW 208 0 min 0,000 mm 0,0 UV-I 7 W/m -3,8 C -0,3 C 0,0 km/h (0 Bft)
07.02.2019 07:54 -0,3 C -1,1 C 1,1 C 76 % 1014,7 hPa 0,0 l/m 0,0 km/h (0 Bft) S-SW 208 0 min 0,000 mm 0,0 UV-I 7 W/m -4,0 C -0,3 C 0,0 km/h (0 Bft)
07.02.2019 07:56 -0,3 C -1,1 C 1,1 C 76 % 1014,7 hPa 0,0 l/m 0,0 km/h (0 Bft) S-SW 208 0 min 0,000 mm 0,0 UV-I 9 W/m -4,0 C -0,3 C 0,0 km/h (0 Bft)
07.02.2019 07:58 -0,3 C -1,1 C 1,1 C 77 % 1014,7 hPa 0,0 l/m 0,0 km/h (0 Bft) S-SW 208 0 min 0,000 mm 0,0 UV-I 11 W/m -3,8 C -0,3 C 0,0 km/h (0 Bft)
07.02.2019 08:00 -0,3 C -1,1 C 1,1 C 77 % 1014,7 hPa 0,0 l/m 0,0 km/h (0 Bft) S-SW 208 0 min 0,000 mm 0,0 UV-I 12 W/m -3,8 C -0,3 C 1,6 km/h (1 Bft)
07.02.2019 08:02 -0,3 C -1,1 C 1,1 C 77 % 1014,6 hPa 0,0 l/m 0,4 km/h (0 Bft) S-SW 208 0 min 0,000 mm 0,0 UV-I 14 W/m -3,8 C -0,3 C 3,2 km/h (1 Bft)
07.02.2019 08:04 -0,3 C -1,1 C 1,1 C 77 % 1014,6 hPa 0,0 l/m 0,4 km/h (0 Bft) S-SW 208 0 min 0,000 mm 0,0 UV-I 14 W/m -3,8 C -0,3 C 3,2 km/h (1 Bft)
07.02.2019 08:06 -0,3 C -0,6 C 1,1 C 77 % 1014,6 hPa 0,0 l/m 1,1 km/h (1 Bft) S-SW 208 0 min 0,000 mm 0,0 UV-I 16 W/m -3,8 C -0,3 C 4,8 km/h (1 Bft)
07.02.2019 08:08 -0,3 C -0,6 C 1,1 C 77 % 1014,6 hPa 0,0 l/m 0,2 km/h (0 Bft) S-SW 208 0 min 0,000 mm 0,0 UV-I 16 W/m -3,8 C -0,3 C 3,2 km/h (1 Bft)
07.02.2019 08:10 -0,3 C -0,6 C 1,1 C 77 % 1014,5 hPa 0,0 l/m 0,0 km/h (0 Bft) S-SW 208 0 min 0,000 mm 0,0 UV-I 16 W/m -3,8 C -0,3 C 0,0 km/h (0 Bft)
07.02.2019 08:12 -0,3 C -0,6 C 1,1 C 77 % 1014,6 hPa 0,0 l/m 0,6 km/h (0 Bft) S-SW 208 0 min 0,000 mm 0,0 UV-I 16 W/m -3,8 C -0,3 C 4,8 km/h (1 Bft)
07.02.2019 08:14 -0,2 C -0,6 C 1,1 C 77 % 1014,6 hPa 0,0 l/m 0,0 km/h (0 Bft) S-SW 208 0 min 0,000 mm 0,0 UV-I 18 W/m -3,7 C -0,2 C 0,0 km/h (0 Bft)
07.02.2019 08:16 -0,2 C -0,6 C 1,1 C 77 % 1014,8 hPa 0,0 l/m 0,0 km/h (0 Bft) S-SW 208 0 min 0,000 mm 0,0 UV-I 18 W/m -3,7 C -0,2 C 0,0 km/h (0 Bft)
07.02.2019 08:18 -0,2 C -0,6 C 1,1 C 77 % 1014,8 hPa 0,0 l/m 0,0 km/h (0 Bft) S-SW 208 0 min 0,000 mm 0,0 UV-I 18 W/m -3,7 C -0,2 C 0,0 km/h (0 Bft)
07.02.2019 08:20 -0,2 C -0,6 C 1,1 C 77 % 1014,8 hPa 0,0 l/m 0,0 km/h (0 Bft) S-SW 208 0 min 0,000 mm 0,0 UV-I 18 W/m -3,7 C -0,2 C 0,0 km/h (0 Bft)
07.02.2019 08:22 -0,2 C -0,6 C 1,1 C 77 % 1014,8 hPa 0,0 l/m 0,0 km/h (0 Bft) S-SW 208 0 min 0,000 mm 0,0 UV-I 19 W/m -3,7 C -0,2 C 0,0 km/h (0 Bft)
07.02.2019 08:24 -0,2 C -0,6 C 1,1 C 77 % 1014,8 hPa 0,0 l/m 0,0 km/h (0 Bft) S-SW 208 0 min 0,000 mm 0,0 UV-I 19 W/m -3,7 C -0,2 C 0,0 km/h (0 Bft)
07.02.2019 08:26 -0,2 C -0,6 C 1,1 C 77 % 1014,8 hPa 0,0 l/m 0,0 km/h (0 Bft) S-SW 208 0 min 0,000 mm 0,0 UV-I 19 W/m -3,7 C -0,2 C 0,0 km/h (0 Bft)
07.02.2019 08:28 -0,1 C -0,6 C 1,1 C 77 % 1014,8 hPa 0,0 l/m 0,0 km/h (0 Bft) S-SW 208 0 min 0,000 mm 0,0 UV-I 19 W/m -3,6 C -0,1 C 0,0 km/h (0 Bft)
07.02.2019 08:30 -0,1 C -0,6 C 1,1 C 78 % 1014,6 hPa 0,0 l/m 0,0 km/h (0 Bft) S-SW 208 0 min 0,000 mm 0,0 UV-I 19 W/m -3,5 C -0,1 C 0,0 km/h (0 Bft)
07.02.2019 08:32 -0,1 C -1,1 C 1,1 C 77 % 1014,6 hPa 0,0 l/m 0,0 km/h (0 Bft) S-SW 208 0 min 0,000 mm 0,0 UV-I 21 W/m -3,6 C -0,1 C 0,0 km/h (0 Bft)
07.02.2019 08:34 -0,1 C -1,1 C 1,1 C 78 % 1014,5 hPa 0,0 l/m 0,0 km/h (0 Bft) S-SW 208 0 min 0,000 mm 0,0 UV-I 21 W/m -3,5 C -0,1 C 0,0 km/h (0 Bft)
07.02.2019 08:36 -0,1 C -1,1 C 1,1 C 78 % 1014,5 hPa 0,0 l/m 0,0 km/h (0 Bft) S-SW 208 0 min 0,000 mm 0,0 UV-I 23 W/m -3,5 C -0,1 C 0,0 km/h (0 Bft)
07.02.2019 08:38 -0,1 C -1,1 C 1,1 C 78 % 1014,5 hPa 0,0 l/m 0,0 km/h (0 Bft) S-SW 208 0 min 0,000 mm 0,0 UV-I 25 W/m -3,5 C -0,1 C 0,0 km/h (0 Bft)
07.02.2019 08:40 -0,1 C -0,6 C 1,1 C 78 % 1014,4 hPa 0,0 l/m 0,0 km/h (0 Bft) S-SW 208 0 min 0,000 mm 0,0 UV-I 26 W/m -3,5 C -0,1 C 0,0 km/h (0 Bft)
07.02.2019 08:42 -0,1 C -0,6 C 1,1 C 78 % 1014,4 hPa 0,0 l/m 1,1 km/h (1 Bft) S-SW 208 0 min 0,000 mm 0,0 UV-I 30 W/m -3,5 C -0,1 C 4,8 km/h (1 Bft)
07.02.2019 08:44 -0,1 C -0,6 C 1,1 C 78 % 1014,4 hPa 0,0 l/m 0,0 km/h (0 Bft) S-SW 208 0 min 0,000 mm 0,0 UV-I 35 W/m -3,5 C -0,1 C 0,0 km/h (0 Bft)
07.02.2019 08:46 -0,1 C -0,6 C 1,1 C 78 % 1014,3 hPa 0,0 l/m 0,0 km/h (0 Bft) S-SW 208 0 min 0,000 mm 0,0 UV-I 40 W/m -3,5 C -0,1 C 0,0 km/h (0 Bft)
07.02.2019 08:48 -0,1 C -0,6 C 1,1 C 78 % 1014,3 hPa 0,0 l/m 0,0 km/h (0 Bft) S-SW 208 0 min 0,000 mm 0,0 UV-I 47 W/m -3,5 C -0,1 C 0,0 km/h (0 Bft)
07.02.2019 08:50 0,0 C 0,0 C 1,1 C 78 % 1014,3 hPa 0,0 l/m 0,0 km/h (0 Bft) S-SW 208 0 min 0,000 mm 0,0 UV-I 53 W/m -3,4 C 0,0 C 0,0 km/h (0 Bft)
07.02.2019 08:52 0,1 C 0,0 C 1,1 C 78 % 1014,2 hPa 0,0 l/m 1,9 km/h (1 Bft) S-SW 201 0 min 0,000 mm 0,5 UV-I 58 W/m -3,3 C 0,1 C 6,4 km/h (2 Bft)
07.02.2019 08:54 0,1 C 0,0 C 1,1 C 78 % 1014,1 hPa 0,0 l/m 4,9 km/h (1 Bft) S 190 0 min 0,000 mm 0,5 UV-I 62 W/m -3,3 C -1,4 C 6,4 km/h (2 Bft)
07.02.2019 08:56 0,2 C 0,6 C 1,1 C 78 % 1014,0 hPa 0,0 l/m 4,1 km/h (1 Bft) S 180 0 min 0,000 mm 0,5 UV-I 63 W/m -3,2 C 0,2 C 11,3 km/h (2 Bft)
07.02.2019 08:58 0,3 C 0,6 C 1,1 C 78 % 1014,0 hPa 0,0 l/m 2,4 km/h (1 Bft) S 179 0 min 0,000 mm 0,5 UV-I 67 W/m -3,1 C 0,3 C 8,0 km/h (2 Bft)
07.02.2019 09:00 0,4 C 0,6 C 1,1 C 78 % 1014,0 hPa 0,0 l/m 1,6 km/h (1 Bft) S 179 0 min 0,025 mm 0,5 UV-I 70 W/m -3,0 C 0,4 C 4,8 km/h (1 Bft)
07.02.2019 09:02 0,4 C 1,1 C 1,1 C 77 % 1014,0 hPa 0,0 l/m 3,0 km/h (1 Bft) S 178 0 min 0,000 mm 0,5 UV-I 72 W/m -3,1 C 0,4 C 8,0 km/h (2 Bft)
07.02.2019 09:04 0,6 C 1,1 C 1,1 C 77 % 1014,0 hPa 0,0 l/m 1,1 km/h (1 Bft) S 178 0 min 0,000 mm 0,5 UV-I 74 W/m -3,0 C 0,6 C 6,4 km/h (2 Bft)
07.02.2019 09:06 0,6 C 1,1 C 1,1 C 77 % 1014,0 hPa 0,0 l/m 2,0 km/h (1 Bft) S 175 0 min 0,000 mm 0,5 UV-I 76 W/m -3,0 C 0,6 C 8,0 km/h (2 Bft)
07.02.2019 09:08 0,7 C 1,1 C 1,1 C 76 % 1013,9 hPa 0,0 l/m 4,3 km/h (1 Bft) S 185 0 min 0,000 mm 0,5 UV-I 76 W/m -3,0 C 0,7 C 8,0 km/h (2 Bft)
07.02.2019 09:10 0,8 C 1,1 C 1,1 C 76 % 1013,9 hPa 0,0 l/m 3,2 km/h (1 Bft) S 183 0 min 0,000 mm 0,5 UV-I 74 W/m -2,9 C 0,8 C 6,4 km/h (2 Bft)
07.02.2019 09:12 0,8 C 1,1 C 1,1 C 76 % 1013,8 hPa 0,0 l/m 2,6 km/h (1 Bft) S 183 0 min 0,000 mm 0,5 UV-I 70 W/m -2,9 C 0,8 C 8,0 km/h (2 Bft)
07.02.2019 09:14 0,9 C 1,1 C 1,1 C 76 % 1013,8 hPa 0,0 l/m 1,9 km/h (1 Bft) S 183 0 min 0,000 mm 0,5 UV-I 65 W/m -2,8 C 0,9 C 4,8 km/h (1 Bft)
07.02.2019 09:16 0,9 C 1,1 C 1,1 C 76 % 1013,7 hPa 0,0 l/m 3,7 km/h (1 Bft) S 182 0 min 0,000 mm 0,5 UV-I 62 W/m -2,8 C 0,9 C 11,3 km/h (2 Bft)
07.02.2019 09:18 1,0 C 1,1 C 1,1 C 76 % 1013,7 hPa 0,0 l/m 5,9 km/h (2 Bft) S 186 0 min 0,000 mm 0,5 UV-I 60 W/m -2,7 C -0,8 C 11,3 km/h (2 Bft)
07.02.2019 09:20 1,1 C 1,1 C 1,1 C 75 % 1013,7 hPa 0,0 l/m 3,9 km/h (1 Bft) S 182 0 min 0,000 mm 0,5 UV-I 58 W/m -2,8 C 1,1 C 6,4 km/h (2 Bft)
07.02.2019 09:22 1,1 C 1,7 C 1,1 C 75 % 1013,7 hPa 0,0 l/m 4,3 km/h (1 Bft) S 187 0 min 0,000 mm 0,5 UV-I 60 W/m -2,8 C 1,1 C 9,7 km/h (2 Bft)
07.02.2019 09:24 1,2 C 1,7 C 1,1 C 75 % 1013,7 hPa 0,0 l/m 0,8 km/h (0 Bft) S 187 0 min 0,000 mm 0,6 UV-I 60 W/m -2,7 C 1,2 C 8,0 km/h (2 Bft)
07.02.2019 09:26 1,2 C 1,7 C 1,1 C 75 % 1013,7 hPa 0,0 l/m 1,6 km/h (1 Bft) S 186 0 min 0,000 mm 0,6 UV-I 62 W/m -2,7 C 1,2 C 6,4 km/h (2 Bft)
07.02.2019 09:28 1,3 C 1,7 C 1,1 C 75 % 1013,6 hPa 0,0 l/m 5,9 km/h (2 Bft) S 178 0 min 0,000 mm 0,6 UV-I 62 W/m -2,6 C -0,5 C 12,9 km/h (3 Bft)
07.02.2019 09:30 1,3 C 1,7 C 1,1 C 75 % 1013,6 hPa 0,0 l/m 4,1 km/h (1 Bft) S 177 0 min 0,000 mm 0,6 UV-I 65 W/m -2,6 C 1,3 C 8,0 km/h (2 Bft)
07.02.2019 09:32 1,4 C 1,7 C 1,1 C 75 % 1013,5 hPa 0,0 l/m 3,6 km/h (1 Bft) S 182 0 min 0,000 mm 0,6 UV-I 74 W/m -2,5 C 1,4 C 11,3 km/h (2 Bft)
07.02.2019 09:34 1,4 C 1,7 C 1,1 C 75 % 1013,4 hPa 0,0 l/m 7,7 km/h (2 Bft) S 173 0 min 0,000 mm 0,6 UV-I 69 W/m -2,5 C -1,0 C 14,5 km/h (3 Bft)
07.02.2019 09:36 1,5 C 1,7 C 1,1 C 75 % 1013,4 hPa 0,0 l/m 3,6 km/h (1 Bft) S-SW 201 0 min 0,000 mm 0,6 UV-I 76 W/m -2,4 C 1,5 C 9,7 km/h (2 Bft)
07.02.2019 09:38 1,6 C 1,7 C 1,1 C 74 % 1013,4 hPa 0,0 l/m 7,0 km/h (2 Bft) S-SW 193 0 min 0,000 mm 0,6 UV-I 79 W/m -2,5 C -0,5 C 16,1 km/h (3 Bft)
07.02.2019 09:40 1,7 C 2,2 C 1,1 C 74 % 1013,4 hPa 0,0 l/m 5,2 km/h (1 Bft) S-SW 206 0 min 0,000 mm 0,6 UV-I 86 W/m -2,4 C 0,3 C 14,5 km/h (3 Bft)
07.02.2019 09:42 1,7 C 2,2 C 1,1 C 73 % 1013,3 hPa 0,0 l/m 3,6 km/h (1 Bft) S-SW 203 0 min 0,000 mm 0,6 UV-I 91 W/m -2,6 C 1,7 C 8,0 km/h (2 Bft)
07.02.2019 09:44 1,8 C 2,2 C 1,1 C 73 % 1013,2 hPa 0,0 l/m 7,5 km/h (2 Bft) S 183 0 min 0,000 mm 0,6 UV-I 93 W/m -2,5 C -0,5 C 14,5 km/h (3 Bft)
07.02.2019 09:46 1,8 C 2,2 C 1,1 C 73 % 1013,1 hPa 0,0 l/m 2,6 km/h (1 Bft) S-SW 196 0 min 0,000 mm 0,7 UV-I 91 W/m -2,5 C 1,8 C 8,0 km/h (2 Bft)
07.02.2019 09:48 1,9 C 2,2 C 1,1 C 73 % 1013,2 hPa 0,0 l/m 4,7 km/h (1 Bft) SW 230 0 min 0,000 mm 0,7 UV-I 88 W/m -2,4 C 0,7 C 14,5 km/h (3 Bft)
07.02.2019 09:50 1,9 C 2,2 C 1,1 C 73 % 1013,2 hPa 0,0 l/m 7,5 km/h (2 Bft) S 185 0 min 0,000 mm 0,7 UV-I 79 W/m -2,4 C -0,4 C 14,5 km/h (3 Bft)
07.02.2019 09:52 1,9 C 2,2 C 1,1 C 72 % 1013,2 hPa 0,0 l/m 7,7 km/h (2 Bft) S-SW 206 0 min 0,000 mm 0,7 UV-I 76 W/m -2,6 C -0,4 C 12,9 km/h (3 Bft)
07.02.2019 09:54 2,0 C 2,2 C 1,1 C 72 % 1013,2 hPa 0,0 l/m 5,1 km/h (1 Bft) S 189 0 min 0,000 mm 0,7 UV-I 74 W/m -2,5 C 0,6 C 11,3 km/h (2 Bft)
07.02.2019 09:56 2,0 C 2,2 C 1,1 C 72 % 1013,2 hPa 0,0 l/m 2,5 km/h (1 Bft) SW 223 0 min 0,000 mm 0,7 UV-I 77 W/m -2,5 C 2,0 C 8,0 km/h (2 Bft)
07.02.2019 09:58 2,1 C 2,2 C 1,1 C 72 % 1013,3 hPa 0,0 l/m 5,1 km/h (1 Bft) S-SW 200 0 min 0,000 mm 0,7 UV-I 86 W/m -2,4 C 0,7 C 14,5 km/h (3 Bft)
07.02.2019 10:00 2,1 C 2,2 C 1,1 C 71 % 1013,2 hPa 0,0 l/m 5,2 km/h (1 Bft) S-SW 208 0 min 0,026 mm 0,7 UV-I 98 W/m -2,6 C 0,7 C 14,5 km/h (3 Bft)
07.02.2019 10:02 2,2 C 2,8 C 1,1 C 71 % 1013,2 hPa 0,0 l/m 5,1 km/h (1 Bft) S-SW 210 0 min 0,000 mm 0,7 UV-I 116 W/m -2,5 C 0,9 C 9,7 km/h (2 Bft)
07.02.2019 10:04 2,2 C 2,8 C 1,1 C 71 % 1013,2 hPa 0,0 l/m 8,0 km/h (2 Bft) S-SW 211 0 min 0,000 mm 0,8 UV-I 120 W/m -2,5 C -0,2 C 17,7 km/h (3 Bft)
07.02.2019 10:06 2,3 C 2,8 C 1,1 C 70 % 1013,1 hPa 0,0 l/m 7,1 km/h (2 Bft) S 190 0 min 0,000 mm 0,8 UV-I 142 W/m -2,6 C 0,2 C 12,9 km/h (3 Bft)
07.02.2019 10:08 2,4 C 3,3 C 1,1 C 70 % 1013,1 hPa 0,0 l/m 8,4 km/h (2 Bft) S 182 0 min 0,000 mm 0,8 UV-I 155 W/m -2,5 C -0,0 C 22,5 km/h (4 Bft)
07.02.2019 10:10 2,6 C 3,9 C 1,1 C 69 % 1013,2 hPa 0,0 l/m 6,5 km/h (2 Bft) SW 223 2 min 0,000 mm 0,8 UV-I 163 W/m -2,5 C 0,8 C 16,1 km/h (3 Bft)
07.02.2019 10:12 2,7 C 3,9 C 1,1 C 69 % 1013,2 hPa 0,0 l/m 3,6 km/h (1 Bft) SW 228 2 min 0,000 mm 0,8 UV-I 171 W/m -2,4 C 2,7 C 12,9 km/h (3 Bft)
07.02.2019 10:14 2,8 C 4,4 C 1,1 C 68 % 1013,2 hPa 0,0 l/m 8,5 km/h (2 Bft) SW 217 0 min 0,000 mm 0,8 UV-I 162 W/m -2,5 C 0,4 C 16,1 km/h (3 Bft)
07.02.2019 10:16 2,8 C 3,9 C 1,1 C 68 % 1013,3 hPa 0,0 l/m 8,0 km/h (2 Bft) S-SW 192 0 min 0,000 mm 0,8 UV-I 137 W/m -2,5 C 0,6 C 14,5 km/h (3 Bft)
07.02.2019 10:18 2,9 C 3,9 C 1,1 C 67 % 1013,2 hPa 0,0 l/m 7,1 km/h (2 Bft) W-SW 244 0 min 0,000 mm 0,8 UV-I 135 W/m -2,6 C 0,9 C 14,5 km/h (3 Bft)
07.02.2019 10:20 2,9 C 3,9 C 1,1 C 67 % 1013,2 hPa 0,0 l/m 6,2 km/h (2 Bft) S-SW 201 0 min 0,000 mm 0,8 UV-I 148 W/m -2,6 C 1,2 C 16,1 km/h (3 Bft)
07.02.2019 10:24 3,1 C 4,4 C 1,1 C 67 % 1013,0 hPa 0,0 l/m 4,3 km/h (1 Bft) SW 217 4 min 0,000 mm 0,8 UV-I 192 W/m -2,4 C 3,1 C 14,5 km/h (3 Bft)
07.02.2019 10:26 3,2 C 4,4 C 1,1 C 66 % 1013,0 hPa 0,0 l/m 5,8 km/h (2 Bft) S-SW 198 2 min 0,000 mm 0,8 UV-I 185 W/m -2,5 C 1,7 C 11,3 km/h (2 Bft)
07.02.2019 10:28 3,2 C 4,4 C 1,1 C 66 % 1013,0 hPa 0,0 l/m 5,1 km/h (1 Bft) S-SW 202 0 min 0,000 mm 0,7 UV-I 137 W/m -2,5 C 2,0 C 16,1 km/h (3 Bft)
07.02.2019 10:30 3,3 C 4,4 C 1,1 C 66 % 1012,9 hPa 0,0 l/m 3,7 km/h (1 Bft) S-SW 210 0 min 0,000 mm 0,7 UV-I 120 W/m -2,4 C 3,3 C 12,9 km/h (3 Bft)
07.02.2019 10:34 3,3 C 4,4 C 1,1 C 65 % 1012,9 hPa 0,0 l/m 4,6 km/h (1 Bft) S 183 0 min 0,000 mm 0,7 UV-I 127 W/m -2,6 C 2,3 C 12,9 km/h (3 Bft)
07.02.2019 10:36 3,3 C 4,4 C 1,1 C 65 % 1012,8 hPa 0,0 l/m 7,1 km/h (2 Bft) SW 236 0 min 0,000 mm 0,7 UV-I 137 W/m -2,6 C 1,4 C 19,3 km/h (3 Bft)
07.02.2019 10:38 3,3 C 4,4 C 1,1 C 65 % 1012,8 hPa 0,0 l/m 6,8 km/h (2 Bft) SW 214 0 min 0,000 mm 0,7 UV-I 144 W/m -2,6 C 1,5 C 12,9 km/h (3 Bft)
07.02.2019 10:40 3,3 C 4,4 C 1,1 C 65 % 1012,7 hPa 0,0 l/m 4,4 km/h (1 Bft) S 191 0 min 0,000 mm 0,8 UV-I 146 W/m -2,6 C 3,3 C 11,3 km/h (2 Bft)
07.02.2019 10:42 3,4 C 4,4 C 1,1 C 64 % 1012,7 hPa 0,0 l/m 9,1 km/h (2 Bft) S-SW 199 0 min 0,000 mm 0,8 UV-I 146 W/m -2,7 C 1,0 C 19,3 km/h (3 Bft)
07.02.2019 10:44 3,4 C 4,4 C 1,1 C 64 % 1012,7 hPa 0,0 l/m 11,1 km/h (2 Bft) SW 214 0 min 0,000 mm 0,7 UV-I 114 W/m -2,7 C 0,5 C 19,3 km/h (3 Bft)
07.02.2019 10:46 3,4 C 4,4 C 1,1 C 64 % 1012,7 hPa 0,0 l/m 6,8 km/h (2 Bft) SW 214 0 min 0,000 mm 0,7 UV-I 104 W/m -2,7 C 1,6 C 17,7 km/h (3 Bft)
07.02.2019 10:48 3,4 C 4,4 C 1,1 C 64 % 1012,6 hPa 0,0 l/m 8,0 km/h (2 Bft) S 184 0 min 0,000 mm 0,7 UV-I 100 W/m -2,7 C 1,3 C 16,1 km/h (3 Bft)
07.02.2019 10:50 3,4 C 3,9 C 1,1 C 64 % 1012,6 hPa 0,0 l/m 8,1 km/h (2 Bft) S-SW 194 0 min 0,000 mm 0,7 UV-I 100 W/m -2,7 C 1,2 C 14,5 km/h (3 Bft)
07.02.2019 10:52 3,4 C 4,4 C 1,1 C 64 % 1012,6 hPa 0,0 l/m 5,5 km/h (2 Bft) S-SW 203 0 min 0,000 mm 0,7 UV-I 97 W/m -2,7 C 2,1 C 12,9 km/h (3 Bft)
07.02.2019 10:54 3,4 C 4,4 C 1,1 C 64 % 1012,6 hPa 0,0 l/m 6,2 km/h (2 Bft) S-SW 203 0 min 0,000 mm 0,7 UV-I 97 W/m -2,7 C 1,8 C 14,5 km/h (3 Bft)
07.02.2019 10:56 3,4 C 3,9 C 1,1 C 64 % 1012,5 hPa 0,0 l/m 7,1 km/h (2 Bft) S-SW 208 0 min 0,000 mm 0,7 UV-I 100 W/m -2,7 C 1,5 C 16,1 km/h (3 Bft)
07.02.2019 10:58 3,4 C 4,4 C 1,1 C 64 % 1012,5 hPa 0,0 l/m 6,1 km/h (2 Bft) SW 216 0 min 0,000 mm 0,7 UV-I 104 W/m -2,7 C 1,8 C 12,9 km/h (3 Bft)
07.02.2019 11:00 3,4 C 4,4 C 1,1 C 64 % 1012,6 hPa 0,0 l/m 8,5 km/h (2 Bft) S 188 0 min 0,076 mm 0,7 UV-I 104 W/m -2,7 C 1,1 C 17,7 km/h (3 Bft)
07.02.2019 11:02 3,5 C 4,4 C 1,1 C 64 % 1012,6 hPa 0,0 l/m 9,3 km/h (2 Bft) S-SW 206 0 min 0,000 mm 0,7 UV-I 100 W/m -2,7 C 1,0 C 16,1 km/h (3 Bft)
07.02.2019 11:04 3,5 C 4,4 C 1,1 C 64 % 1012,6 hPa 0,0 l/m 5,2 km/h (1 Bft) S 177 0 min 0,000 mm 0,7 UV-I 98 W/m -2,7 C 2,3 C 11,3 km/h (2 Bft)
07.02.2019 11:06 3,5 C 4,4 C 1,1 C 64 % 1012,6 hPa 0,0 l/m 5,4 km/h (2 Bft) S-SW 200 0 min 0,000 mm 0,7 UV-I 102 W/m -2,7 C 2,2 C 17,7 km/h (3 Bft)
07.02.2019 11:08 3,5 C 4,4 C 1,1 C 64 % 1012,6 hPa 0,0 l/m 2,0 km/h (1 Bft) S-SW 193 0 min 0,000 mm 0,8 UV-I 105 W/m -2,7 C 3,5 C 8,0 km/h (2 Bft)
07.02.2019 11:10 3,6 C 4,4 C 1,1 C 64 % 1012,6 hPa 0,0 l/m 7,6 km/h (2 Bft) SW 222 0 min 0,000 mm 0,8 UV-I 109 W/m -2,6 C 1,6 C 17,7 km/h (3 Bft)
07.02.2019 11:12 3,6 C 4,4 C 1,1 C 63 % 1012,5 hPa 0,0 l/m 3,7 km/h (1 Bft) S 177 0 min 0,000 mm 0,8 UV-I 111 W/m -2,8 C 3,6 C 11,3 km/h (2 Bft)
07.02.2019 11:14 3,6 C 4,4 C 1,1 C 63 % 1012,6 hPa 0,0 l/m 8,1 km/h (2 Bft) S 173 0 min 0,000 mm 0,8 UV-I 118 W/m -2,8 C 1,5 C 12,9 km/h (3 Bft)
07.02.2019 11:16 3,6 C 4,4 C 1,1 C 63 % 1012,6 hPa 0,0 l/m 6,0 km/h (2 Bft) SW 215 0 min 0,000 mm 0,8 UV-I 118 W/m -2,8 C 2,1 C 14,5 km/h (3 Bft)
07.02.2019 11:18 3,7 C 5,0 C 1,1 C 63 % 1012,6 hPa 0,0 l/m 5,6 km/h (2 Bft) S 174 0 min 0,000 mm 0,8 UV-I 114 W/m -2,7 C 2,4 C 14,5 km/h (3 Bft)
07.02.2019 11:20 3,7 C 5,0 C 1,1 C 63 % 1012,5 hPa 0,0 l/m 4,7 km/h (1 Bft) S-SO 166 0 min 0,000 mm 0,8 UV-I 116 W/m -2,7 C 2,7 C 9,7 km/h (2 Bft)
07.02.2019 11:22 3,7 C 5,0 C 1,1 C 63 % 1012,6 hPa 0,0 l/m 4,6 km/h (1 Bft) S 187 0 min 0,000 mm 0,8 UV-I 123 W/m -2,7 C 2,8 C 12,9 km/h (3 Bft)
07.02.2019 11:24 3,8 C 5,0 C 1,1 C 63 % 1012,6 hPa 0,0 l/m 8,2 km/h (2 Bft) S-SW 201 0 min 0,000 mm 0,8 UV-I 128 W/m -2,6 C 1,7 C 14,5 km/h (3 Bft)
07.02.2019 11:26 3,8 C 5,0 C 1,1 C 62 % 1012,6 hPa 0,0 l/m 10,6 km/h (2 Bft) S-SW 195 0 min 0,000 mm 0,8 UV-I 134 W/m -2,8 C 1,1 C 17,7 km/h (3 Bft)
07.02.2019 11:28 3,8 C 5,0 C 1,1 C 62 % 1012,6 hPa 0,0 l/m 9,2 km/h (2 Bft) S-SW 200 0 min 0,000 mm 0,8 UV-I 135 W/m -2,8 C 1,4 C 17,7 km/h (3 Bft)
07.02.2019 11:30 3,8 C 5,0 C 1,1 C 62 % 1012,6 hPa 0,0 l/m 9,1 km/h (2 Bft) W 261 0 min 0,000 mm 0,8 UV-I 135 W/m -2,8 C 1,4 C 16,1 km/h (3 Bft)
07.02.2019 11:32 3,9 C 5,0 C 1,1 C 62 % 1012,7 hPa 0,0 l/m 7,1 km/h (2 Bft) S-SW 208 0 min 0,000 mm 0,8 UV-I 146 W/m -2,7 C 2,1 C 16,1 km/h (3 Bft)
07.02.2019 11:34 3,9 C 5,0 C 1,1 C 61 % 1012,7 hPa 0,0 l/m 6,9 km/h (2 Bft) SW 216 0 min 0,000 mm 0,8 UV-I 151 W/m -2,9 C 2,2 C 17,7 km/h (3 Bft)
07.02.2019 11:36 3,9 C 5,0 C 1,1 C 62 % 1012,6 hPa 0,0 l/m 5,5 km/h (2 Bft) S 172 0 min 0,000 mm 0,8 UV-I 146 W/m -2,7 C 2,6 C 11,3 km/h (2 Bft)
07.02.2019 11:38 3,9 C 5,6 C 1,1 C 62 % 1012,5 hPa 0,0 l/m 10,5 km/h (2 Bft) S-SW 211 0 min 0,000 mm 0,8 UV-I 151 W/m -2,7 C 1,2 C 20,9 km/h (4 Bft)
07.02.2019 11:40 3,9 C 5,6 C 1,1 C 62 % 1012,5 hPa 0,0 l/m 7,4 km/h (2 Bft) S-SW 213 0 min 0,000 mm 0,8 UV-I 158 W/m -2,7 C 2,0 C 19,3 km/h (3 Bft)
07.02.2019 11:42 4,0 C 5,6 C 1,7 C 62 % 1012,5 hPa 0,0 l/m 7,5 km/h (2 Bft) S-SW 205 0 min 0,000 mm 0,8 UV-I 146 W/m -2,6 C 2,1 C 17,7 km/h (3 Bft)
07.02.2019 11:44 4,0 C 5,6 C 1,1 C 62 % 1012,5 hPa 0,0 l/m 7,6 km/h (2 Bft) S-SW 194 0 min 0,000 mm 0,8 UV-I 141 W/m -2,6 C 2,1 C 14,5 km/h (3 Bft)
07.02.2019 11:46 4,0 C 5,6 C 1,1 C 62 % 1012,6 hPa 0,0 l/m 7,8 km/h (2 Bft) S-SW 203 0 min 0,000 mm 0,8 UV-I 142 W/m -2,6 C 2,0 C 19,3 km/h (3 Bft)
07.02.2019 11:48 3,9 C 5,0 C 1,1 C 62 % 1012,5 hPa 0,0 l/m 9,0 km/h (2 Bft) S-SW 213 0 min 0,000 mm 0,8 UV-I 139 W/m -2,7 C 1,6 C 17,7 km/h (3 Bft)
07.02.2019 11:50 3,9 C 5,0 C 1,1 C 62 % 1012,4 hPa 0,0 l/m 7,1 km/h (2 Bft) S 185 0 min 0,000 mm 0,8 UV-I 134 W/m -2,7 C 2,1 C 16,1 km/h (3 Bft)
07.02.2019 11:52 3,9 C 5,0 C 1,1 C 62 % 1012,4 hPa 0,0 l/m 9,5 km/h (2 Bft) W-SW 240 0 min 0,000 mm 0,8 UV-I 134 W/m -2,7 C 1,5 C 17,7 km/h (3 Bft)
07.02.2019 11:54 3,9 C 5,0 C 1,1 C 62 % 1012,4 hPa 0,0 l/m 9,3 km/h (2 Bft) S-SW 194 0 min 0,000 mm 0,8 UV-I 127 W/m -2,7 C 1,5 C 17,7 km/h (3 Bft)
07.02.2019 11:56 3,9 C 5,0 C 1,1 C 62 % 1012,3 hPa 0,0 l/m 6,2 km/h (2 Bft) S 186 0 min 0,000 mm 0,7 UV-I 113 W/m -2,7 C 2,4 C 17,7 km/h (3 Bft)
07.02.2019 11:58 3,9 C 5,0 C 1,1 C 62 % 1012,3 hPa 0,0 l/m 10,8 km/h (2 Bft) SW 217 0 min 0,000 mm 0,7 UV-I 97 W/m -2,7 C 1,2 C 17,7 km/h (3 Bft)
07.02.2019 12:00 3,9 C 4,4 C 1,7 C 62 % 1012,1 hPa 0,0 l/m 6,4 km/h (2 Bft) SW 218 0 min 0,076 mm 0,7 UV-I 95 W/m -2,7 C 2,3 C 12,9 km/h (3 Bft)
07.02.2019 12:02 3,9 C 5,0 C 1,1 C 62 % 1012,3 hPa 0,0 l/m 7,0 km/h (2 Bft) S-SW 199 0 min 0,000 mm 0,7 UV-I 98 W/m -2,7 C 2,1 C 12,9 km/h (3 Bft)
07.02.2019 12:04 4,0 C 5,0 C 1,1 C 62 % 1012,4 hPa 0,0 l/m 8,9 km/h (2 Bft) SW 218 0 min 0,000 mm 0,7 UV-I 102 W/m -2,6 C 1,7 C 20,9 km/h (4 Bft)
07.02.2019 12:06 4,0 C 5,0 C 1,1 C 62 % 1012,3 hPa 0,0 l/m 6,9 km/h (2 Bft) SW 222 0 min 0,000 mm 0,7 UV-I 97 W/m -2,6 C 2,3 C 14,5 km/h (3 Bft)
07.02.2019 12:08 4,0 C 4,4 C 1,1 C 62 % 1012,2 hPa 0,0 l/m 10,1 km/h (2 Bft) S-SW 200 0 min 0,000 mm 0,7 UV-I 90 W/m -2,6 C 1,4 C 14,5 km/h (3 Bft)
07.02.2019 12:10 4,0 C 4,4 C 1,1 C 62 % 1012,2 hPa 0,0 l/m 5,9 km/h (2 Bft) S-SW 206 0 min 0,000 mm 0,7 UV-I 81 W/m -2,6 C 2,6 C 12,9 km/h (3 Bft)
07.02.2019 12:12 4,0 C 4,4 C 1,1 C 63 % 1012,2 hPa 0,0 l/m 8,9 km/h (2 Bft) S-SW 210 0 min 0,000 mm 0,6 UV-I 81 W/m -2,4 C 1,7 C 14,5 km/h (3 Bft)
07.02.2019 12:14 4,0 C 4,4 C 1,7 C 62 % 1012,1 hPa 0,0 l/m 6,3 km/h (2 Bft) SW 225 0 min 0,000 mm 0,6 UV-I 83 W/m -2,6 C 2,5 C 14,5 km/h (3 Bft)
07.02.2019 12:16 4,0 C 4,4 C 1,7 C 62 % 1012,2 hPa 0,0 l/m 13,3 km/h (3 Bft) SW 224 0 min 0,000 mm 0,7 UV-I 88 W/m -2,6 C 0,8 C 22,5 km/h (4 Bft)
07.02.2019 12:18 4,0 C 4,4 C 1,7 C 62 % 1012,1 hPa 0,0 l/m 8,1 km/h (2 Bft) SW 225 0 min 0,000 mm 0,7 UV-I 95 W/m -2,6 C 1,9 C 16,1 km/h (3 Bft)
07.02.2019 12:20 4,0 C 4,4 C 1,1 C 62 % 1012,0 hPa 0,0 l/m 6,3 km/h (2 Bft) SW 214 0 min 0,000 mm 0,7 UV-I 100 W/m -2,6 C 2,5 C 12,9 km/h (3 Bft)
07.02.2019 12:22 4,1 C 5,0 C 1,1 C 62 % 1012,1 hPa 0,0 l/m 8,1 km/h (2 Bft) S-SW 200 0 min 0,000 mm 0,7 UV-I 104 W/m -2,5 C 2,1 C 19,3 km/h (3 Bft)
07.02.2019 12:24 4,1 C 5,0 C 1,1 C 62 % 1012,0 hPa 0,0 l/m 5,5 km/h (2 Bft) S 191 0 min 0,000 mm 0,7 UV-I 111 W/m -2,5 C 2,9 C 11,3 km/h (2 Bft)
07.02.2019 12:26 4,1 C 5,0 C 1,7 C 62 % 1012,0 hPa 0,0 l/m 4,9 km/h (1 Bft) S-SW 206 0 min 0,000 mm 0,8 UV-I 116 W/m -2,5 C 3,1 C 11,3 km/h (2 Bft)
07.02.2019 12:28 4,1 C 5,0 C 1,7 C 63 % 1012,0 hPa 0,0 l/m 7,0 km/h (2 Bft) SW 229 0 min 0,000 mm 0,8 UV-I 118 W/m -2,3 C 2,4 C 17,7 km/h (3 Bft)
07.02.2019 12:30 4,1 C 5,0 C 1,1 C 62 % 1012,1 hPa 0,0 l/m 9,5 km/h (2 Bft) SW 229 0 min 0,000 mm 0,7 UV-I 111 W/m -2,5 C 1,7 C 16,1 km/h (3 Bft)
07.02.2019 12:32 4,1 C 5,0 C 1,7 C 62 % 1012,0 hPa 0,0 l/m 7,5 km/h (2 Bft) SW 217 0 min 0,000 mm 0,7 UV-I 109 W/m -2,5 C 2,2 C 17,7 km/h (3 Bft)
07.02.2019 12:34 4,1 C 5,0 C 1,7 C 62 % 1011,9 hPa 0,0 l/m 4,5 km/h (1 Bft) SW 225 0 min 0,000 mm 0,7 UV-I 107 W/m -2,5 C 4,1 C 14,5 km/h (3 Bft)
07.02.2019 12:36 4,2 C 5,0 C 1,7 C 62 % 1011,9 hPa 0,0 l/m 8,3 km/h (2 Bft) S-SW 211 0 min 0,000 mm 0,7 UV-I 100 W/m -2,4 C 2,1 C 16,1 km/h (3 Bft)
07.02.2019 12:38 4,2 C 5,0 C 1,1 C 62 % 1011,8 hPa 0,0 l/m 7,1 km/h (2 Bft) SW 217 0 min 0,000 mm 0,7 UV-I 93 W/m -2,4 C 2,5 C 12,9 km/h (3 Bft)
07.02.2019 12:40 4,2 C 5,0 C 1,7 C 62 % 1011,9 hPa 0,0 l/m 4,8 km/h (1 Bft) SW 224 0 min 0,000 mm 0,7 UV-I 93 W/m -2,4 C 3,3 C 14,5 km/h (3 Bft)
07.02.2019 12:42 4,2 C 5,0 C 1,1 C 62 % 1011,9 hPa 0,0 l/m 7,6 km/h (2 Bft) SW 217 0 min 0,000 mm 0,7 UV-I 100 W/m -2,4 C 2,3 C 14,5 km/h (3 Bft)
07.02.2019 12:44 4,2 C 5,0 C 1,1 C 62 % 1011,8 hPa 0,0 l/m 6,6 km/h (2 Bft) SW 215 0 min 0,000 mm 0,7 UV-I 102 W/m -2,4 C 2,6 C 16,1 km/h (3 Bft)
07.02.2019 12:46 4,2 C 5,0 C 1,7 C 63 % 1011,8 hPa 0,0 l/m 5,6 km/h (2 Bft) SW 222 0 min 0,000 mm 0,7 UV-I 98 W/m -2,2 C 2,9 C 9,7 km/h (2 Bft)
07.02.2019 12:48 4,3 C 5,0 C 1,7 C 62 % 1011,9 hPa 0,0 l/m 12,8 km/h (3 Bft) S-SW 212 0 min 0,000 mm 0,7 UV-I 98 W/m -2,3 C 1,3 C 19,3 km/h (3 Bft)
07.02.2019 12:50 4,3 C 5,0 C 1,7 C 62 % 1011,9 hPa 0,0 l/m 8,3 km/h (2 Bft) SW 219 0 min 0,000 mm 0,7 UV-I 100 W/m -2,3 C 2,2 C 19,3 km/h (3 Bft)
07.02.2019 12:52 4,3 C 5,0 C 1,1 C 62 % 1011,8 hPa 0,0 l/m 8,4 km/h (2 Bft) SW 214 0 min 0,000 mm 0,7 UV-I 102 W/m -2,3 C 2,2 C 16,1 km/h (3 Bft)
07.02.2019 12:54 4,3 C 5,0 C 1,1 C 62 % 1011,7 hPa 0,0 l/m 8,1 km/h (2 Bft) S-SW 211 0 min 0,000 mm 0,7 UV-I 107 W/m -2,3 C 2,3 C 14,5 km/h (3 Bft)
07.02.2019 12:56 4,3 C 5,0 C 1,1 C 62 % 1011,7 hPa 0,0 l/m 7,3 km/h (2 Bft) S-SW 203 0 min 0,000 mm 0,7 UV-I 123 W/m -2,3 C 2,5 C 16,1 km/h (3 Bft)
07.02.2019 12:58 4,4 C 5,6 C 1,1 C 62 % 1011,6 hPa 0,0 l/m 6,1 km/h (2 Bft) S-SW 198 0 min 0,000 mm 0,8 UV-I 141 W/m -2,2 C 3,0 C 14,5 km/h (3 Bft)
07.02.2019 13:00 4,4 C 6,1 C 1,1 C 62 % 1011,6 hPa 0,0 l/m 3,1 km/h (1 Bft) S 189 0 min 0,000 mm 0,9 UV-I 163 W/m -2,2 C 4,4 C 9,7 km/h (2 Bft)
07.02.2019 13:04 4,6 C 6,1 C 1,1 C 62 % 1011,4 hPa 0,0 l/m 5,8 km/h (2 Bft) SW 215 0 min 0,076 mm 1,0 UV-I 192 W/m -2,0 C 3,3 C 17,7 km/h (3 Bft)
07.02.2019 13:06 4,7 C 6,7 C 1,1 C 62 % 1011,4 hPa 0,0 l/m 4,6 km/h (1 Bft) S 190 0 min 0,000 mm 0,9 UV-I 181 W/m -1,9 C 3,9 C 12,9 km/h (3 Bft)
07.02.2019 13:08 4,7 C 6,7 C 1,7 C 62 % 1011,3 hPa 0,0 l/m 5,4 km/h (2 Bft) S 174 0 min 0,000 mm 0,9 UV-I 169 W/m -1,9 C 3,6 C 12,9 km/h (3 Bft)
07.02.2019 13:10 4,7 C 6,7 C 1,1 C 62 % 1011,4 hPa 0,0 l/m 6,8 km/h (2 Bft) SW 219 0 min 0,000 mm 0,8 UV-I 134 W/m -1,9 C 3,1 C 16,1 km/h (3 Bft)
07.02.2019 13:12 4,7 C 6,1 C 1,1 C 62 % 1011,3 hPa 0,0 l/m 8,4 km/h (2 Bft) S-SW 194 0 min 0,000 mm 0,7 UV-I 116 W/m -1,9 C 2,7 C 14,5 km/h (3 Bft)
07.02.2019 13:14 4,6 C 5,6 C 1,7 C 62 % 1011,3 hPa 0,0 l/m 8,5 km/h (2 Bft) S-SW 194 0 min 0,000 mm 0,7 UV-I 107 W/m -2,0 C 2,5 C 17,7 km/h (3 Bft)
07.02.2019 13:16 4,6 C 5,6 C 1,1 C 63 % 1011,3 hPa 0,0 l/m 8,6 km/h (2 Bft) S-SW 208 0 min 0,000 mm 0,7 UV-I 109 W/m -1,8 C 2,5 C 17,7 km/h (3 Bft)
07.02.2019 13:18 4,5 C 5,6 C 1,1 C 62 % 1011,3 hPa 0,0 l/m 9,8 km/h (2 Bft) SW 215 0 min 0,000 mm 0,8 UV-I 120 W/m -2,1 C 2,1 C 16,1 km/h (3 Bft)
07.02.2019 13:20 4,4 C 5,6 C 1,7 C 62 % 1011,3 hPa 0,0 l/m 6,4 km/h (2 Bft) S-SW 200 0 min 0,000 mm 0,8 UV-I 121 W/m -2,2 C 2,9 C 14,5 km/h (3 Bft)
07.02.2019 13:22 4,4 C 5,6 C 1,1 C 63 % 1011,2 hPa 0,0 l/m 6,5 km/h (2 Bft) S-SO 168 0 min 0,000 mm 0,8 UV-I 111 W/m -2,0 C 2,9 C 17,7 km/h (3 Bft)
07.02.2019 13:24 4,4 C 5,6 C 1,7 C 63 % 1011,2 hPa 0,0 l/m 7,2 km/h (2 Bft) S 188 0 min 0,000 mm 0,8 UV-I 107 W/m -2,0 C 2,7 C 17,7 km/h (3 Bft)
07.02.2019 13:26 4,5 C 5,6 C 1,7 C 63 % 1011,2 hPa 0,0 l/m 3,9 km/h (1 Bft) SW 214 0 min 0,000 mm 0,7 UV-I 105 W/m -1,9 C 4,5 C 9,7 km/h (2 Bft)
07.02.2019 13:28 4,4 C 5,6 C 1,1 C 63 % 1011,2 hPa 0,0 l/m 5,9 km/h (2 Bft) S-SW 202 0 min 0,000 mm 0,7 UV-I 95 W/m -2,0 C 3,1 C 12,9 km/h (3 Bft)
07.02.2019 13:30 4,4 C 5,0 C 1,1 C 63 % 1011,3 hPa 0,0 l/m 6,1 km/h (2 Bft) SW 217 0 min 0,000 mm 0,7 UV-I 84 W/m -2,0 C 3,0 C 14,5 km/h (3 Bft)
07.02.2019 13:32 4,4 C 5,0 C 1,7 C 63 % 1011,3 hPa 0,0 l/m 5,2 km/h (1 Bft) S-SW 196 0 min 0,000 mm 0,6 UV-I 76 W/m -2,0 C 3,3 C 14,5 km/h (3 Bft)
07.02.2019 13:34 4,3 C 5,0 C 1,7 C 63 % 1011,3 hPa 0,0 l/m 3,8 km/h (1 Bft) S-SW 213 0 min 0,000 mm 0,6 UV-I 74 W/m -2,1 C 4,3 C 11,3 km/h (2 Bft)
07.02.2019 13:36 4,3 C 5,0 C 1,1 C 63 % 1011,3 hPa 0,0 l/m 4,3 km/h (1 Bft) SW 219 0 min 0,000 mm 0,6 UV-I 72 W/m -2,1 C 4,3 C 9,7 km/h (2 Bft)
07.02.2019 13:38 4,3 C 5,0 C 1,7 C 64 % 1011,3 hPa 0,0 l/m 2,3 km/h (1 Bft) S 189 0 min 0,000 mm 0,6 UV-I 74 W/m -1,9 C 4,3 C 8,0 km/h (2 Bft)
07.02.2019 13:40 4,3 C 5,0 C 1,7 C 63 % 1011,3 hPa 0,0 l/m 7,6 km/h (2 Bft) S 184 0 min 0,000 mm 0,5 UV-I 60 W/m -2,1 C 2,4 C 12,9 km/h (3 Bft)
07.02.2019 13:42 4,3 C 4,4 C 1,1 C 63 % 1011,2 hPa 0,0 l/m 9,5 km/h (2 Bft) S 169 0 min 0,000 mm 0,0 UV-I 49 W/m -2,1 C 1,9 C 17,7 km/h (3 Bft)
07.02.2019 13:44 4,2 C 4,4 C 1,1 C 64 % 1011,2 hPa 0,0 l/m 9,1 km/h (2 Bft) S 189 0 min 0,000 mm 0,0 UV-I 53 W/m -2,0 C 1,9 C 20,9 km/h (4 Bft)
07.02.2019 13:46 4,2 C 3,9 C 1,7 C 64 % 1011,4 hPa 0,0 l/m 9,8 km/h (2 Bft) S-SW 210 0 min 0,000 mm 0,5 UV-I 56 W/m -2,0 C 1,7 C 16,1 km/h (3 Bft)
07.02.2019 13:48 4,1 C 3,3 C 1,7 C 65 % 1011,3 hPa 0,0 l/m 6,4 km/h (2 Bft) S-SW 200 0 min 0,000 mm 0,5 UV-I 56 W/m -1,9 C 2,6 C 14,5 km/h (3 Bft)
07.02.2019 13:50 4,1 C 3,3 C 1,1 C 68 % 1011,3 hPa 0,0 l/m 8,1 km/h (2 Bft) S 190 0 min 0,000 mm 0,5 UV-I 56 W/m -1,3 C 2,1 C 16,1 km/h (3 Bft)
07.02.2019 13:52 4,0 C 2,8 C 1,1 C 68 % 1011,3 hPa 0,0 l/m 9,1 km/h (2 Bft) SW 230 0 min 0,000 mm 0,5 UV-I 60 W/m -1,4 C 1,7 C 14,5 km/h (3 Bft)
07.02.2019 13:54 3,9 C 2,8 C 1,7 C 69 % 1011,2 hPa 0,0 l/m 5,5 km/h (2 Bft) S 188 0 min 0,000 mm 0,6 UV-I 69 W/m -1,3 C 2,6 C 12,9 km/h (3 Bft)
07.02.2019 13:56 3,9 C 2,8 C 1,1 C 69 % 1011,2 hPa 0,0 l/m 8,5 km/h (2 Bft) SW 220 0 min 0,000 mm 0,6 UV-I 76 W/m -1,3 C 1,7 C 16,1 km/h (3 Bft)
07.02.2019 13:58 3,9 C 3,3 C 1,7 C 70 % 1011,2 hPa 0,0 l/m 6,8 km/h (2 Bft) W-SW 242 0 min 0,000 mm 0,6 UV-I 83 W/m -1,1 C 2,2 C 14,5 km/h (3 Bft)
07.02.2019 14:00 3,8 C 3,3 C 1,7 C 70 % 1011,3 hPa 0,0 l/m 10,4 km/h (2 Bft) S-SW 213 0 min 0,000 mm 0,6 UV-I 77 W/m -1,2 C 1,1 C 17,7 km/h (3 Bft)
07.02.2019 14:02 3,9 C 3,3 C 1,7 C 70 % 1011,3 hPa 0,0 l/m 8,5 km/h (2 Bft) S-SW 210 0 min 0,051 mm 0,6 UV-I 72 W/m -1,1 C 1,7 C 17,7 km/h (3 Bft)
07.02.2019 14:04 3,9 C 3,9 C 1,7 C 70 % 1011,2 hPa 0,0 l/m 3,7 km/h (1 Bft) SW 215 0 min 0,000 mm 0,6 UV-I 79 W/m -1,1 C 3,9 C 9,7 km/h (2 Bft)
07.02.2019 14:06 3,9 C 3,9 C 1,1 C 71 % 1011,2 hPa 0,0 l/m 3,9 km/h (1 Bft) S-SW 213 0 min 0,000 mm 0,6 UV-I 67 W/m -0,9 C 3,9 C 9,7 km/h (2 Bft)
07.02.2019 14:08 3,9 C 3,9 C 1,7 C 70 % 1011,2 hPa 0,0 l/m 5,6 km/h (2 Bft) SW 218 0 min 0,000 mm 0,0 UV-I 49 W/m -1,1 C 2,6 C 11,3 km/h (2 Bft)
07.02.2019 14:10 3,9 C 3,9 C 1,7 C 70 % 1011,2 hPa 0,0 l/m 7,0 km/h (2 Bft) S 190 0 min 0,000 mm 0,0 UV-I 44 W/m -1,1 C 2,1 C 14,5 km/h (3 Bft)
07.02.2019 14:12 3,9 C 3,9 C 1,7 C 69 % 1011,2 hPa 0,0 l/m 8,4 km/h (2 Bft) SW 214 0 min 0,000 mm 0,0 UV-I 47 W/m -1,3 C 1,7 C 14,5 km/h (3 Bft)
07.02.2019 14:14 4,0 C 3,9 C 1,1 C 69 % 1011,2 hPa 0,0 l/m 5,4 km/h (2 Bft) S-SW 192 0 min 0,000 mm 0,0 UV-I 54 W/m -1,2 C 2,8 C 14,5 km/h (3 Bft)
07.02.2019 14:16 4,0 C 3,9 C 1,7 C 69 % 1011,2 hPa 0,0 l/m 9,7 km/h (2 Bft) S 183 0 min 0,000 mm 0,6 UV-I 84 W/m -1,2 C 1,5 C 14,5 km/h (3 Bft)
07.02.2019 14:18 4,1 C 4,4 C 1,7 C 70 % 1011,2 hPa 0,0 l/m 5,5 km/h (2 Bft) S-SW 198 0 min 0,000 mm 0,6 UV-I 91 W/m -0,9 C 2,9 C 14,5 km/h (3 Bft)
07.02.2019 14:20 4,1 C 4,4 C 1,1 C 70 % 1011,2 hPa 0,0 l/m 7,3 km/h (2 Bft) SW 215 0 min 0,000 mm 0,6 UV-I 84 W/m -0,9 C 2,3 C 14,5 km/h (3 Bft)
07.02.2019 14:23 4,1 C 4,4 C 1,7 C 70 % 1011,2 hPa 0,0 l/m 6,0 km/h (2 Bft) S-SW 206 0 min 0,000 mm 0,5 UV-I 60 W/m -0,9 C 2,7 C 17,7 km/h (3 Bft)
07.02.2019 14:24 4,1 C 4,4 C 1,7 C 70 % 1011,2 hPa 0,0 l/m 9,9 km/h (2 Bft) SW 216 0 min 0,000 mm 0,5 UV-I 58 W/m -0,9 C 1,6 C 12,9 km/h (3 Bft)
07.02.2019 14:26 4,1 C 4,4 C 1,7 C 69 % 1011,2 hPa 0,0 l/m 8,1 km/h (2 Bft) SW 215 0 min 0,000 mm 0,0 UV-I 44 W/m -1,1 C 2,1 C 16,1 km/h (3 Bft)
07.02.2019 14:28 4,1 C 4,4 C 1,1 C 69 % 1011,3 hPa 0,0 l/m 8,4 km/h (2 Bft) SW 226 0 min 0,000 mm 0,0 UV-I 44 W/m -1,1 C 2,0 C 14,5 km/h (3 Bft)
07.02.2019 14:30 4,1 C 3,9 C 1,1 C 69 % 1011,4 hPa 0,0 l/m 8,2 km/h (2 Bft) S 190 0 min 0,000 mm 0,0 UV-I 44 W/m -1,1 C 2,0 C 17,7 km/h (3 Bft)
07.02.2019 14:32 4,1 C 4,4 C 1,1 C 70 % 1011,4 hPa 0,0 l/m 2,9 km/h (1 Bft) SW 236 0 min 0,000 mm 0,0 UV-I 47 W/m -0,9 C 4,1 C 12,9 km/h (3 Bft)
07.02.2019 14:34 4,2 C 4,4 C 1,7 C 70 % 1011,5 hPa 0,0 l/m 4,3 km/h (1 Bft) SW 217 0 min 0,000 mm 0,0 UV-I 54 W/m -0,8 C 4,2 C 12,9 km/h (3 Bft)
07.02.2019 14:36 4,2 C 4,4 C 1,1 C 70 % 1011,5 hPa 0,0 l/m 7,7 km/h (2 Bft) S-SW 210 0 min 0,000 mm 0,0 UV-I 51 W/m -0,8 C 2,3 C 16,1 km/h (3 Bft)
07.02.2019 14:38 4,2 C 4,4 C 1,1 C 70 % 1011,5 hPa 0,0 l/m 4,8 km/h (1 Bft) SW 220 0 min 0,000 mm 0,0 UV-I 60 W/m -0,8 C 3,3 C 11,3 km/h (2 Bft)
07.02.2019 14:40 4,2 C 4,4 C 1,7 C 70 % 1011,4 hPa 0,0 l/m 5,5 km/h (2 Bft) S-SW 211 0 min 0,000 mm 0,5 UV-I 65 W/m -0,8 C 3,0 C 14,5 km/h (3 Bft)
07.02.2019 14:42 4,2 C 4,4 C 1,1 C 70 % 1011,4 hPa 0,0 l/m 5,2 km/h (1 Bft) SW 223 0 min 0,000 mm 0,5 UV-I 70 W/m -0,8 C 3,1 C 11,3 km/h (2 Bft)
07.02.2019 14:44 4,3 C 4,4 C 1,1 C 70 % 1011,3 hPa 0,0 l/m 7,0 km/h (2 Bft) SW 221 0 min 0,000 mm 0,6 UV-I 76 W/m -0,7 C 2,6 C 16,1 km/h (3 Bft)
07.02.2019 14:46 4,3 C 4,4 C 1,7 C 70 % 1011,3 hPa 0,0 l/m 5,9 km/h (2 Bft) SW 224 0 min 0,000 mm 0,6 UV-I 74 W/m -0,7 C 3,0 C 11,3 km/h (2 Bft)
07.02.2019 14:48 4,3 C 4,4 C 1,7 C 69 % 1011,3 hPa 0,0 l/m 5,1 km/h (1 Bft) S-SW 212 0 min 0,000 mm 0,6 UV-I 74 W/m -0,9 C 3,2 C 11,3 km/h (2 Bft)
07.02.2019 14:50 4,3 C 4,4 C 1,7 C 69 % 1011,2 hPa 0,0 l/m 5,1 km/h (1 Bft) SW 218 0 min 0,000 mm 0,6 UV-I 72 W/m -0,9 C 3,2 C 11,3 km/h (2 Bft)
07.02.2019 14:52 4,3 C 4,4 C 1,1 C 70 % 1011,3 hPa 0,0 l/m 7,7 km/h (2 Bft) S-SW 212 0 min 0,000 mm 0,5 UV-I 70 W/m -0,7 C 2,4 C 14,5 km/h (3 Bft)
07.02.2019 14:54 4,3 C 5,0 C 1,1 C 69 % 1011,3 hPa 0,0 l/m 9,9 km/h (2 Bft) S-SW 202 0 min 0,000 mm 0,5 UV-I 74 W/m -0,9 C 1,8 C 16,1 km/h (3 Bft)
07.02.2019 14:56 4,4 C 5,0 C 1,7 C 70 % 1011,2 hPa 0,0 l/m 4,6 km/h (1 Bft) SW 223 0 min 0,000 mm 0,5 UV-I 76 W/m -0,6 C 3,6 C 9,7 km/h (2 Bft)
07.02.2019 14:58 4,4 C 5,0 C 1,1 C 70 % 1011,3 hPa 0,0 l/m 5,4 km/h (2 Bft) SW 218 0 min 0,000 mm 0,5 UV-I 72 W/m -0,6 C 3,2 C 12,9 km/h (3 Bft)
07.02.2019 15:00 4,4 C 5,0 C 1,7 C 69 % 1011,3 hPa 0,0 l/m 4,9 km/h (1 Bft) SW 225 0 min 0,000 mm 0,5 UV-I 70 W/m -0,8 C 3,4 C 9,7 km/h (2 Bft)
07.02.2019 15:02 4,4 C 5,0 C 1,7 C 70 % 1011,2 hPa 0,0 l/m 4,9 km/h (1 Bft) SW 216 0 min 0,051 mm 0,5 UV-I 72 W/m -0,6 C 3,4 C 9,7 km/h (2 Bft)
07.02.2019 15:04 4,4 C 5,0 C 1,7 C 69 % 1011,1 hPa 0,0 l/m 6,3 km/h (2 Bft) S-SW 208 0 min 0,000 mm 0,5 UV-I 77 W/m -0,8 C 2,9 C 16,1 km/h (3 Bft)
07.02.2019 15:06 4,4 C 5,0 C 1,7 C 69 % 1011,1 hPa 0,0 l/m 6,5 km/h (2 Bft) S-SW 210 0 min 0,000 mm 0,5 UV-I 81 W/m -0,8 C 2,9 C 14,5 km/h (3 Bft)
07.02.2019 15:08 4,5 C 5,0 C 1,7 C 69 % 1011,1 hPa 0,0 l/m 6,8 km/h (2 Bft) SW 217 0 min 0,000 mm 0,5 UV-I 69 W/m -0,7 C 2,9 C 14,5 km/h (3 Bft)
07.02.2019 15:10 4,5 C 5,0 C 1,7 C 69 % 1011,2 hPa 0,0 l/m 9,5 km/h (2 Bft) SW 215 0 min 0,000 mm 0,5 UV-I 63 W/m -0,7 C 2,2 C 19,3 km/h (3 Bft)
07.02.2019 15:12 4,6 C 5,0 C 1,7 C 69 % 1011,1 hPa 0,0 l/m 6,7 km/h (2 Bft) SW 216 0 min 0,000 mm 0,5 UV-I 65 W/m -0,6 C 3,0 C 16,1 km/h (3 Bft)
07.02.2019 15:14 4,6 C 5,0 C 1,7 C 69 % 1011,1 hPa 0,0 l/m 4,5 km/h (1 Bft) S 171 0 min 0,000 mm 0,5 UV-I 67 W/m -0,6 C 4,6 C 9,7 km/h (2 Bft)
07.02.2019 15:16 4,6 C 5,0 C 1,1 C 69 % 1011,1 hPa 0,0 l/m 7,1 km/h (2 Bft) S-SW 210 0 min 0,000 mm 0,5 UV-I 62 W/m -0,6 C 2,9 C 16,1 km/h (3 Bft)
07.02.2019 15:18 4,6 C 5,0 C 1,7 C 69 % 1011,3 hPa 0,0 l/m 1,1 km/h (1 Bft) SW 215 0 min 0,000 mm 0,5 UV-I 56 W/m -0,6 C 4,6 C 6,4 km/h (2 Bft)
07.02.2019 15:20 4,5 C 5,0 C 1,1 C 69 % 1011,4 hPa 0,0 l/m 4,5 km/h (1 Bft) SW 225 0 min 0,000 mm 0,0 UV-I 54 W/m -0,7 C 4,5 C 9,7 km/h (2 Bft)
07.02.2019 15:22 4,5 C 4,4 C 1,7 C 69 % 1011,3 hPa 0,0 l/m 8,9 km/h (2 Bft) S-SW 211 0 min 0,000 mm 0,0 UV-I 54 W/m -0,7 C 2,3 C 14,5 km/h (3 Bft)
07.02.2019 15:24 4,5 C 4,4 C 1,7 C 69 % 1011,2 hPa 0,0 l/m 7,4 km/h (2 Bft) SW 217 0 min 0,000 mm 0,0 UV-I 54 W/m -0,7 C 2,7 C 12,9 km/h (3 Bft)
07.02.2019 15:26 4,5 C 4,4 C 1,7 C 69 % 1011,2 hPa 0,0 l/m 6,1 km/h (2 Bft) S-SW 206 0 min 0,000 mm 0,5 UV-I 65 W/m -0,7 C 3,1 C 12,9 km/h (3 Bft)
07.02.2019 15:28 4,5 C 4,4 C 1,7 C 69 % 1011,2 hPa 0,0 l/m 5,6 km/h (2 Bft) S-SW 198 0 min 0,000 mm 0,5 UV-I 72 W/m -0,7 C 3,3 C 12,9 km/h (3 Bft)
07.02.2019 15:30 4,5 C 4,4 C 1,7 C 69 % 1011,3 hPa 0,0 l/m 7,4 km/h (2 Bft) SW 215 0 min 0,000 mm 0,5 UV-I 76 W/m -0,7 C 2,7 C 14,5 km/h (3 Bft)
07.02.2019 15:32 4,5 C 5,0 C 1,1 C 69 % 1011,3 hPa 0,0 l/m 7,3 km/h (2 Bft) SW 215 0 min 0,000 mm 0,5 UV-I 74 W/m -0,7 C 2,7 C 17,7 km/h (3 Bft)
07.02.2019 15:34 4,5 C 5,0 C 1,7 C 69 % 1011,3 hPa 0,0 l/m 7,4 km/h (2 Bft) SW 233 0 min 0,000 mm 0,5 UV-I 69 W/m -0,7 C 2,7 C 14,5 km/h (3 Bft)
07.02.2019 15:36 4,6 C 5,0 C 1,7 C 69 % 1011,2 hPa 0,0 l/m 5,5 km/h (2 Bft) S-SW 213 0 min 0,000 mm 0,5 UV-I 67 W/m -0,6 C 3,4 C 11,3 km/h (2 Bft)
07.02.2019 15:38 4,6 C 5,0 C 1,7 C 69 % 1011,2 hPa 0,0 l/m 8,4 km/h (2 Bft) SW 216 0 min 0,000 mm 0,0 UV-I 65 W/m -0,6 C 2,6 C 16,1 km/h (3 Bft)
07.02.2019 15:40 4,6 C 5,0 C 1,1 C 69 % 1011,2 hPa 0,0 l/m 11,2 km/h (2 Bft) S-SW 199 0 min 0,000 mm 0,0 UV-I 54 W/m -0,6 C 1,9 C 16,1 km/h (3 Bft)
07.02.2019 15:42 4,6 C 4,4 C 1,7 C 69 % 1011,3 hPa 0,0 l/m 7,0 km/h (2 Bft) SW 228 0 min 0,000 mm 0,0 UV-I 49 W/m -0,6 C 2,9 C 11,3 km/h (2 Bft)
07.02.2019 15:44 4,6 C 4,4 C 1,7 C 69 % 1011,3 hPa 0,0 l/m 4,9 km/h (1 Bft) SW 219 0 min 0,000 mm 0,0 UV-I 56 W/m -0,6 C 3,7 C 9,7 km/h (2 Bft)
07.02.2019 15:46 4,6 C 4,4 C 1,1 C 69 % 1011,3 hPa 0,0 l/m 9,6 km/h (2 Bft) SW 223 0 min 0,000 mm 0,0 UV-I 56 W/m -0,6 C 2,3 C 14,5 km/h (3 Bft)
07.02.2019 15:48 4,6 C 4,4 C 1,7 C 69 % 1011,4 hPa 0,0 l/m 7,3 km/h (2 Bft) SW 227 0 min 0,000 mm 0,0 UV-I 53 W/m -0,6 C 2,9 C 14,5 km/h (3 Bft)
07.02.2019 15:50 4,6 C 4,4 C 1,7 C 69 % 1011,3 hPa 0,0 l/m 4,6 km/h (1 Bft) S-SW 213 0 min 0,000 mm 0,0 UV-I 54 W/m -0,6 C 3,8 C 11,3 km/h (2 Bft)
07.02.2019 15:52 4,6 C 4,4 C 1,7 C 69 % 1011,1 hPa 0,0 l/m 6,7 km/h (2 Bft) S-SW 193 2 min 0,000 mm 0,0 UV-I 98 W/m -0,6 C 3,0 C 12,9 km/h (3 Bft)
07.02.2019 15:54 4,6 C 4,4 C 1,1 C 69 % 1011,1 hPa 0,0 l/m 5,4 km/h (2 Bft) SW 229 0 min 0,000 mm 0,0 UV-I 77 W/m -0,6 C 3,5 C 12,9 km/h (3 Bft)
07.02.2019 15:56 4,6 C 4,4 C 1,7 C 69 % 1011,3 hPa 0,0 l/m 7,4 km/h (2 Bft) SW 215 0 min 0,000 mm 0,0 UV-I 70 W/m -0,6 C 2,8 C 19,3 km/h (3 Bft)
07.02.2019 15:58 4,6 C 5,0 C 1,1 C 69 % 1011,5 hPa 0,0 l/m 5,0 km/h (1 Bft) W-SW 238 0 min 0,000 mm 0,0 UV-I 65 W/m -0,6 C 3,6 C 9,7 km/h (2 Bft)
07.02.2019 16:00 4,7 C 5,0 C 1,1 C 69 % 1011,4 hPa 0,0 l/m 7,6 km/h (2 Bft) SW 229 0 min 0,000 mm 0,0 UV-I 53 W/m -0,5 C 2,9 C 11,3 km/h (2 Bft)
07.02.2019 16:02 4,7 C 5,0 C 1,7 C 69 % 1011,4 hPa 0,0 l/m 8,0 km/h (2 Bft) SW 229 0 min 0,051 mm 0,0 UV-I 63 W/m -0,5 C 2,8 C 14,5 km/h (3 Bft)
07.02.2019 16:04 4,7 C 5,0 C 1,7 C 69 % 1011,4 hPa 0,0 l/m 11,5 km/h (2 Bft) SW 223 0 min 0,000 mm 0,0 UV-I 70 W/m -0,5 C 2,0 C 17,7 km/h (3 Bft)
07.02.2019 16:06 4,7 C 5,0 C 1,7 C 70 % 1011,4 hPa 0,0 l/m 13,4 km/h (3 Bft) W 260 0 min 0,000 mm 0,0 UV-I 49 W/m -0,3 C 1,6 C 20,9 km/h (4 Bft)
07.02.2019 16:08 4,7 C 4,4 C 1,7 C 70 % 1011,5 hPa 0,0 l/m 10,9 km/h (2 Bft) W 259 0 min 0,000 mm 0,0 UV-I 35 W/m -0,3 C 2,1 C 25,7 km/h (4 Bft)
07.02.2019 16:10 4,6 C 4,4 C 1,1 C 70 % 1011,5 hPa 0,0 l/m 8,5 km/h (2 Bft) SW 229 0 min 0,000 mm 0,0 UV-I 33 W/m -0,4 C 2,5 C 20,9 km/h (4 Bft)
07.02.2019 16:12 4,6 C 4,4 C 1,7 C 70 % 1011,5 hPa 0,0 l/m 14,5 km/h (3 Bft) W-SW 248 0 min 0,000 mm 0,0 UV-I 35 W/m -0,4 C 1,3 C 25,7 km/h (4 Bft)
07.02.2019 16:14 4,6 C 3,9 C 1,1 C 70 % 1011,4 hPa 0,0 l/m 15,1 km/h (3 Bft) S-SW 204 0 min 0,000 mm 0,0 UV-I 37 W/m -0,4 C 1,2 C 20,9 km/h (4 Bft)
07.02.2019 16:16 4,5 C 3,9 C 1,7 C 70 % 1011,3 hPa 0,0 l/m 10,0 km/h (2 Bft) SW 225 0 min 0,000 mm 0,0 UV-I 39 W/m -0,5 C 2,1 C 20,9 km/h (4 Bft)
07.02.2019 16:18 4,5 C 3,9 C 1,7 C 70 % 1011,3 hPa 0,0 l/m 13,7 km/h (3 Bft) SW 226 0 min 0,000 mm 0,0 UV-I 39 W/m -0,5 C 1,3 C 20,9 km/h (4 Bft)
07.02.2019 16:20 4,4 C 3,9 C 1,1 C 70 % 1011,4 hPa 0,0 l/m 8,4 km/h (2 Bft) SW 233 0 min 0,000 mm 0,0 UV-I 40 W/m -0,6 C 2,3 C 17,7 km/h (3 Bft)
07.02.2019 16:22 4,4 C 3,9 C 1,7 C 70 % 1011,4 hPa 0,0 l/m 11,7 km/h (2 Bft) SW 221 0 min 0,000 mm 0,0 UV-I 39 W/m -0,6 C 1,6 C 20,9 km/h (4 Bft)
07.02.2019 16:24 4,4 C 3,9 C 1,7 C 70 % 1011,4 hPa 0,0 l/m 10,3 km/h (2 Bft) SW 219 0 min 0,000 mm 0,0 UV-I 33 W/m -0,6 C 1,9 C 17,7 km/h (3 Bft)
07.02.2019 16:26 4,4 C 3,9 C 1,1 C 70 % 1011,4 hPa 0,0 l/m 9,9 km/h (2 Bft) SW 222 0 min 0,000 mm 0,0 UV-I 28 W/m -0,6 C 2,0 C 16,1 km/h (3 Bft)
07.02.2019 16:28 4,3 C 3,9 C 1,7 C 70 % 1011,4 hPa 0,0 l/m 8,5 km/h (2 Bft) SW 214 0 min 0,000 mm 0,0 UV-I 26 W/m -0,7 C 2,2 C 16,1 km/h (3 Bft)
07.02.2019 16:30 4,3 C 3,9 C 1,7 C 71 % 1011,3 hPa 0,0 l/m 7,4 km/h (2 Bft) SW 229 0 min 0,000 mm 0,0 UV-I 21 W/m -0,5 C 2,5 C 14,5 km/h (3 Bft)
07.02.2019 16:32 4,2 C 3,3 C 1,7 C 71 % 1011,3 hPa 0,0 l/m 9,8 km/h (2 Bft) S-SW 211 0 min 0,000 mm 0,0 UV-I 21 W/m -0,6 C 1,7 C 16,1 km/h (3 Bft)
07.02.2019 16:34 4,2 C 3,3 C 1,1 C 71 % 1011,3 hPa 0,0 l/m 10,5 km/h (2 Bft) SW 230 0 min 0,000 mm 0,0 UV-I 21 W/m -0,6 C 1,6 C 17,7 km/h (3 Bft)
07.02.2019 16:36 4,2 C 3,3 C 1,7 C 72 % 1011,3 hPa 0,0 l/m 12,1 km/h (2 Bft) SW 227 0 min 0,000 mm 0,0 UV-I 21 W/m -0,4 C 1,3 C 19,3 km/h (3 Bft)
07.02.2019 16:38 4,2 C 3,3 C 1,1 C 72 % 1011,4 hPa 0,0 l/m 9,2 km/h (2 Bft) SW 221 0 min 0,000 mm 0,0 UV-I 21 W/m -0,4 C 1,9 C 19,3 km/h (3 Bft)
07.02.2019 16:40 4,2 C 3,3 C 1,7 C 72 % 1011,5 hPa 0,0 l/m 11,2 km/h (2 Bft) SW 219 0 min 0,000 mm 0,0 UV-I 19 W/m -0,4 C 1,4 C 17,7 km/h (3 Bft)
07.02.2019 16:42 4,1 C 3,3 C 1,1 C 72 % 1011,4 hPa 0,0 l/m 11,4 km/h (2 Bft) SW 217 0 min 0,000 mm 0,0 UV-I 16 W/m -0,5 C 1,3 C 17,7 km/h (3 Bft)
07.02.2019 16:44 4,1 C 3,3 C 1,7 C 73 % 1011,4 hPa 0,0 l/m 8,7 km/h (2 Bft) SW 222 0 min 0,000 mm 0,0 UV-I 12 W/m -0,3 C 1,9 C 16,1 km/h (3 Bft)
07.02.2019 16:46 4,1 C 3,3 C 1,7 C 73 % 1011,5 hPa 0,0 l/m 8,9 km/h (2 Bft) SW 236 0 min 0,000 mm 0,0 UV-I 11 W/m -0,3 C 1,8 C 16,1 km/h (3 Bft)
07.02.2019 16:48 4,1 C 3,3 C 1,7 C 73 % 1011,6 hPa 0,0 l/m 11,3 km/h (2 Bft) SW 225 0 min 0,000 mm 0,0 UV-I 9 W/m -0,3 C 1,3 C 16,1 km/h (3 Bft)
07.02.2019 16:50 4,1 C 3,3 C 1,1 C 73 % 1011,8 hPa 0,0 l/m 9,7 km/h (2 Bft) SW 221 0 min 0,000 mm 0,0 UV-I 7 W/m -0,3 C 1,7 C 12,9 km/h (3 Bft)
07.02.2019 16:52 4,1 C 3,3 C 1,1 C 74 % 1011,6 hPa 0,0 l/m 8,4 km/h (2 Bft) SW 235 0 min 0,000 mm 0,0 UV-I 7 W/m -0,1 C 2,0 C 14,5 km/h (3 Bft)
07.02.2019 16:54 4,1 C 3,3 C 1,7 C 74 % 1011,6 hPa 0,0 l/m 10,1 km/h (2 Bft) SW 232 0 min 0,000 mm 0,0 UV-I 7 W/m -0,1 C 1,6 C 14,5 km/h (3 Bft)
07.02.2019 16:56 4,1 C 3,3 C 1,7 C 75 % 1011,5 hPa 0,0 l/m 11,7 km/h (2 Bft) S-SW 212 0 min 0,000 mm 0,0 UV-I 5 W/m 0,1 C 1,2 C 17,7 km/h (3 Bft)
07.02.2019 16:58 4,1 C 3,3 C 1,7 C 76 % 1011,5 hPa 0,0 l/m 12,2 km/h (2 Bft) SW 234 0 min 0,000 mm 0,0 UV-I 5 W/m 0,3 C 1,1 C 20,9 km/h (4 Bft)
07.02.2019 17:00 4,1 C 3,3 C 1,7 C 76 % 1011,5 hPa 0,0 l/m 9,9 km/h (2 Bft) SW 225 0 min 0,000 mm 0,0 UV-I 5 W/m 0,3 C 1,6 C 17,7 km/h (3 Bft)
07.02.2019 17:02 4,1 C 3,3 C 1,7 C 77 % 1011,5 hPa 0,0 l/m 12,0 km/h (2 Bft) SW 236 0 min 0,025 mm 0,0 UV-I 5 W/m 0,4 C 1,2 C 19,3 km/h (3 Bft)
07.02.2019 17:04 4,1 C 3,3 C 1,7 C 77 % 1011,6 hPa 0,0 l/m 11,1 km/h (2 Bft) SW 228 0 min 0,000 mm 0,0 UV-I 5 W/m 0,4 C 1,3 C 22,5 km/h (4 Bft)
07.02.2019 17:06 4,2 C 3,3 C 1,1 C 77 % 1011,5 hPa 0,0 l/m 5,1 km/h (1 Bft) SW 229 0 min 0,000 mm 0,0 UV-I 0 W/m 0,5 C 3,1 C 16,1 km/h (3 Bft)
07.02.2019 17:08 4,2 C 3,3 C 1,1 C 78 % 1011,5 hPa 0,0 l/m 10,4 km/h (2 Bft) SW 224 0 min 0,000 mm 0,0 UV-I 0 W/m 0,7 C 1,6 C 16,1 km/h (3 Bft)
07.02.2019 17:10 4,2 C 3,3 C 1,7 C 78 % 1011,7 hPa 0,0 l/m 8,2 km/h (2 Bft) SW 225 0 min 0,000 mm 0,0 UV-I 0 W/m 0,7 C 2,1 C 17,7 km/h (3 Bft)
07.02.2019 17:12 4,2 C 3,3 C 1,1 C 78 % 1011,7 hPa 0,0 l/m 8,9 km/h (2 Bft) W-SW 240 0 min 0,000 mm 0,0 UV-I 0 W/m 0,7 C 2,0 C 14,5 km/h (3 Bft)
07.02.2019 17:14 4,2 C 2,8 C 1,1 C 78 % 1011,8 hPa 0,0 l/m 7,9 km/h (2 Bft) SW 219 0 min 0,000 mm 0,0 UV-I 0 W/m 0,7 C 2,2 C 14,5 km/h (3 Bft)
07.02.2019 17:16 4,2 C 2,8 C 1,7 C 78 % 1011,8 hPa 0,0 l/m 7,3 km/h (2 Bft) SW 224 0 min 0,000 mm 0,0 UV-I 0 W/m 0,7 C 2,4 C 14,5 km/h (3 Bft)
07.02.2019 17:18 4,2 C 2,8 C 1,7 C 78 % 1011,8 hPa 0,0 l/m 7,5 km/h (2 Bft) SW 219 0 min 0,000 mm 0,0 UV-I 0 W/m 0,7 C 2,3 C 12,9 km/h (3 Bft)
07.02.2019 17:20 4,2 C 2,8 C 1,7 C 79 % 1011,7 hPa 0,0 l/m 6,4 km/h (2 Bft) SW 221 0 min 0,000 mm 0,0 UV-I 0 W/m 0,9 C 2,7 C 12,9 km/h (3 Bft)
07.02.2019 17:22 4,1 C 2,8 C 1,7 C 79 % 1011,8 hPa 0,0 l/m 4,2 km/h (1 Bft) SW 225 0 min 0,000 mm 0,0 UV-I 0 W/m 0,8 C 4,1 C 8,0 km/h (2 Bft)
07.02.2019 17:24 4,1 C 2,8 C 1,7 C 79 % 1011,8 hPa 0,0 l/m 4,9 km/h (1 Bft) SW 221 0 min 0,000 mm 0,0 UV-I 0 W/m 0,8 C 3,1 C 11,3 km/h (2 Bft)
07.02.2019 17:26 4,1 C 2,8 C 1,7 C 79 % 1011,9 hPa 0,0 l/m 4,6 km/h (1 Bft) S-SW 213 0 min 0,000 mm 0,0 UV-I 0 W/m 0,8 C 3,2 C 11,3 km/h (2 Bft)
07.02.2019 17:28 4,1 C 2,2 C 1,7 C 79 % 1011,9 hPa 0,0 l/m 3,7 km/h (1 Bft) SW 215 0 min 0,000 mm 0,0 UV-I 0 W/m 0,8 C 4,1 C 8,0 km/h (2 Bft)
07.02.2019 17:30 4,1 C 2,2 C 1,1 C 79 % 1011,9 hPa 0,0 l/m 5,3 km/h (1 Bft) W-SW 240 0 min 0,000 mm 0,0 UV-I 0 W/m 0,8 C 2,9 C 11,3 km/h (2 Bft)
07.02.2019 17:32 4,0 C 2,2 C 1,1 C 79 % 1012,0 hPa 0,0 l/m 5,2 km/h (1 Bft) SW 223 0 min 0,000 mm 0,0 UV-I 0 W/m 0,7 C 2,9 C 12,9 km/h (3 Bft)
07.02.2019 17:34 4,0 C 2,2 C 1,1 C 79 % 1012,0 hPa 0,0 l/m 6,3 km/h (2 Bft) S-SW 210 0 min 0,000 mm 0,0 UV-I 0 W/m 0,7 C 2,5 C 12,9 km/h (3 Bft)
07.02.2019 17:36 4,0 C 2,2 C 1,1 C 80 % 1012,0 hPa 0,0 l/m 7,1 km/h (2 Bft) SW 223 0 min 0,000 mm 0,0 UV-I 0 W/m 0,9 C 2,2 C 14,5 km/h (3 Bft)
07.02.2019 17:38 3,9 C 2,8 C 1,7 C 81 % 1012,0 hPa 0,0 l/m 7,8 km/h (2 Bft) SW 219 0 min 0,000 mm 0,0 UV-I 0 W/m 0,9 C 1,9 C 17,7 km/h (3 Bft)
07.02.2019 17:40 3,9 C 2,8 C 1,1 C 81 % 1012,0 hPa 0,0 l/m 5,6 km/h (2 Bft) SW 226 0 min 0,000 mm 0,0 UV-I 0 W/m 0,9 C 2,6 C 11,3 km/h (2 Bft)
07.02.2019 17:42 3,9 C 2,8 C 1,7 C 81 % 1011,9 hPa 0,0 l/m 7,3 km/h (2 Bft) SW 215 0 min 0,000 mm 0,0 UV-I 0 W/m 0,9 C 2,0 C 16,1 km/h (3 Bft)
07.02.2019 17:44 3,9 C 2,8 C 1,7 C 82 % 1012,0 hPa 0,0 l/m 7,7 km/h (2 Bft) SW 214 0 min 0,000 mm 0,0 UV-I 0 W/m 1,1 C 1,9 C 19,3 km/h (3 Bft)
07.02.2019 17:46 3,9 C 2,8 C 1,7 C 82 % 1011,9 hPa 0,0 l/m 8,9 km/h (2 Bft) W-SW 241 0 min 0,000 mm 0,0 UV-I 0 W/m 1,1 C 1,6 C 19,3 km/h (3 Bft)
07.02.2019 17:48 3,9 C 2,8 C 1,1 C 82 % 1012,0 hPa 0,0 l/m 8,3 km/h (2 Bft) SW 224 0 min 0,000 mm 0,0 UV-I 0 W/m 1,1 C 1,8 C 16,1 km/h (3 Bft)
07.02.2019 17:50 3,9 C 2,8 C 1,1 C 82 % 1012,0 hPa 0,0 l/m 8,0 km/h (2 Bft) SW 217 0 min 0,000 mm 0,0 UV-I 0 W/m 1,1 C 1,8 C 16,1 km/h (3 Bft)
07.02.2019 17:52 3,9 C 2,2 C 1,1 C 82 % 1012,0 hPa 0,0 l/m 7,2 km/h (2 Bft) SW 223 0 min 0,000 mm 0,0 UV-I 0 W/m 1,1 C 2,1 C 12,9 km/h (3 Bft)
07.02.2019 17:54 3,9 C 2,8 C 1,7 C 82 % 1012,1 hPa 0,0 l/m 8,5 km/h (2 Bft) SW 217 0 min 0,000 mm 0,0 UV-I 0 W/m 1,1 C 1,7 C 14,5 km/h (3 Bft)
07.02.2019 17:56 3,9 C 2,8 C 1,7 C 83 % 1012,1 hPa 0,0 l/m 8,2 km/h (2 Bft) SW 231 0 min 0,000 mm 0,0 UV-I 0 W/m 1,3 C 1,8 C 16,1 km/h (3 Bft)
07.02.2019 17:58 3,8 C 2,8 C 1,7 C 83 % 1012,1 hPa 0,0 l/m 7,4 km/h (2 Bft) W-SW 240 0 min 0,000 mm 0,0 UV-I 0 W/m 1,2 C 1,9 C 14,5 km/h (3 Bft)
07.02.2019 18:00 3,8 C 2,8 C 1,7 C 83 % 1012,1 hPa 0,0 l/m 10,7 km/h (2 Bft) W 260 0 min 0,000 mm 0,0 UV-I 0 W/m 1,2 C 1,1 C 19,3 km/h (3 Bft)
07.02.2019 18:02 3,8 C 2,8 C 1,1 C 83 % 1012,2 hPa 0,0 l/m 5,0 km/h (1 Bft) SW 218 0 min 0,026 mm 0,0 UV-I 0 W/m 1,2 C 2,7 C 11,3 km/h (2 Bft)
07.02.2019 18:04 3,8 C 2,8 C 1,7 C 83 % 1012,2 hPa 0,0 l/m 7,7 km/h (2 Bft) SW 233 0 min 0,000 mm 0,0 UV-I 0 W/m 1,2 C 1,8 C 16,1 km/h (3 Bft)
07.02.2019 18:06 3,8 C 2,8 C 1,1 C 83 % 1012,2 hPa 0,0 l/m 10,6 km/h (2 Bft) SW 233 0 min 0,000 mm 0,0 UV-I 0 W/m 1,2 C 1,1 C 14,5 km/h (3 Bft)
07.02.2019 18:08 3,8 C 2,8 C 1,7 C 83 % 1012,2 hPa 0,0 l/m 7,4 km/h (2 Bft) W-SW 243 0 min 0,000 mm 0,0 UV-I 0 W/m 1,2 C 1,9 C 17,7 km/h (3 Bft)
07.02.2019 18:10 3,8 C 2,8 C 1,1 C 83 % 1012,3 hPa 0,0 l/m 9,0 km/h (2 Bft) SW 221 0 min 0,000 mm 0,0 UV-I 0 W/m 1,2 C 1,5 C 14,5 km/h (3 Bft)
07.02.2019 18:12 3,8 C 2,8 C 1,1 C 83 % 1012,3 hPa 0,0 l/m 11,3 km/h (2 Bft) SW 225 0 min 0,000 mm 0,0 UV-I 0 W/m 1,2 C 0,9 C 22,5 km/h (4 Bft)
07.02.2019 18:14 3,8 C 2,8 C 1,7 C 83 % 1012,4 hPa 0,0 l/m 12,0 km/h (2 Bft) SW 236 0 min 0,000 mm 0,0 UV-I 0 W/m 1,2 C 0,8 C 20,9 km/h (4 Bft)
07.02.2019 18:16 3,8 C 2,8 C 1,7 C 83 % 1012,4 hPa 0,0 l/m 8,2 km/h (2 Bft) W-SW 238 0 min 0,000 mm 0,0 UV-I 0 W/m 1,2 C 1,7 C 16,1 km/h (3 Bft)
07.02.2019 18:18 3,8 C 2,8 C 1,7 C 84 % 1012,5 hPa 0,0 l/m 9,9 km/h (2 Bft) W-SW 242 0 min 0,000 mm 0,0 UV-I 0 W/m 1,4 C 1,2 C 20,9 km/h (4 Bft)
07.02.2019 18:20 3,8 C 2,8 C 1,7 C 84 % 1012,5 hPa 0,0 l/m 9,2 km/h (2 Bft) SW 235 0 min 0,000 mm 0,0 UV-I 0 W/m 1,4 C 1,4 C 14,5 km/h (3 Bft)
07.02.2019 18:22 3,8 C 2,8 C 1,1 C 84 % 1012,5 hPa 0,0 l/m 10,9 km/h (2 Bft) SW 235 0 min 0,000 mm 0,0 UV-I 0 W/m 1,4 C 1,0 C 14,5 km/h (3 Bft)
07.02.2019 18:24 3,7 C 2,8 C 1,1 C 84 % 1012,5 hPa 0,0 l/m 11,4 km/h (2 Bft) W-SW 238 0 min 0,000 mm 0,0 UV-I 0 W/m 1,3 C 0,8 C 17,7 km/h (3 Bft)
07.02.2019 18:26 3,7 C 2,8 C 1,1 C 84 % 1012,5 hPa 0,0 l/m 11,4 km/h (2 Bft) W-SW 245 0 min 0,000 mm 0,0 UV-I 0 W/m 1,3 C 0,8 C 16,1 km/h (3 Bft)
07.02.2019 18:28 3,7 C 2,8 C 1,7 C 84 % 1012,6 hPa 0,0 l/m 13,0 km/h (3 Bft) W-SW 245 0 min 0,000 mm 0,0 UV-I 0 W/m 1,3 C 0,5 C 19,3 km/h (3 Bft)
07.02.2019 18:30 3,7 C 2,8 C 1,1 C 84 % 1012,6 hPa 0,0 l/m 10,3 km/h (2 Bft) W-SW 248 0 min 0,000 mm 0,0 UV-I 0 W/m 1,3 C 1,0 C 16,1 km/h (3 Bft)
07.02.2019 18:32 3,7 C 2,2 C 1,7 C 84 % 1012,6 hPa 0,0 l/m 8,3 km/h (2 Bft) SW 225 0 min 0,000 mm 0,0 UV-I 0 W/m 1,3 C 1,5 C 11,3 km/h (2 Bft)
07.02.2019 18:34 3,7 C 2,2 C 1,7 C 84 % 1012,6 hPa 0,0 l/m 9,2 km/h (2 Bft) W-SW 240 0 min 0,000 mm 0,0 UV-I 0 W/m 1,3 C 1,3 C 19,3 km/h (3 Bft)
07.02.2019 18:36 3,7 C 2,8 C 1,7 C 84 % 1012,7 hPa 0,0 l/m 8,4 km/h (2 Bft) SW 227 0 min 0,000 mm 0,0 UV-I 0 W/m 1,3 C 1,5 C 16,1 km/h (3 Bft)
07.02.2019 18:38 3,7 C 2,8 C 1,1 C 84 % 1012,7 hPa 0,0 l/m 8,6 km/h (2 Bft) SW 227 0 min 0,000 mm 0,0 UV-I 0 W/m 1,3 C 1,4 C 16,1 km/h (3 Bft)
07.02.2019 18:40 3,6 C 2,8 C 1,7 C 84 % 1012,8 hPa 0,0 l/m 6,2 km/h (2 Bft) SW 225 0 min 0,000 mm 0,0 UV-I 0 W/m 1,2 C 2,0 C 11,3 km/h (2 Bft)
07.02.2019 18:42 3,6 C 2,8 C 1,7 C 84 % 1012,8 hPa 0,0 l/m 9,6 km/h (2 Bft) SW 228 0 min 0,000 mm 0,0 UV-I 0 W/m 1,2 C 1,1 C 14,5 km/h (3 Bft)
07.02.2019 18:44 3,6 C 2,8 C 1,7 C 84 % 1012,8 hPa 0,0 l/m 6,4 km/h (2 Bft) SW 232 0 min 0,000 mm 0,0 UV-I 0 W/m 1,2 C 2,0 C 9,7 km/h (2 Bft)
07.02.2019 18:46 3,6 C 2,2 C 1,7 C 84 % 1012,9 hPa 0,0 l/m 9,7 km/h (2 Bft) W-SW 243 0 min 0,000 mm 0,0 UV-I 0 W/m 1,2 C 1,1 C 14,5 km/h (3 Bft)
07.02.2019 18:48 3,6 C 2,2 C 1,1 C 84 % 1012,9 hPa 0,0 l/m 7,9 km/h (2 Bft) SW 227 0 min 0,000 mm 0,0 UV-I 0 W/m 1,2 C 1,5 C 14,5 km/h (3 Bft)
07.02.2019 18:50 3,6 C 2,8 C 1,1 C 84 % 1012,8 hPa 0,0 l/m 11,0 km/h (2 Bft) SW 225 0 min 0,000 mm 0,0 UV-I 0 W/m 1,2 C 0,8 C 19,3 km/h (3 Bft)
07.02.2019 18:52 3,6 C 2,8 C 1,7 C 84 % 1012,9 hPa 0,0 l/m 9,5 km/h (2 Bft) SW 224 0 min 0,000 mm 0,0 UV-I 0 W/m 1,2 C 1,1 C 16,1 km/h (3 Bft)
07.02.2019 18:54 3,6 C 2,8 C 1,1 C 84 % 1012,7 hPa 0,0 l/m 11,0 km/h (2 Bft) W-SW 238 0 min 0,000 mm 0,0 UV-I 0 W/m 1,2 C 0,8 C 19,3 km/h (3 Bft)
07.02.2019 18:56 3,6 C 2,8 C 1,1 C 84 % 1012,7 hPa 0,0 l/m 10,3 km/h (2 Bft) SW 217 0 min 0,000 mm 0,0 UV-I 0 W/m 1,2 C 0,9 C 19,3 km/h (3 Bft)
07.02.2019 18:58 3,6 C 2,8 C 1,1 C 85 % 1012,7 hPa 0,0 l/m 10,5 km/h (2 Bft) S-SW 210 0 min 0,000 mm 0,0 UV-I 0 W/m 1,3 C 0,9 C 17,7 km/h (3 Bft)
07.02.2019 19:00 3,6 C 2,8 C 1,1 C 85 % 1012,8 hPa 0,0 l/m 9,1 km/h (2 Bft) SW 229 0 min 0,000 mm 0,0 UV-I 0 W/m 1,3 C 1,2 C 14,5 km/h (3 Bft)
07.02.2019 19:02 3,6 C 2,8 C 1,7 C 85 % 1012,8 hPa 0,0 l/m 11,1 km/h (2 Bft) SW 231 0 min 0,025 mm 0,0 UV-I 0 W/m 1,3 C 0,7 C 17,7 km/h (3 Bft)
07.02.2019 19:04 3,6 C 2,8 C 1,7 C 85 % 1012,8 hPa 0,0 l/m 7,2 km/h (2 Bft) SW 236 0 min 0,000 mm 0,0 UV-I 0 W/m 1,3 C 1,7 C 11,3 km/h (2 Bft)
07.02.2019 19:06 3,5 C 2,8 C 1,1 C 85 % 1012,9 hPa 0,0 l/m 6,4 km/h (2 Bft) SW 228 0 min 0,000 mm 0,0 UV-I 0 W/m 1,2 C 1,9 C 14,5 km/h (3 Bft)
07.02.2019 19:08 3,5 C 2,2 C 1,7 C 85 % 1012,9 hPa 0,0 l/m 6,9 km/h (2 Bft) W-SW 248 0 min 0,000 mm 0,0 UV-I 0 W/m 1,2 C 1,7 C 12,9 km/h (3 Bft)
07.02.2019 19:10 3,5 C 2,8 C 1,7 C 84 % 1013,0 hPa 0,0 l/m 9,3 km/h (2 Bft) W 260 0 min 0,000 mm 0,0 UV-I 0 W/m 1,1 C 1,0 C 17,7 km/h (3 Bft)
07.02.2019 19:12 3,5 C 2,2 C 1,1 C 84 % 1013,0 hPa 0,0 l/m 5,1 km/h (1 Bft) W-SW 248 0 min 0,000 mm 0,0 UV-I 0 W/m 1,1 C 2,3 C 12,9 km/h (3 Bft)
07.02.2019 19:14 3,5 C 2,2 C 1,7 C 84 % 1013,1 hPa 0,0 l/m 10,9 km/h (2 Bft) W-SW 237 0 min 0,000 mm 0,0 UV-I 0 W/m 1,1 C 0,7 C 20,9 km/h (4 Bft)
07.02.2019 19:16 3,5 C 2,8 C 1,7 C 85 % 1013,1 hPa 0,0 l/m 9,2 km/h (2 Bft) SW 231 0 min 0,000 mm 0,0 UV-I 0 W/m 1,2 C 1,1 C 22,5 km/h (4 Bft)
07.02.2019 19:18 3,4 C 2,8 C 1,7 C 85 % 1013,1 hPa 0,0 l/m 11,5 km/h (2 Bft) W-SW 250 0 min 0,000 mm 0,0 UV-I 0 W/m 1,1 C 0,4 C 19,3 km/h (3 Bft)
07.02.2019 19:20 3,4 C 2,2 C 1,7 C 85 % 1013,1 hPa 0,0 l/m 8,8 km/h (2 Bft) W-SW 242 0 min 0,000 mm 0,0 UV-I 0 W/m 1,1 C 1,0 C 14,5 km/h (3 Bft)
07.02.2019 19:22 3,4 C 2,2 C 1,1 C 85 % 1013,1 hPa 0,0 l/m 4,7 km/h (1 Bft) W-SW 238 0 min 0,000 mm 0,0 UV-I 0 W/m 1,1 C 2,4 C 12,9 km/h (3 Bft)
07.02.2019 19:24 3,4 C 2,2 C 1,1 C 85 % 1013,1 hPa 0,0 l/m 7,3 km/h (2 Bft) SW 214 0 min 0,000 mm 0,0 UV-I 0 W/m 1,1 C 1,5 C 12,9 km/h (3 Bft)
07.02.2019 19:26 3,4 C 2,2 C 1,7 C 85 % 1013,1 hPa 0,0 l/m 7,9 km/h (2 Bft) SW 233 0 min 0,000 mm 0,0 UV-I 0 W/m 1,1 C 1,3 C 12,9 km/h (3 Bft)
07.02.2019 19:28 3,4 C 2,2 C 1,1 C 85 % 1013,1 hPa 0,0 l/m 4,3 km/h (1 Bft) W-SW 246 0 min 0,000 mm 0,0 UV-I 0 W/m 1,1 C 3,4 C 9,7 km/h (2 Bft)
07.02.2019 19:30 3,4 C 2,2 C 1,1 C 85 % 1013,1 hPa 0,0 l/m 2,1 km/h (1 Bft) W-SW 244 0 min 0,000 mm 0,0 UV-I 0 W/m 1,1 C 3,4 C 8,0 km/h (2 Bft)
07.02.2019 19:32 3,4 C 2,2 C 1,1 C 85 % 1013,1 hPa 0,0 l/m 6,0 km/h (2 Bft) SW 234 0 min 0,000 mm 0,0 UV-I 0 W/m 1,1 C 1,9 C 9,7 km/h (2 Bft)
07.02.2019 19:34 3,4 C 2,2 C 1,1 C 85 % 1013,1 hPa 0,0 l/m 5,1 km/h (1 Bft) W-SW 238 0 min 0,000 mm 0,0 UV-I 0 W/m 1,1 C 2,2 C 12,9 km/h (3 Bft)
07.02.2019 19:36 3,3 C 2,2 C 1,7 C 85 % 1013,1 hPa 0,0 l/m 6,3 km/h (2 Bft) SW 223 0 min 0,000 mm 0,0 UV-I 0 W/m 1,0 C 1,7 C 12,9 km/h (3 Bft)
07.02.2019 19:38 3,3 C 2,2 C 1,7 C 85 % 1013,1 hPa 0,0 l/m 6,2 km/h (2 Bft) S-SW 210 0 min 0,000 mm 0,0 UV-I 0 W/m 1,0 C 1,7 C 12,9 km/h (3 Bft)
07.02.2019 19:40 3,3 C 2,2 C 1,1 C 85 % 1013,1 hPa 0,0 l/m 7,7 km/h (2 Bft) W-SW 240 0 min 0,000 mm 0,0 UV-I 0 W/m 1,0 C 1,2 C 12,9 km/h (3 Bft)
07.02.2019 19:42 3,3 C 2,2 C 1,7 C 85 % 1013,2 hPa 0,0 l/m 5,8 km/h (2 Bft) SW 218 0 min 0,000 mm 0,0 UV-I 0 W/m 1,0 C 1,8 C 16,1 km/h (3 Bft)
07.02.2019 19:44 3,3 C 2,2 C 1,7 C 85 % 1013,1 hPa 0,0 l/m 10,1 km/h (2 Bft) SW 232 0 min 0,000 mm 0,0 UV-I 0 W/m 1,0 C 0,6 C 16,1 km/h (3 Bft)
07.02.2019 19:46 3,3 C 2,2 C 1,7 C 85 % 1013,1 hPa 0,0 l/m 7,6 km/h (2 Bft) SW 228 0 min 0,000 mm 0,0 UV-I 0 W/m 1,0 C 1,3 C 11,3 km/h (2 Bft)
07.02.2019 19:48 3,3 C 2,2 C 1,7 C 85 % 1013,1 hPa 0,0 l/m 6,8 km/h (2 Bft) SW 232 0 min 0,000 mm 0,0 UV-I 0 W/m 1,0 C 1,5 C 12,9 km/h (3 Bft)
07.02.2019 19:50 3,2 C 2,2 C 1,7 C 85 % 1013,0 hPa 0,0 l/m 5,4 km/h (2 Bft) SW 220 0 min 0,000 mm 0,0 UV-I 0 W/m 0,9 C 1,9 C 9,7 km/h (2 Bft)
07.02.2019 19:52 3,2 C 2,2 C 1,1 C 85 % 1013,0 hPa 0,0 l/m 8,2 km/h (2 Bft) SW 229 0 min 0,000 mm 0,0 UV-I 0 W/m 0,9 C 1,0 C 14,5 km/h (3 Bft)
07.02.2019 19:54 3,2 C 2,2 C 1,1 C 85 % 1013,0 hPa 0,0 l/m 4,6 km/h (1 Bft) S-SW 210 0 min 0,000 mm 0,0 UV-I 0 W/m 0,9 C 2,2 C 14,5 km/h (3 Bft)
07.02.2019 19:56 3,2 C 2,2 C 1,7 C 86 % 1013,0 hPa 0,0 l/m 9,7 km/h (2 Bft) W-SW 240 0 min 0,000 mm 0,0 UV-I 0 W/m 1,1 C 0,6 C 16,1 km/h (3 Bft)
07.02.2019 19:58 3,2 C 2,2 C 1,1 C 86 % 1013,0 hPa 0,0 l/m 8,0 km/h (2 Bft) W-SW 237 0 min 0,000 mm 0,0 UV-I 0 W/m 1,1 C 1,0 C 20,9 km/h (4 Bft)
07.02.2019 20:00 3,2 C 2,2 C 1,7 C 86 % 1013,0 hPa 0,0 l/m 9,1 km/h (2 Bft) SW 233 0 min 0,000 mm 0,0 UV-I 0 W/m 1,1 C 0,7 C 17,7 km/h (3 Bft)
07.02.2019 20:02 3,2 C 2,2 C 1,7 C 86 % 1013,1 hPa 0,0 l/m 8,8 km/h (2 Bft) W-SW 239 0 min 0,000 mm 0,0 UV-I 0 W/m 1,1 C 0,8 C 12,9 km/h (3 Bft)
07.02.2019 20:04 3,2 C 2,2 C 1,7 C 86 % 1013,1 hPa 0,0 l/m 7,6 km/h (2 Bft) W-SW 250 0 min 0,000 mm 0,0 UV-I 0 W/m 1,1 C 1,1 C 14,5 km/h (3 Bft)
07.02.2019 20:06 3,1 C 1,7 C 1,1 C 86 % 1013,1 hPa 0,0 l/m 6,1 km/h (2 Bft) SW 225 0 min 0,000 mm 0,0 UV-I 0 W/m 1,0 C 1,5 C 16,1 km/h (3 Bft)
07.02.2019 20:08 3,1 C 1,7 C 1,7 C 86 % 1013,2 hPa 0,0 l/m 8,5 km/h (2 Bft) SW 229 0 min 0,000 mm 0,0 UV-I 0 W/m 1,0 C 0,8 C 14,5 km/h (3 Bft)
07.02.2019 20:10 3,1 C 1,7 C 1,1 C 86 % 1013,2 hPa 0,0 l/m 8,3 km/h (2 Bft) SW 232 0 min 0,000 mm 0,0 UV-I 0 W/m 1,0 C 0,8 C 12,9 km/h (3 Bft)
07.02.2019 20:12 3,1 C 1,7 C 1,1 C 86 % 1013,2 hPa 0,0 l/m 9,6 km/h (2 Bft) SW 233 0 min 0,000 mm 0,0 UV-I 0 W/m 1,0 C 0,5 C 17,7 km/h (3 Bft)
07.02.2019 20:14 3,1 C 1,7 C 1,1 C 86 % 1013,2 hPa 0,0 l/m 8,0 km/h (2 Bft) SW 226 0 min 0,000 mm 0,0 UV-I 0 W/m 1,0 C 0,9 C 14,5 km/h (3 Bft)
07.02.2019 20:16 3,1 C 1,7 C 1,7 C 86 % 1013,2 hPa 0,0 l/m 5,2 km/h (1 Bft) W-SW 252 0 min 0,000 mm 0,0 UV-I 0 W/m 1,0 C 1,8 C 12,9 km/h (3 Bft)
07.02.2019 20:18 3,1 C 1,7 C 1,7 C 86 % 1013,1 hPa 0,0 l/m 7,8 km/h (2 Bft) W-SW 250 0 min 0,000 mm 0,0 UV-I 0 W/m 1,0 C 1,0 C 12,9 km/h (3 Bft)
07.02.2019 20:20 3,0 C 1,7 C 1,1 C 86 % 1013,1 hPa 0,0 l/m 9,4 km/h (2 Bft) SW 217 0 min 0,000 mm 0,0 UV-I 0 W/m 0,9 C 0,4 C 19,3 km/h (3 Bft)
07.02.2019 20:22 3,0 C 1,7 C 1,7 C 86 % 1013,1 hPa 0,0 l/m 8,8 km/h (2 Bft) SW 217 0 min 0,000 mm 0,0 UV-I 0 W/m 0,9 C 0,6 C 12,9 km/h (3 Bft)
07.02.2019 20:24 3,0 C 1,7 C 1,1 C 86 % 1013,1 hPa 0,0 l/m 7,9 km/h (2 Bft) S-SW 200 0 min 0,000 mm 0,0 UV-I 0 W/m 0,9 C 0,8 C 12,9 km/h (3 Bft)
07.02.2019 20:26 3,0 C 1,7 C 1,1 C 86 % 1013,1 hPa 0,0 l/m 10,3 km/h (2 Bft) SW 217 0 min 0,000 mm 0,0 UV-I 0 W/m 0,9 C 0,2 C 19,3 km/h (3 Bft)
07.02.2019 20:28 2,9 C 1,7 C 1,7 C 86 % 1013,1 hPa 0,0 l/m 8,7 km/h (2 Bft) SW 222 0 min 0,000 mm 0,0 UV-I 0 W/m 0,8 C 0,5 C 16,1 km/h (3 Bft)
07.02.2019 20:30 2,9 C 1,7 C 1,7 C 86 % 1013,1 hPa 0,0 l/m 7,1 km/h (2 Bft) SW 220 0 min 0,000 mm 0,0 UV-I 0 W/m 0,8 C 0,9 C 11,3 km/h (2 Bft)
07.02.2019 20:32 2,9 C 1,7 C 1,1 C 86 % 1013,3 hPa 0,0 l/m 5,6 km/h (2 Bft) SW 236 0 min 0,000 mm 0,0 UV-I 0 W/m 0,8 C 1,5 C 14,5 km/h (3 Bft)
07.02.2019 20:34 2,9 C 1,7 C 1,1 C 86 % 1013,3 hPa 0,0 l/m 7,3 km/h (2 Bft) SW 223 0 min 0,000 mm 0,0 UV-I 0 W/m 0,8 C 0,9 C 17,7 km/h (3 Bft)
07.02.2019 20:36 2,9 C 1,7 C 1,1 C 86 % 1013,4 hPa 0,0 l/m 6,1 km/h (2 Bft) SW 235 0 min 0,000 mm 0,0 UV-I 0 W/m 0,8 C 1,3 C 12,9 km/h (3 Bft)
07.02.2019 20:38 2,9 C 1,7 C 1,7 C 86 % 1013,4 hPa 0,0 l/m 7,6 km/h (2 Bft) SW 229 0 min 0,000 mm 0,0 UV-I 0 W/m 0,8 C 0,8 C 14,5 km/h (3 Bft)
07.02.2019 20:40 2,9 C 1,7 C 1,7 C 86 % 1013,4 hPa 0,0 l/m 7,5 km/h (2 Bft) SW 230 0 min 0,000 mm 0,0 UV-I 0 W/m 0,8 C 0,8 C 11,3 km/h (2 Bft)
07.02.2019 20:42 2,9 C 1,7 C 1,7 C 86 % 1013,4 hPa 0,0 l/m 6,7 km/h (2 Bft) SW 220 0 min 0,000 mm 0,0 UV-I 0 W/m 0,8 C 1,1 C 14,5 km/h (3 Bft)
07.02.2019 20:44 2,8 C 1,7 C 1,7 C 86 % 1013,4 hPa 0,0 l/m 5,4 km/h (2 Bft) SW 226 0 min 0,000 mm 0,0 UV-I 0 W/m 0,7 C 1,4 C 17,7 km/h (3 Bft)
07.02.2019 20:46 2,8 C 1,7 C 1,1 C 86 % 1013,4 hPa 0,0 l/m 5,3 km/h (1 Bft) W-SW 240 0 min 0,000 mm 0,0 UV-I 0 W/m 0,7 C 1,5 C 12,9 km/h (3 Bft)
07.02.2019 20:48 2,8 C 1,1 C 1,1 C 86 % 1013,4 hPa 0,0 l/m 1,2 km/h (1 Bft) W-SW 240 0 min 0,000 mm 0,0 UV-I 0 W/m 0,7 C 2,8 C 6,4 km/h (2 Bft)
07.02.2019 20:50 2,8 C 1,1 C 1,1 C 86 % 1013,4 hPa 0,0 l/m 4,9 km/h (1 Bft) W-SW 257 0 min 0,000 mm 0,0 UV-I 0 W/m 0,7 C 1,6 C 9,7 km/h (2 Bft)
07.02.2019 20:52 2,8 C 1,7 C 1,7 C 86 % 1013,4 hPa 0,0 l/m 8,1 km/h (2 Bft) SW 233 0 min 0,000 mm 0,0 UV-I 0 W/m 0,7 C 0,5 C 16,1 km/h (3 Bft)
07.02.2019 20:54 2,8 C 1,7 C 1,1 C 86 % 1013,5 hPa 0,0 l/m 3,2 km/h (1 Bft) SW 221 0 min 0,000 mm 0,0 UV-I 0 W/m 0,7 C 2,8 C 9,7 km/h (2 Bft)
07.02.2019 20:56 2,8 C 1,7 C 1,7 C 86 % 1013,4 hPa 0,0 l/m 8,1 km/h (2 Bft) W-SW 248 0 min 0,000 mm 0,0 UV-I 0 W/m 0,7 C 0,5 C 11,3 km/h (2 Bft)
07.02.2019 20:58 2,8 C 1,7 C 1,1 C 86 % 1013,5 hPa 0,0 l/m 4,1 km/h (1 Bft) SW 234 0 min 0,000 mm 0,0 UV-I 0 W/m 0,7 C 2,8 C 9,7 km/h (2 Bft)
07.02.2019 21:00 2,8 C 1,1 C 1,7 C 86 % 1013,5 hPa 0,0 l/m 6,5 km/h (2 Bft) SW 222 0 min 0,000 mm 0,0 UV-I 0 W/m 0,7 C 1,0 C 12,9 km/h (3 Bft)
07.02.2019 21:02 2,8 C 1,7 C 1,7 C 86 % 1013,5 hPa 0,0 l/m 10,8 km/h (2 Bft) SW 234 0 min 0,000 mm 0,0 UV-I 0 W/m 0,7 C -0,2 C 19,3 km/h (3 Bft)
07.02.2019 21:04 2,8 C 1,7 C 1,1 C 86 % 1013,5 hPa 0,0 l/m 7,3 km/h (2 Bft) SW 235 0 min 0,000 mm 0,0 UV-I 0 W/m 0,7 C 0,8 C 14,5 km/h (3 Bft)
07.02.2019 21:06 2,7 C 1,7 C 1,1 C 86 % 1013,5 hPa 0,0 l/m 8,2 km/h (2 Bft) SW 227 0 min 0,000 mm 0,0 UV-I 0 W/m 0,6 C 0,4 C 12,9 km/h (3 Bft)
07.02.2019 21:08 2,7 C 1,7 C 1,1 C 86 % 1013,5 hPa 0,0 l/m 3,9 km/h (1 Bft) W-SW 242 0 min 0,000 mm 0,0 UV-I 0 W/m 0,6 C 2,7 C 9,7 km/h (2 Bft)
07.02.2019 21:10 2,7 C 1,7 C 1,1 C 86 % 1013,5 hPa 0,0 l/m 6,9 km/h (2 Bft) W-SW 247 0 min 0,000 mm 0,0 UV-I 0 W/m 0,6 C 0,8 C 14,5 km/h (3 Bft)
07.02.2019 21:12 2,7 C 1,7 C 1,1 C 86 % 1013,6 hPa 0,0 l/m 7,8 km/h (2 Bft) SW 235 0 min 0,000 mm 0,0 UV-I 0 W/m 0,6 C 0,5 C 12,9 km/h (3 Bft)
07.02.2019 21:14 2,7 C 1,7 C 1,7 C 86 % 1013,6 hPa 0,0 l/m 7,5 km/h (2 Bft) SW 225 0 min 0,000 mm 0,0 UV-I 0 W/m 0,6 C 0,6 C 12,9 km/h (3 Bft)
07.02.2019 21:16 2,7 C 1,7 C 1,1 C 87 % 1013,8 hPa 0,0 l/m 6,0 km/h (2 Bft) W-SW 238 0 min 0,000 mm 0,0 UV-I 0 W/m 0,8 C 1,1 C 11,3 km/h (2 Bft)
07.02.2019 21:18 2,7 C 1,7 C 1,1 C 87 % 1013,7 hPa 0,0 l/m 3,5 km/h (1 Bft) S-SW 208 0 min 0,000 mm 0,0 UV-I 0 W/m 0,8 C 2,7 C 9,7 km/h (2 Bft)
07.02.2019 21:20 2,7 C 1,7 C 1,1 C 87 % 1013,7 hPa 0,0 l/m 3,6 km/h (1 Bft) SW 226 0 min 0,000 mm 0,0 UV-I 0 W/m 0,8 C 2,7 C 9,7 km/h (2 Bft)
07.02.2019 21:22 2,7 C 1,7 C 1,7 C 87 % 1013,6 hPa 0,0 l/m 7,9 km/h (2 Bft) SW 224 0 min 0,000 mm 0,0 UV-I 0 W/m 0,8 C 0,5 C 19,3 km/h (3 Bft)
07.02.2019 21:24 2,7 C 1,7 C 1,1 C 87 % 1013,7 hPa 0,0 l/m 2,3 km/h (1 Bft) SW 217 0 min 0,000 mm 0,0 UV-I 0 W/m 0,8 C 2,7 C 11,3 km/h (2 Bft)
07.02.2019 21:26 2,7 C 1,7 C 1,1 C 87 % 1013,6 hPa 0,0 l/m 7,4 km/h (2 Bft) SW 216 0 min 0,000 mm 0,0 UV-I 0 W/m 0,8 C 0,6 C 14,5 km/h (3 Bft)
07.02.2019 21:28 2,7 C 1,7 C 1,1 C 87 % 1013,6 hPa 0,0 l/m 8,7 km/h (2 Bft) SW 231 0 min 0,000 mm 0,0 UV-I 0 W/m 0,8 C 0,2 C 16,1 km/h (3 Bft)
07.02.2019 21:30 2,7 C 1,7 C 1,7 C 87 % 1013,6 hPa 0,0 l/m 6,9 km/h (2 Bft) S-SW 210 0 min 0,000 mm 0,0 UV-I 0 W/m 0,8 C 0,8 C 11,3 km/h (2 Bft)
07.02.2019 21:32 2,7 C 1,7 C 1,7 C 87 % 1013,7 hPa 0,0 l/m 7,8 km/h (2 Bft) SW 228 0 min 0,000 mm 0,0 UV-I 0 W/m 0,8 C 0,5 C 12,9 km/h (3 Bft)
07.02.2019 21:34 2,7 C 1,7 C 1,1 C 87 % 1013,8 hPa 0,0 l/m 3,5 km/h (1 Bft) SW 223 0 min 0,000 mm 0,0 UV-I 0 W/m 0,8 C 2,7 C 9,7 km/h (2 Bft)
07.02.2019 21:36 2,7 C 1,7 C 1,7 C 87 % 1013,8 hPa 0,0 l/m 5,9 km/h (2 Bft) SW 236 0 min 0,000 mm 0,0 UV-I 0 W/m 0,8 C 1,1 C 9,7 km/h (2 Bft)
07.02.2019 21:38 2,8 C 1,7 C 1,7 C 87 % 1013,9 hPa 0,0 l/m 10,1 km/h (2 Bft) SW 229 0 min 0,000 mm 0,0 UV-I 0 W/m 0,9 C 0,0 C 22,5 km/h (4 Bft)
07.02.2019 21:40 2,8 C 1,7 C 1,7 C 87 % 1013,8 hPa 0,0 l/m 8,3 km/h (2 Bft) W-SW 248 0 min 0,000 mm 0,0 UV-I 0 W/m 0,9 C 0,5 C 12,9 km/h (3 Bft)
07.02.2019 21:42 2,8 C 1,7 C 1,1 C 87 % 1013,8 hPa 0,0 l/m 10,6 km/h (2 Bft) W-SW 237 0 min 0,000 mm 0,0 UV-I 0 W/m 0,9 C -0,1 C 16,1 km/h (3 Bft)
07.02.2019 21:44 2,8 C 1,7 C 1,1 C 87 % 1013,8 hPa 0,0 l/m 7,8 km/h (2 Bft) SW 228 0 min 0,000 mm 0,0 UV-I 0 W/m 0,9 C 0,6 C 14,5 km/h (3 Bft)
07.02.2019 21:46 2,8 C 2,2 C 1,7 C 87 % 1013,8 hPa 0,0 l/m 8,0 km/h (2 Bft) SW 230 0 min 0,000 mm 0,0 UV-I 0 W/m 0,9 C 0,6 C 16,1 km/h (3 Bft)
07.02.2019 21:48 2,8 C 1,7 C 1,7 C 87 % 1013,8 hPa 0,0 l/m 8,0 km/h (2 Bft) SW 235 0 min 0,000 mm 0,0 UV-I 0 W/m 0,9 C 0,6 C 14,5 km/h (3 Bft)
07.02.2019 21:50 2,8 C 1,7 C 1,7 C 87 % 1013,8 hPa 0,0 l/m 9,0 km/h (2 Bft) S 190 0 min 0,000 mm 0,0 UV-I 0 W/m 0,9 C 0,3 C 16,1 km/h (3 Bft)
07.02.2019 21:52 2,8 C 1,7 C 1,7 C 87 % 1013,8 hPa 0,0 l/m 11,4 km/h (2 Bft) SW 223 0 min 0,000 mm 0,0 UV-I 0 W/m 0,9 C -0,3 C 20,9 km/h (4 Bft)
07.02.2019 21:54 2,9 C 2,2 C 1,7 C 87 % 1013,8 hPa 0,0 l/m 8,8 km/h (2 Bft) W-SW 240 0 min 0,000 mm 0,0 UV-I 0 W/m 1,0 C 0,4 C 17,7 km/h (3 Bft)
07.02.2019 21:56 2,9 C 2,2 C 1,1 C 87 % 1013,8 hPa 0,0 l/m 9,0 km/h (2 Bft) SW 228 0 min 0,000 mm 0,0 UV-I 0 W/m 1,0 C 0,4 C 16,1 km/h (3 Bft)
07.02.2019 21:58 2,9 C 2,2 C 1,1 C 87 % 1013,9 hPa 0,0 l/m 12,0 km/h (2 Bft) W-SW 238 0 min 0,000 mm 0,0 UV-I 0 W/m 1,0 C -0,3 C 20,9 km/h (4 Bft)
07.02.2019 22:00 2,9 C 2,2 C 1,1 C 87 % 1013,9 hPa 0,0 l/m 7,9 km/h (2 Bft) SW 225 0 min 0,000 mm 0,0 UV-I 0 W/m 1,0 C 0,7 C 12,9 km/h (3 Bft)
07.02.2019 22:02 2,9 C 1,7 C 1,1 C 87 % 1013,9 hPa 0,0 l/m 8,6 km/h (2 Bft) SW 227 0 min 0,000 mm 0,0 UV-I 0 W/m 1,0 C 0,5 C 14,5 km/h (3 Bft)
07.02.2019 22:04 2,9 C 2,2 C 1,1 C 87 % 1014,0 hPa 0,0 l/m 11,3 km/h (2 Bft) SW 228 0 min 0,000 mm 0,0 UV-I 0 W/m 1,0 C -0,1 C 17,7 km/h (3 Bft)
07.02.2019 22:06 2,9 C 2,2 C 1,1 C 87 % 1013,9 hPa 0,0 l/m 9,1 km/h (2 Bft) S-SW 205 0 min 0,000 mm 0,0 UV-I 0 W/m 1,0 C 0,4 C 14,5 km/h (3 Bft)
07.02.2019 22:08 3,0 C 2,2 C 1,1 C 87 % 1013,9 hPa 0,0 l/m 4,6 km/h (1 Bft) S-SW 209 0 min 0,000 mm 0,0 UV-I 0 W/m 1,1 C 2,0 C 9,7 km/h (2 Bft)
07.02.2019 22:10 2,9 C 2,2 C 1,1 C 87 % 1013,9 hPa 0,0 l/m 5,2 km/h (1 Bft) SW 222 0 min 0,000 mm 0,0 UV-I 0 W/m 1,0 C 1,6 C 14,5 km/h (3 Bft)
07.02.2019 22:12 3,0 C 2,2 C 1,7 C 87 % 1014,0 hPa 0,0 l/m 7,8 km/h (2 Bft) SW 221 0 min 0,000 mm 0,0 UV-I 0 W/m 1,1 C 0,8 C 12,9 km/h (3 Bft)
07.02.2019 22:14 3,0 C 2,2 C 1,1 C 87 % 1014,0 hPa 0,0 l/m 11,2 km/h (2 Bft) W-SW 246 0 min 0,000 mm 0,0 UV-I 0 W/m 1,1 C -0,0 C 19,3 km/h (3 Bft)
07.02.2019 22:16 3,0 C 2,2 C 1,1 C 87 % 1014,0 hPa 0,0 l/m 6,8 km/h (2 Bft) SW 225 0 min 0,000 mm 0,0 UV-I 0 W/m 1,1 C 1,1 C 16,1 km/h (3 Bft)
07.02.2019 22:18 3,0 C 2,2 C 1,7 C 87 % 1013,9 hPa 0,0 l/m 2,2 km/h (1 Bft) SW 216 0 min 0,000 mm 0,0 UV-I 0 W/m 1,1 C 3,0 C 11,3 km/h (2 Bft)
07.02.2019 22:20 3,0 C 2,2 C 1,7 C 87 % 1013,9 hPa 0,0 l/m 10,2 km/h (2 Bft) SW 217 0 min 0,000 mm 0,0 UV-I 0 W/m 1,1 C 0,2 C 16,1 km/h (3 Bft)
07.02.2019 22:22 3,0 C 2,2 C 1,1 C 87 % 1014,0 hPa 0,0 l/m 7,7 km/h (2 Bft) SW 218 0 min 0,000 mm 0,0 UV-I 0 W/m 1,1 C 0,9 C 17,7 km/h (3 Bft)
07.02.2019 22:24 3,0 C 2,2 C 1,7 C 87 % 1014,0 hPa 0,0 l/m 8,2 km/h (2 Bft) SW 230 0 min 0,000 mm 0,0 UV-I 0 W/m 1,1 C 0,7 C 17,7 km/h (3 Bft)
07.02.2019 22:26 2,9 C 2,2 C 1,1 C 87 % 1014,1 hPa 0,0 l/m 6,2 km/h (2 Bft) SW 225 0 min 0,000 mm 0,0 UV-I 0 W/m 1,0 C 1,2 C 12,9 km/h (3 Bft)
07.02.2019 22:28 2,9 C 1,7 C 1,1 C 87 % 1014,2 hPa 0,0 l/m 5,2 km/h (1 Bft) W-SW 245 0 min 0,000 mm 0,0 UV-I 0 W/m 1,0 C 1,6 C 9,7 km/h (2 Bft)
07.02.2019 22:30 2,9 C 1,7 C 1,7 C 87 % 1014,2 hPa 0,0 l/m 8,4 km/h (2 Bft) W-SW 239 0 min 0,000 mm 0,0 UV-I 0 W/m 1,0 C 0,6 C 14,5 km/h (3 Bft)
07.02.2019 22:32 2,9 C 1,7 C 1,7 C 87 % 1014,1 hPa 0,0 l/m 0,4 km/h (0 Bft) W-SW 238 0 min 0,000 mm 0,0 UV-I 0 W/m 1,0 C 2,9 C 4,8 km/h (1 Bft)
07.02.2019 22:34 2,9 C 1,1 C 1,7 C 86 % 1014,1 hPa 0,0 l/m 3,4 km/h (1 Bft) SW 215 0 min 0,000 mm 0,0 UV-I 0 W/m 0,8 C 2,9 C 8,0 km/h (2 Bft)
07.02.2019 22:36 2,9 C 1,7 C 1,1 C 86 % 1014,1 hPa 0,0 l/m 3,8 km/h (1 Bft) SW 226 0 min 0,000 mm 0,0 UV-I 0 W/m 0,8 C 2,9 C 12,9 km/h (3 Bft)
07.02.2019 22:38 2,8 C 1,7 C 1,7 C 86 % 1014,2 hPa 0,0 l/m 0,5 km/h (0 Bft) SW 226 0 min 0,000 mm 0,0 UV-I 0 W/m 0,7 C 2,8 C 4,8 km/h (1 Bft)
07.02.2019 22:40 2,8 C 1,7 C 1,7 C 86 % 1014,2 hPa 0,0 l/m 2,7 km/h (1 Bft) S-SW 210 0 min 0,000 mm 0,0 UV-I 0 W/m 0,7 C 2,8 C 11,3 km/h (2 Bft)
07.02.2019 22:42 2,8 C 1,7 C 1,7 C 86 % 1014,3 hPa 0,0 l/m 0,0 km/h (0 Bft) S-SW 209 0 min 0,000 mm 0,0 UV-I 0 W/m 0,7 C 2,8 C 0,0 km/h (0 Bft)
07.02.2019 22:44 2,8 C 1,7 C 1,1 C 86 % 1014,4 hPa 0,0 l/m 1,1 km/h (1 Bft) S-SW 210 0 min 0,000 mm 0,0 UV-I 0 W/m 0,7 C 2,8 C 6,4 km/h (2 Bft)
07.02.2019 22:46 2,8 C 1,1 C 1,1 C 86 % 1014,4 hPa 0,0 l/m 0,5 km/h (0 Bft) S-SW 210 0 min 0,000 mm 0,0 UV-I 0 W/m 0,7 C 2,8 C 6,4 km/h (2 Bft)
07.02.2019 22:48 2,8 C 1,1 C 1,7 C 86 % 1014,4 hPa 0,0 l/m 1,1 km/h (1 Bft) S-SW 210 0 min 0,000 mm 0,0 UV-I 0 W/m 0,7 C 2,8 C 8,0 km/h (2 Bft)
07.02.2019 22:50 2,8 C 1,1 C 1,7 C 86 % 1014,5 hPa 0,0 l/m 2,7 km/h (1 Bft) SW 223 0 min 0,000 mm 0,0 UV-I 0 W/m 0,7 C 2,8 C 11,3 km/h (2 Bft)
07.02.2019 22:52 2,7 C 1,1 C 1,1 C 86 % 1014,5 hPa 0,0 l/m 4,5 km/h (1 Bft) SW 223 0 min 0,000 mm 0,0 UV-I 0 W/m 0,6 C 2,7 C 8,0 km/h (2 Bft)
07.02.2019 22:54 2,7 C 1,1 C 1,1 C 86 % 1014,5 hPa 0,0 l/m 5,7 km/h (2 Bft) SW 223 0 min 0,000 mm 0,0 UV-I 0 W/m 0,6 C 1,2 C 9,7 km/h (2 Bft)
07.02.2019 22:56 2,7 C 1,1 C 1,7 C 86 % 1014,5 hPa 0,0 l/m 1,9 km/h (1 Bft) SW 223 0 min 0,000 mm 0,0 UV-I 0 W/m 0,6 C 2,7 C 6,4 km/h (2 Bft)
07.02.2019 22:58 2,7 C 1,1 C 1,7 C 86 % 1014,5 hPa 0,0 l/m 2,9 km/h (1 Bft) SW 225 0 min 0,000 mm 0,0 UV-I 0 W/m 0,6 C 2,7 C 11,3 km/h (2 Bft)
07.02.2019 23:00 2,6 C 1,1 C 1,1 C 86 % 1014,5 hPa 0,0 l/m 4,9 km/h (1 Bft) SW 221 0 min 0,000 mm 0,0 UV-I 0 W/m 0,5 C 1,4 C 9,7 km/h (2 Bft)
07.02.2019 23:02 2,6 C 1,1 C 1,1 C 87 % 1014,6 hPa 0,0 l/m 5,1 km/h (1 Bft) S-SW 213 0 min 0,000 mm 0,0 UV-I 0 W/m 0,7 C 1,3 C 9,7 km/h (2 Bft)
07.02.2019 23:04 2,6 C 1,1 C 1,7 C 86 % 1014,6 hPa 0,0 l/m 7,2 km/h (2 Bft) SW 225 0 min 0,000 mm 0,0 UV-I 0 W/m 0,5 C 0,6 C 12,9 km/h (3 Bft)
07.02.2019 23:06 2,6 C 1,1 C 1,7 C 87 % 1014,6 hPa 0,0 l/m 6,9 km/h (2 Bft) S-SW 210 0 min 0,000 mm 0,0 UV-I 0 W/m 0,7 C 0,7 C 14,5 km/h (3 Bft)
07.02.2019 23:08 2,6 C 1,1 C 1,1 C 87 % 1014,6 hPa 0,0 l/m 8,3 km/h (2 Bft) SW 235 0 min 0,000 mm 0,0 UV-I 0 W/m 0,7 C 0,2 C 16,1 km/h (3 Bft)
07.02.2019 23:10 2,6 C 1,7 C 1,1 C 87 % 1014,6 hPa 0,0 l/m 9,1 km/h (2 Bft) SW 222 0 min 0,000 mm 0,0 UV-I 0 W/m 0,7 C 0,0 C 16,1 km/h (3 Bft)
07.02.2019 23:12 2,6 C 1,7 C 1,1 C 87 % 1014,5 hPa 0,0 l/m 6,6 km/h (2 Bft) SW 234 0 min 0,000 mm 0,0 UV-I 0 W/m 0,7 C 0,8 C 11,3 km/h (2 Bft)
07.02.2019 23:14 2,6 C 1,7 C 1,1 C 87 % 1014,6 hPa 0,0 l/m 10,7 km/h (2 Bft) S-SW 210 0 min 0,000 mm 0,0 UV-I 0 W/m 0,7 C -0,4 C 17,7 km/h (3 Bft)
07.02.2019 23:16 2,6 C 1,7 C 1,1 C 87 % 1014,5 hPa 0,0 l/m 8,9 km/h (2 Bft) SW 233 0 min 0,000 mm 0,0 UV-I 0 W/m 0,7 C 0,1 C 16,1 km/h (3 Bft)
07.02.2019 23:18 2,6 C 1,7 C 1,1 C 87 % 1014,5 hPa 0,0 l/m 11,1 km/h (2 Bft) W-SW 247 0 min 0,000 mm 0,0 UV-I 0 W/m 0,7 C -0,5 C 19,3 km/h (3 Bft)
07.02.2019 23:20 2,6 C 1,7 C 1,7 C 87 % 1014,5 hPa 0,0 l/m 10,6 km/h (2 Bft) SW 215 0 min 0,000 mm 0,0 UV-I 0 W/m 0,7 C -0,3 C 17,7 km/h (3 Bft)
07.02.2019 23:22 2,6 C 1,7 C 1,1 C 87 % 1014,6 hPa 0,0 l/m 9,6 km/h (2 Bft) SW 231 0 min 0,000 mm 0,0 UV-I 0 W/m 0,7 C -0,1 C 17,7 km/h (3 Bft)
07.02.2019 23:24 2,7 C 1,7 C 1,1 C 87 % 1014,6 hPa 0,0 l/m 10,7 km/h (2 Bft) S-SW 209 0 min 0,000 mm 0,0 UV-I 0 W/m 0,8 C -0,3 C 20,9 km/h (4 Bft)
07.02.2019 23:26 2,7 C 1,7 C 1,7 C 87 % 1014,6 hPa 0,0 l/m 6,3 km/h (2 Bft) S-SW 209 0 min 0,000 mm 0,0 UV-I 0 W/m 0,8 C 1,0 C 11,3 km/h (2 Bft)
07.02.2019 23:28 2,7 C 1,7 C 1,1 C 87 % 1014,7 hPa 0,0 l/m 10,7 km/h (2 Bft) SW 233 0 min 0,000 mm 0,0 UV-I 0 W/m 0,8 C -0,3 C 17,7 km/h (3 Bft)
07.02.2019 23:30 2,7 C 1,7 C 1,1 C 87 % 1014,6 hPa 0,0 l/m 10,1 km/h (2 Bft) S-SW 210 0 min 0,000 mm 0,0 UV-I 0 W/m 0,8 C -0,1 C 17,7 km/h (3 Bft)
07.02.2019 23:32 2,7 C 1,7 C 1,7 C 87 % 1014,6 hPa 0,0 l/m 9,5 km/h (2 Bft) S-SW 213 0 min 0,000 mm 0,0 UV-I 0 W/m 0,8 C 0,0 C 17,7 km/h (3 Bft)
07.02.2019 23:34 2,7 C 1,7 C 1,1 C 87 % 1014,6 hPa 0,0 l/m 7,4 km/h (2 Bft) S-SW 205 0 min 0,000 mm 0,0 UV-I 0 W/m 0,8 C 0,6 C 14,5 km/h (3 Bft)
07.02.2019 23:36 2,8 C 1,7 C 1,1 C 87 % 1014,7 hPa 0,0 l/m 10,8 km/h (2 Bft) SW 224 0 min 0,000 mm 0,0 UV-I 0 W/m 0,9 C -0,2 C 20,9 km/h (4 Bft)
07.02.2019 23:38 2,8 C 1,7 C 1,1 C 87 % 1014,6 hPa 0,0 l/m 11,9 km/h (2 Bft) W-SW 242 0 min 0,000 mm 0,0 UV-I 0 W/m 0,9 C -0,4 C 20,9 km/h (4 Bft)
07.02.2019 23:40 2,8 C 1,7 C 1,7 C 87 % 1014,5 hPa 0,0 l/m 9,5 km/h (2 Bft) W-SW 242 0 min 0,000 mm 0,0 UV-I 0 W/m 0,9 C 0,2 C 16,1 km/h (3 Bft)
07.02.2019 23:42 2,8 C 1,7 C 1,7 C 87 % 1014,6 hPa 0,0 l/m 11,8 km/h (2 Bft) SW 230 0 min 0,000 mm 0,0 UV-I 0 W/m 0,9 C -0,4 C 20,9 km/h (4 Bft)
07.02.2019 23:44 2,8 C 2,2 C 1,7 C 87 % 1014,6 hPa 0,0 l/m 13,2 km/h (3 Bft) SW 227 0 min 0,000 mm 0,0 UV-I 0 W/m 0,9 C -0,6 C 20,9 km/h (4 Bft)
07.02.2019 23:46 2,8 C 2,2 C 1,1 C 87 % 1014,7 hPa 0,0 l/m 10,1 km/h (2 Bft) SW 229 0 min 0,000 mm 0,0 UV-I 0 W/m 0,9 C 0,0 C 16,1 km/h (3 Bft)
07.02.2019 23:48 2,8 C 1,7 C 1,7 C 87 % 1014,7 hPa 0,0 l/m 12,0 km/h (2 Bft) SW 229 0 min 0,000 mm 0,0 UV-I 0 W/m 0,9 C -0,4 C 17,7 km/h (3 Bft)
07.02.2019 23:50 2,8 C 1,7 C 1,1 C 87 % 1014,7 hPa 0,0 l/m 11,8 km/h (2 Bft) S-SW 213 0 min 0,000 mm 0,0 UV-I 0 W/m 0,9 C -0,4 C 22,5 km/h (4 Bft)
07.02.2019 23:52 2,8 C 2,2 C 1,1 C 86 % 1014,7 hPa 0,0 l/m 13,2 km/h (3 Bft) SW 217 0 min 0,000 mm 0,0 UV-I 0 W/m 0,7 C -0,6 C 20,9 km/h (4 Bft)
07.02.2019 23:54 2,8 C 1,7 C 1,1 C 86 % 1014,7 hPa 0,0 l/m 11,3 km/h (2 Bft) SW 236 0 min 0,000 mm 0,0 UV-I 0 W/m 0,7 C -0,3 C 16,1 km/h (3 Bft)
07.02.2019 23:56 2,8 C 2,2 C 1,7 C 86 % 1014,6 hPa 0,0 l/m 12,3 km/h (2 Bft) SW 217 0 min 0,000 mm 0,0 UV-I 0 W/m 0,7 C -0,5 C 20,9 km/h (4 Bft)
07.02.2019 23:58 2,8 C 1,7 C 1,7 C 86 % 1014,7 hPa 0,0 l/m 11,6 km/h (2 Bft) SW 221 0 min 0,000 mm 0,0 UV-I 0 W/m 0,7 C -0,3 C 19,3 km/h (3 Bft)
_ Min-Zeit 05:44 04:36 23:54 11:34 15:54 - 22:42 - - - - - - 05:36 06:00 22:42
Minimum _ -1,3 C -3,9 C 1,1 C 61 % 1011,1 hPa - 0,0 km/h (0 Bft) - - - - - - -4,5 C -2,7 C 0,0 km/h (0 Bft)
_ Max-Zeit 16:08 13:10 23:58 23:50 00:06 23:58 16:14 - - 10:24 13:04 13:04 13:04 18:22 15:18 16:12
Maximum _ 4,7 C 6,7 C 1,7 C 87 % 1020,4 hPa 0,0 l/m 15,1 km/h
S-SW (3 Bft)
- - 4 min 0,076 mm 1,0 UV-I 192 W/m 1,4 C 4,6 C 25,7 km/h
W-SW (4 Bft)
Durchschnitt _ 2,0 C 1,3 C 1,3 C 77 % 1014,3 hPa #0,0 l/m 5,1 km/h (1 Bft) SW - #12 min. #0,508 mm 0,7 UV-I 78 W/m -1,6 C 0,9 C 10,7 km/h (2 Bft)